GFSMW_700_spd_000.txt.gz
Wind_Speed
15 13 8 9 6 8 9 11 11 11 12 11 9 9 10 13 15 17 18 20 21 23 26 28 29 32 34 35 37 39 41 41 43 49 48 49 48 48 47 47 47 47 47
13 8 9 6 6 9 9 10 11 10 9 9 10 12 15 16 17 19 21 23 25 27 29 30 32 34 35 36 37 40 42 42 42 46 50 54 52 49 48 46 44 42 40
10 9 6 5 7 8 8 8 9 11 11 14 16 19 20 19 20 21 23 25 27 29 30 32 33 35 37 39 40 42 43 46 44 44 47 52 55 53 52 49 48 46 46
10 7 6 6 7 8 10 13 14 15 17 20 22 22 19 18 19 20 23 25 26 29 31 33 35 37 39 41 42 43 45 47 50 49 47 49 52 51 57 54 49 46 44
9 7 6 5 8 11 13 15 17 20 23 24 23 21 19 19 20 22 24 26 29 31 33 35 37 39 41 42 45 45 46 48 51 52 53 52 52 52 54 63 60 56 54
10 7 5 6 9 12 15 18 21 23 25 22 20 19 19 20 21 23 24 26 29 32 35 38 40 42 44 46 47 47 48 49 50 52 53 55 57 58 58 60 63 64 62
11 7 5 7 9 14 18 21 23 23 21 20 20 21 22 23 24 26 29 32 35 37 40 43 44 46 47 47 48 49 50 51 53 55 55 55 56 56 58 61 64 65 64
9 5 7 7 13 17 21 21 21 21 21 22 23 25 27 28 30 32 34 37 41 44 46 47 47 47 47 49 50 51 52 53 54 55 56 56 55 55 54 55 58 62 62
8 8 7 10 16 21 20 19 20 21 23 25 27 29 30 30 31 34 38 42 45 48 50 49 48 48 49 49 49 50 50 51 52 52 53 54 54 54 53 53 53 54 59
10 9 10 14 19 21 17 20 21 24 27 30 32 33 34 33 35 39 42 46 50 52 50 50 50 50 48 47 47 47 48 49 50 50 51 51 51 51 52 52 52 51 52
10 11 14 21 24 18 19 22 25 29 31 34 36 36 35 36 41 44 51 58 53 50 49 49 48 47 47 47 48 49 50 52 52 53 53 52 52 51 51 51 51 52 52
13 14 20 22 20 17 22 25 29 32 35 37 38 39 39 41 44 50 60 51 47 47 47 46 46 47 48 50 51 52 53 55 55 56 56 55 55 54 54 54 54 55 56
17 21 20 16 17 20 25 28 31 34 36 38 40 41 46 49 50 55 53 48 46 45 45 46 48 49 51 53 55 57 57 58 58 57 55 54 55 55 55 55 56 58 60
22 22 14 16 19 22 25 30 34 35 37 38 41 45 48 51 58 56 48 46 46 46 46 48 50 52 55 57 59 60 61 59 59 57 55 54 54 55 56 57 57 59 62
24 18 18 20 21 24 29 33 34 36 39 42 46 50 51 57 52 46 45 46 46 47 49 51 53 56 59 61 63 63 61 60 60 58 56 56 54 54 54 56 56 57 57
20 21 21 21 24 27 29 34 37 38 41 45 49 50 57 52 46 44 45 46 47 48 51 54 58 61 62 62 61 59 59 58 57 57 56 55 54 52 52 51 51 51 51
18 19 21 24 27 29 32 36 38 41 45 46 49 56 52 46 43 44 46 47 48 50 54 59 62 63 63 60 58 55 55 56 58 58 56 54 51 50 51 50 49 47 44
22 25 26 27 28 30 34 36 39 43 45 51 52 47 44 43 44 44 45 47 50 56 60 63 64 62 59 56 54 55 58 60 59 55 51 49 50 48 47 47 46 46 43
29 27 26 26 30 31 33 37 40 46 49 45 42 41 42 42 43 44 46 51 56 60 63 62 60 57 55 54 56 59 59 57 54 48 45 44 44 45 45 41 46 47 43
25 25 25 27 29 32 36 38 41 45 41 39 38 40 42 43 43 47 51 55 59 61 60 59 56 55 55 56 57 56 53 50 46 44 45 44 45 44 42 45 45 44 41
27 28 29 29 31 33 37 39 40 39 36 37 38 40 41 43 46 50 53 57 58 59 58 58 57 56 56 56 53 48 45 43 44 45 45 45 44 43 44 45 43 42 40
29 29 29 30 32 35 37 40 39 37 37 37 38 40 42 45 48 52 54 56 57 58 58 58 57 56 55 53 48 43 41 40 42 43 43 41 44 48 47 43 41 38 36
29 29 30 32 34 36 37 37 37 36 36 37 39 42 44 47 50 53 54 57 56 57 57 57 57 56 52 48 42 41 41 42 42 42 40 40 48 48 44 39 37 35 33
30 31 33 35 37 37 37 37 36 36 37 39 41 44 46 50 52 52 54 55 55 57 57 56 55 52 48 45 43 44 45 45 44 41 42 48 46 42 40 36 32 30 28
33 34 34 35 34 33 35 36 36 38 39 41 43 46 49 51 51 53 55 55 55 56 54 51 50 47 44 43 42 44 45 44 41 44 47 46 44 40 35 32 29 27 26
33 34 33 33 32 31 33 35 37 39 42 44 46 50 51 51 53 54 54 55 54 52 48 43 42 41 40 42 44 45 44 44 45 46 46 42 38 36 33 31 29 28 28

GFSMW_700_spd_003.txt.gz
Wind_Speed
11 10 9 6 6 5 6 7 7 6 7 7 7 8 9 11 12 14 17 19 20 22 23 25 26 27 29 31 34 36 37 37 41 45 46 47 45 44 45 45 45 44 43
10 9 5 4 4 3 4 5 5 6 7 8 9 11 13 14 15 16 18 20 21 23 25 27 29 30 32 33 36 39 41 41 42 48 50 54 51 49 50 47 46 45 45
10 7 6 5 2 2 4 6 7 8 9 10 12 14 15 15 15 16 18 20 22 24 26 28 31 34 37 38 40 42 44 47 44 44 49 55 58 58 54 53 52 50 47
11 9 7 4 2 4 6 7 9 10 12 14 16 14 13 13 14 16 19 21 24 26 29 31 34 37 40 42 44 45 46 48 50 49 46 47 53 59 68 61 58 56 55
12 9 7 3 3 6 7 10 12 14 16 16 13 11 12 14 17 20 22 24 27 30 33 36 40 42 44 45 46 46 46 48 50 52 54 55 54 53 57 68 64 61 59
11 10 5 3 4 6 11 15 17 17 15 13 12 13 15 17 19 21 24 27 30 33 37 41 43 44 46 46 46 46 47 48 48 50 52 54 55 56 56 58 63 63 61
12 10 6 4 4 10 15 19 19 17 14 13 15 17 19 21 23 24 26 28 32 36 41 44 46 46 45 45 45 45 45 46 47 48 49 50 51 52 53 55 59 61 61
12 10 8 5 7 13 18 22 19 17 16 18 21 23 26 28 29 29 31 34 37 42 47 43 42 43 44 45 45 46 46 47 48 49 49 51 52 53 54 55 55 57 59
12 11 8 7 10 15 22 22 20 19 21 24 26 29 32 31 31 33 36 40 44 48 46 42 42 43 44 45 45 46 46 47 49 50 51 53 53 54 54 54 53 47 47
14 10 9 10 12 18 23 22 21 23 25 28 30 33 34 33 35 39 42 46 48 48 41 41 42 43 43 45 47 48 50 53 55 56 57 57 57 57 56 55 54 52 51
13 11 12 14 16 21 24 21 24 25 28 31 34 35 34 35 39 45 47 50 45 41 41 41 42 43 44 47 49 52 56 58 60 61 62 61 58 56 55 55 55 54 53
15 16 16 16 21 21 21 23 27 28 31 34 36 35 36 40 44 48 51 48 44 42 41 41 43 45 47 51 54 58 61 64 64 63 61 60 58 57 55 54 55 57 57
19 20 20 22 23 21 23 26 28 30 34 35 36 36 40 44 46 48 52 47 42 40 40 42 45 48 51 55 59 62 64 63 63 61 59 57 55 54 53 53 54 55 57
23 21 23 25 22 23 25 26 28 32 34 35 36 39 43 48 49 52 49 44 42 41 42 44 47 51 54 58 62 63 63 63 60 56 54 54 54 55 54 53 53 54 53
23 24 26 24 23 24 26 28 30 32 34 35 37 41 46 47 51 50 44 42 42 42 44 47 50 54 57 60 62 62 61 59 57 56 56 56 54 51 47 46 46 42 40
25 24 23 22 23 25 26 28 29 31 34 36 40 46 45 49 47 43 41 41 42 43 46 49 54 56 59 60 60 59 59 58 57 58 56 53 48 44 41 40 40 39 37
22 22 21 24 25 25 25 27 30 32 34 38 43 45 45 44 42 40 40 41 43 45 49 52 55 58 59 60 60 59 58 58 56 55 51 46 42 40 41 42 37 34 38
20 23 26 26 24 23 25 29 31 33 37 41 42 44 42 40 39 39 40 43 45 48 51 54 58 58 60 60 58 57 56 55 52 46 42 40 39 39 40 35 38 40 42
23 26 22 20 21 24 26 28 31 34 37 40 41 40 39 38 38 40 43 45 48 50 52 56 58 58 59 57 56 55 53 49 45 41 39 38 40 39 35 34 42 45 40
23 18 18 20 21 23 26 30 33 35 37 39 38 38 37 39 41 43 45 48 50 51 53 55 57 58 58 55 52 51 49 44 42 41 39 39 38 38 35 45 49 48 43
18 19 21 22 24 26 29 32 35 36 37 36 36 36 38 41 43 45 47 49 50 52 54 55 58 58 55 52 48 46 43 41 42 42 41 40 38 38 46 46 44 42 41
20 22 24 26 27 29 31 33 34 35 34 35 36 37 40 42 45 47 49 50 51 53 55 56 57 55 51 48 44 42 39 38 40 42 42 41 35 46 44 41 38 36 36
23 25 27 28 29 30 32 32 32 33 33 34 36 39 41 44 46 49 49 50 51 53 55 55 55 54 49 44 39 39 40 42 43 41 40 46 45 44 38 35 33 31 30
26 27 28 29 29 30 31 32 32 33 34 36 38 41 43 45 47 47 49 50 51 53 53 52 53 51 45 41 40 43 44 44 41 41 48 45 42 38 33 30 26 26 27
28 28 27 28 29 29 30 31 31 33 35 38 41 43 44 45 47 47 49 51 52 51 49 48 48 46 44 43 44 44 44 41 43 47 45 42 38 33 29 25 25 24 26
27 26 27 27 27 27 29 30 32 35 38 40 41 43 45 46 48 50 50 50 49 46 43 42 41 41 42 44 44 44 43 43 44 43 42 39 35 31 28 26 25 24 25

GFSMW_700_spd_006.txt.gz
Wind_Speed
11 9 9 9 9 9 8 6 5 5 7 9 10 11 12 14 16 18 20 21 22 23 23 25 26 27 29 31 33 36 38 40 43 46 48 48 47 47 49 49 48 49 49
16 13 9 8 7 6 5 4 5 7 8 10 12 13 15 17 19 20 20 20 21 23 25 27 29 31 34 36 39 42 44 44 45 50 52 55 54 52 52 52 53 52 51
15 12 11 9 9 8 6 6 8 10 11 12 12 14 15 16 16 16 18 20 23 25 27 30 33 35 38 41 44 46 47 48 46 46 49 55 58 61 57 56 56 56 55
17 14 12 12 10 8 7 8 9 10 11 13 15 15 14 13 15 17 20 22 25 27 30 33 36 39 42 43 43 43 43 44 46 46 44 45 50 56 65 59 58 56 57
18 16 14 13 11 9 7 6 8 11 13 13 12 11 12 14 17 20 23 25 28 30 33 36 37 39 39 38 38 39 40 42 44 45 47 48 49 49 54 66 62 60 58
18 16 16 13 10 8 6 7 10 13 14 13 11 12 15 18 20 22 24 26 28 30 32 36 39 38 36 37 39 41 41 42 43 44 46 48 51 54 57 61 64 65 63
17 18 16 13 11 9 8 11 15 16 14 13 14 17 20 21 24 25 23 25 29 33 36 36 36 36 38 39 40 41 42 43 43 45 47 49 52 56 59 62 67 69 68
19 19 18 15 12 10 11 15 18 18 17 17 20 23 25 28 28 26 27 31 35 39 38 37 37 39 39 40 40 41 43 44 46 48 50 53 55 58 60 62 64 69 70
19 21 19 15 13 12 14 18 21 21 20 22 25 28 30 31 31 31 34 38 39 41 39 38 38 39 39 39 41 42 45 47 50 53 56 59 61 60 60 59 58 58 64
22 22 19 16 14 15 17 20 24 23 23 26 29 32 33 34 34 35 38 40 42 42 39 38 38 38 39 41 44 47 49 53 56 59 61 61 60 60 57 55 54 53 55
22 20 18 16 17 17 19 22 25 24 26 29 31 34 35 36 37 39 43 43 44 41 38 38 38 39 41 43 47 50 54 57 60 61 62 61 58 58 56 54 54 55 55
21 20 20 20 19 19 21 23 25 26 29 31 33 36 37 38 40 43 45 45 42 39 39 39 40 41 43 46 50 54 57 60 62 63 61 60 58 58 57 57 57 56 54
23 23 23 23 22 23 25 25 27 29 31 32 36 37 39 40 42 46 45 42 39 39 40 41 41 43 45 49 52 56 59 61 62 63 61 59 58 57 57 56 54 51 46
23 25 26 24 23 25 27 27 29 31 32 34 36 38 40 42 45 43 42 40 39 40 40 41 43 45 48 51 55 58 60 62 62 61 58 57 56 56 54 51 46 40 36
24 26 25 24 26 28 27 29 31 32 34 35 37 39 41 44 44 43 40 39 40 41 41 43 45 48 49 53 57 59 61 62 62 60 57 55 54 51 46 44 42 37 36
26 26 26 27 27 27 28 30 32 33 35 36 38 39 42 44 44 41 40 41 42 42 44 44 47 49 51 54 57 60 62 62 61 59 56 53 50 47 43 41 39 37 34
26 27 27 26 26 28 31 32 32 33 35 37 38 40 42 43 41 41 42 43 43 44 45 46 49 50 52 55 58 60 61 60 58 56 53 49 45 43 42 42 39 34 33
25 24 24 26 28 31 30 29 31 33 35 37 38 40 42 41 41 41 42 42 44 45 46 49 50 52 54 56 59 59 58 56 54 50 47 44 42 41 42 40 38 40 46
22 23 24 28 27 25 26 28 30 32 34 36 37 40 40 40 40 40 42 44 46 47 48 49 51 53 54 56 56 56 56 53 49 43 41 41 42 42 36 37 43 51 49
21 23 25 22 22 24 25 27 29 31 35 36 38 39 39 39 40 42 44 46 47 49 50 50 52 53 54 54 55 54 52 47 44 43 44 44 42 40 35 40 47 54 49
22 22 21 21 22 23 24 26 29 32 34 36 37 37 37 38 41 43 45 47 49 49 50 51 52 53 52 52 50 47 44 43 45 47 47 44 40 40 48 48 45 46 44
21 20 21 22 22 23 25 27 29 31 33 34 34 34 36 39 42 45 46 48 49 50 50 51 52 51 51 50 47 44 42 44 46 47 45 43 47 48 46 43 39 37 36
19 21 22 23 23 24 25 27 30 31 32 31 32 34 37 40 43 45 47 48 49 50 50 51 51 51 50 48 46 44 45 46 47 44 39 47 45 43 40 36 32 30 30
20 21 23 24 24 25 27 28 29 29 29 29 32 36 39 41 43 45 46 48 49 50 51 50 50 50 49 47 46 46 47 48 47 42 48 44 41 39 36 32 27 26 28
21 22 23 24 25 26 28 27 27 27 28 31 35 38 41 42 43 44 47 48 49 50 49 48 48 48 48 46 45 46 48 49 45 47 43 41 40 37 32 27 25 24 25
22 23 24 25 26 27 25 24 25 27 29 32 36 39 41 42 44 46 48 49 49 48 45 43 44 44 44 44 43 45 47 46 43 42 40 39 37 34 30 26 25 24 27

GFSMW_700_spd_009.txt.gz
Wind_Speed
14 14 13 12 13 13 13 10 7 6 7 8 10 13 15 17 19 22 22 24 26 27 28 29 30 31 33 36 38 41 41 41 43 45 46 45 44 42 44 45 47 48 48
18 17 14 13 12 11 10 8 6 6 8 10 12 14 17 19 21 22 23 25 26 26 28 30 32 34 36 38 39 41 42 42 42 44 46 48 47 46 44 46 47 48 49
20 20 17 14 12 11 10 8 7 8 10 11 14 17 19 20 20 19 20 22 25 28 30 33 35 36 37 39 40 41 40 39 38 39 43 50 53 56 51 50 50 50 51
24 21 19 16 14 12 10 8 8 9 10 12 15 16 16 16 16 19 22 25 28 30 32 33 34 37 38 39 38 36 38 40 42 43 42 42 46 53 60 55 53 52 52
25 23 20 17 15 13 10 9 9 8 10 12 13 14 14 15 18 22 25 28 30 30 30 32 34 34 34 34 35 36 37 39 41 43 45 46 47 46 52 62 61 60 61
27 24 20 19 16 14 12 10 9 9 11 13 14 14 15 18 21 24 27 29 27 29 31 34 34 33 33 34 36 37 39 40 41 42 43 46 50 53 57 62 65 68 68
26 23 21 20 17 15 14 12 11 12 14 16 16 16 18 22 25 28 29 28 29 32 34 35 35 34 35 36 37 38 39 41 43 44 46 48 51 55 58 63 68 72 72
25 23 23 21 19 17 16 14 13 15 18 19 18 20 23 27 30 32 32 32 34 37 37 37 36 36 37 38 39 40 41 44 45 48 50 53 55 58 60 63 64 71 73
24 24 24 22 20 18 17 16 17 19 21 22 22 25 28 31 33 35 36 37 39 40 40 39 37 38 39 39 40 41 43 46 47 50 53 55 57 60 61 61 62 60 68
25 25 25 24 21 19 18 18 19 22 24 25 26 29 32 34 37 38 40 41 42 43 41 39 38 38 38 39 41 44 46 49 51 53 56 58 60 62 62 61 59 58 57
27 24 25 24 22 19 19 20 22 24 26 28 29 32 34 37 39 41 44 43 44 42 40 39 38 38 39 41 44 46 49 51 54 56 58 60 61 62 62 61 60 59 55
26 25 25 24 21 21 21 22 24 26 29 30 32 34 36 39 41 43 46 45 44 42 40 40 39 40 42 45 47 49 51 53 56 57 59 61 61 62 61 59 58 56 53
28 27 25 23 24 24 24 25 26 29 31 32 34 36 38 41 43 45 46 46 45 42 41 41 42 43 45 47 49 51 53 54 56 58 60 61 61 61 58 57 56 53 48
22 25 26 26 26 26 26 27 29 31 32 34 36 38 40 42 44 46 47 47 45 42 42 42 44 46 48 49 51 53 55 56 57 58 59 60 58 57 56 54 51 46 44
17 22 25 27 27 27 27 29 31 31 33 35 38 39 41 43 46 47 48 47 44 43 43 44 46 48 50 51 52 54 55 57 58 58 58 57 56 53 50 46 45 44 44
20 24 27 28 28 28 29 30 30 33 35 38 39 41 42 45 46 47 47 45 43 43 45 47 50 51 50 51 53 54 56 57 57 57 56 54 51 48 46 46 45 39 38
20 25 26 27 28 29 29 30 33 35 37 38 39 41 43 44 45 46 45 44 44 45 47 49 50 50 50 51 53 54 55 55 54 54 52 50 48 47 48 49 46 38 42
21 23 25 27 27 27 30 33 34 34 35 37 40 42 42 43 44 44 43 43 45 47 49 50 49 50 50 52 53 53 53 52 51 50 49 48 50 49 48 45 42 40 47
22 23 23 24 25 28 30 29 30 33 35 38 40 42 40 42 42 41 41 43 47 48 48 48 49 50 51 52 52 52 51 51 49 49 48 49 50 49 40 39 47 54 55
21 21 22 24 26 26 27 29 30 33 35 37 39 39 40 39 40 40 43 46 48 48 47 48 50 52 53 52 50 50 50 50 49 49 49 48 48 44 41 47 55 53 50
20 21 23 24 25 26 27 29 31 33 35 36 36 37 37 37 39 42 44 46 46 46 48 50 51 52 52 51 50 48 48 48 50 51 52 51 48 43 49 47 46 43 42
21 23 24 24 25 26 28 30 31 32 32 33 33 33 34 37 40 43 43 43 45 47 49 51 52 53 52 51 49 48 47 47 48 51 51 52 48 49 45 43 40 37 35
22 23 23 24 25 27 28 29 29 29 30 30 30 32 34 37 39 42 43 44 46 49 51 53 54 53 52 50 47 47 47 47 48 49 50 49 46 43 41 38 35 32 32
19 21 22 24 25 26 27 27 27 28 28 29 31 33 35 37 39 41 43 46 48 51 51 52 52 52 51 49 48 47 48 48 49 50 49 43 41 39 36 33 29 29 31
18 20 23 24 24 25 25 26 26 26 27 29 31 32 35 38 40 41 44 47 49 51 52 50 51 51 49 47 46 46 47 49 49 47 43 41 40 37 33 30 29 29 31
19 21 22 23 23 24 24 23 24 26 28 29 31 34 37 40 42 43 45 46 49 51 52 51 49 47 46 45 44 45 46 47 43 42 41 39 36 34 32 30 31 30 34

GFSMW_700_spd_012.txt.gz
Wind_Speed
14 15 15 15 14 14 15 16 16 14 13 12 11 12 14 16 18 20 22 24 25 27 29 29 30 33 35 38 41 41 40 39 41 40 38 37 36 37 36 38 38 38 37
17 17 17 16 14 14 14 13 12 10 10 9 10 13 15 17 19 21 22 22 24 26 26 29 33 35 37 38 37 38 38 36 37 41 43 45 42 41 40 41 41 42 41
20 21 20 18 16 15 14 13 11 10 10 10 12 14 15 17 18 19 19 20 23 26 30 32 34 34 33 34 35 34 35 35 35 37 42 48 50 52 47 45 44 45 46
22 25 22 21 18 17 16 14 12 10 10 10 11 12 14 15 16 17 19 22 26 29 32 32 32 34 34 33 33 33 35 37 38 37 36 38 44 49 60 55 50 49 50
27 26 24 22 21 18 16 14 12 11 9 9 9 11 13 14 16 19 23 26 28 29 30 31 33 33 33 32 33 34 35 36 38 39 41 41 42 43 50 62 59 57 56
29 29 26 25 22 20 18 15 13 11 8 8 10 13 14 16 19 22 26 28 30 30 30 33 34 35 34 34 34 35 36 37 38 39 41 44 46 48 52 57 60 63 62
29 28 28 26 24 22 19 16 14 11 9 11 14 17 17 18 22 25 27 30 32 33 34 36 37 36 35 35 36 36 37 38 40 41 43 44 46 49 53 57 62 65 65
28 28 29 27 25 23 20 17 14 12 12 14 17 20 19 21 25 28 31 34 36 37 38 39 39 37 37 37 37 38 39 41 42 43 45 47 48 51 53 56 61 67 67
25 29 29 28 26 24 20 17 15 15 16 18 21 23 23 26 29 31 34 37 39 40 42 42 40 39 38 39 40 41 42 44 45 47 48 50 51 53 55 57 58 61 69
25 29 28 28 28 25 20 17 17 18 19 22 24 26 27 29 32 34 37 40 42 43 44 43 42 40 40 41 42 44 45 48 49 50 52 53 54 56 56 56 57 57 58
27 28 27 28 28 24 20 19 18 20 22 25 26 29 30 32 35 37 40 42 44 45 45 44 43 42 42 43 45 47 49 51 51 51 54 55 56 56 56 56 56 57 56
28 27 27 27 26 24 22 20 21 22 24 27 29 32 33 35 38 40 42 44 46 47 47 46 44 43 43 45 48 50 51 52 53 54 55 56 56 55 55 55 55 54 53
27 29 28 26 25 25 24 24 24 24 27 29 32 33 35 38 40 42 44 45 47 48 48 46 45 44 45 48 49 51 52 52 54 55 55 55 55 54 54 53 52 52 53
19 27 26 24 25 26 26 26 26 27 29 32 34 35 37 39 41 43 44 46 48 48 47 45 44 45 48 49 50 52 53 53 53 54 54 53 53 52 51 51 51 50 52
8 17 22 24 26 26 27 28 28 28 31 33 35 37 39 41 42 43 45 47 48 47 45 44 45 47 48 49 51 52 53 54 54 53 52 51 50 49 48 46 48 49 50
12 13 17 23 27 28 28 28 27 30 32 34 36 38 40 41 42 44 46 47 46 44 42 43 46 48 49 49 50 52 54 54 53 52 51 50 49 48 48 48 48 43 40
15 16 17 24 26 27 26 27 29 30 33 36 37 37 38 41 43 44 45 45 42 41 43 46 48 49 48 50 51 53 54 53 51 50 50 50 50 49 49 50 47 42 46
19 18 20 22 23 24 27 28 28 32 35 35 34 36 38 42 42 43 43 41 41 42 45 47 47 48 49 51 52 52 53 52 50 49 49 49 50 49 48 45 46 49 52
20 20 20 20 22 25 25 27 30 32 31 32 34 37 40 41 41 41 39 39 41 43 45 46 47 49 51 52 53 52 53 53 51 50 50 49 49 49 46 42 47 54 50
18 18 19 21 22 23 27 29 28 29 30 32 35 37 38 39 38 36 36 39 42 44 45 45 48 50 52 53 53 53 53 53 52 52 51 50 49 48 41 44 49 48 46
17 18 19 20 22 25 27 26 27 28 30 32 34 35 36 35 34 34 37 41 43 43 44 47 49 51 52 52 52 50 49 50 51 52 52 50 49 45 45 41 41 42 40
17 18 19 21 23 24 24 26 27 28 30 31 33 33 32 32 33 36 39 40 41 43 45 47 50 52 52 52 51 49 47 47 48 49 49 49 45 43 41 39 37 36 35
16 18 20 22 21 23 24 25 27 28 29 30 30 29 29 31 35 38 39 40 42 45 47 49 51 53 53 51 49 47 46 45 46 46 47 44 41 41 38 34 33 32 32
18 19 19 19 21 23 24 25 26 27 28 27 26 27 30 33 35 36 38 41 44 47 49 51 53 54 52 50 47 45 45 46 46 46 44 40 39 36 33 30 28 30 33
17 17 18 19 21 23 24 25 25 25 24 24 26 29 32 34 35 36 38 42 45 48 51 52 53 52 51 47 45 44 45 45 43 42 41 40 37 33 30 28 29 33 33
16 17 19 20 21 22 22 23 22 22 23 25 28 31 33 35 36 38 40 41 44 47 49 49 48 47 44 44 43 44 44 41 39 39 40 37 34 31 31 32 35 30 25

GFSMW_700_spd_015.txt.gz
Wind_Speed
20 18 15 15 16 16 16 16 17 18 18 17 14 15 15 15 16 17 19 20 21 22 24 26 28 31 34 36 35 33 34 36 35 34 33 32 32 33 32 32 32 30 31
22 20 18 15 15 15 15 15 15 14 13 13 13 13 14 15 16 17 18 18 19 21 23 27 30 32 33 32 33 34 33 33 36 37 38 37 32 34 33 32 34 36 36
23 23 20 17 16 16 15 14 15 15 14 13 13 12 13 14 15 17 16 16 19 22 26 28 30 31 31 33 34 34 33 31 32 36 38 42 43 44 40 38 39 41 42
30 27 22 20 20 18 17 17 16 15 13 12 11 11 11 12 14 14 15 18 21 24 26 28 29 30 32 33 33 33 33 34 33 32 34 38 43 48 56 49 43 43 45
31 29 22 23 22 21 19 18 16 15 12 11 9 7 9 11 14 15 17 20 22 25 27 28 29 31 32 33 33 33 34 36 36 38 38 39 40 43 51 61 57 52 48
35 34 27 27 24 23 22 20 18 14 12 9 7 7 10 13 15 17 20 22 24 26 28 30 32 34 35 35 35 35 36 36 38 39 41 44 47 48 51 55 58 61 59
37 37 31 29 27 25 23 21 18 15 12 9 7 9 12 15 17 20 23 25 27 29 32 34 36 37 38 38 37 37 38 38 39 41 43 45 47 49 52 56 61 64 61
34 33 28 31 29 27 25 22 19 15 12 10 10 13 16 18 20 23 26 28 31 33 35 37 39 40 40 40 39 39 40 41 42 44 46 49 49 50 51 54 59 66 64
27 28 30 32 30 28 25 22 19 17 14 13 14 17 19 22 24 26 29 32 34 36 38 40 41 42 42 41 40 41 42 43 45 47 49 50 50 51 51 52 54 58 66
22 25 29 32 31 28 26 24 20 17 15 15 17 20 23 25 28 30 32 34 37 39 40 42 43 43 42 42 42 43 44 46 47 48 50 50 51 52 52 53 53 54 58
19 24 29 31 30 28 27 24 20 18 17 18 20 23 25 28 30 32 35 37 39 41 42 44 44 44 43 43 44 46 48 49 49 49 51 52 53 53 53 53 53 54 55
20 23 26 28 28 28 26 23 21 20 19 20 23 26 28 31 32 35 37 39 40 42 44 45 46 45 44 44 46 48 49 49 50 51 52 53 53 53 53 53 53 53 53
20 24 26 26 26 26 26 25 23 22 21 23 26 28 31 33 35 37 39 40 41 43 45 46 45 44 44 45 46 47 50 51 52 52 53 54 54 54 52 52 53 53 53
14 23 28 26 25 25 26 26 25 24 24 26 28 31 33 35 37 39 40 41 42 44 45 44 44 44 45 46 47 50 52 52 52 52 53 53 53 52 52 52 52 51 52
8 13 22 25 24 24 26 26 25 25 25 28 30 33 34 36 39 40 40 40 42 44 43 42 43 44 45 47 49 51 52 53 53 52 52 51 52 51 50 50 50 50 50
7 8 12 19 22 22 24 25 25 25 27 30 32 33 35 37 38 38 39 41 42 41 40 41 44 44 45 47 48 50 52 53 53 54 53 53 52 51 49 48 47 44 40
9 11 12 11 16 20 22 23 24 26 28 30 31 34 36 36 37 37 39 41 39 39 40 41 43 44 45 47 48 50 52 53 54 55 55 54 53 50 49 49 47 44 39
10 14 16 17 18 20 21 22 24 26 28 30 32 33 34 35 36 37 38 38 37 39 41 42 43 45 45 47 49 52 54 55 56 56 56 54 52 50 49 49 45 46 48
13 13 15 16 16 16 18 21 23 26 29 30 31 31 32 34 35 36 36 36 37 38 40 40 42 45 46 48 51 54 56 57 56 56 53 50 49 48 47 40 44 50 46
15 14 15 16 16 16 19 22 25 27 28 28 29 31 32 33 33 33 33 36 38 39 40 40 43 46 48 50 54 55 55 56 54 51 47 46 46 45 38 40 45 45 42
18 17 15 15 16 18 21 23 24 26 26 28 28 29 30 31 31 32 34 36 38 38 40 42 44 45 48 52 54 54 54 50 49 47 46 45 43 38 41 40 40 39 38
14 14 15 16 18 19 21 23 23 24 25 26 27 28 28 29 30 32 34 36 39 40 42 44 45 47 50 53 54 51 48 43 44 45 45 43 39 40 39 37 35 33 33
12 12 14 17 18 20 20 22 23 24 24 25 26 26 26 28 31 33 36 37 39 42 44 46 48 50 53 53 51 47 44 44 44 44 43 39 39 38 35 32 31 31 34
11 13 16 18 18 18 20 21 22 23 23 23 23 24 26 28 31 33 36 38 41 43 46 48 50 52 53 52 49 47 46 45 44 43 39 38 37 34 30 27 29 31 28
12 13 15 16 17 18 20 21 22 22 21 21 23 24 27 30 31 33 37 39 41 44 47 49 52 53 52 48 44 44 44 43 41 40 37 37 34 29 27 28 26 24 24
13 13 14 16 18 19 20 20 20 20 20 21 23 26 29 31 33 36 36 37 40 42 45 47 49 48 44 42 41 42 41 38 37 36 37 34 30 29 30 27 25 23 24

GFSMW_700_spd_018.txt.gz
Wind_Speed
23 25 25 22 20 21 24 28 25 23 20 19 19 20 18 16 16 16 17 18 19 20 21 22 24 27 29 31 30 30 31 33 33 32 31 30 32 31 30 30 31 32 33
28 26 25 21 18 19 19 18 19 19 18 18 18 17 16 15 14 16 17 18 18 20 21 23 26 29 30 30 30 31 32 34 35 34 35 35 32 33 32 31 34 36 37
31 26 23 21 18 19 17 17 17 16 16 17 16 14 13 13 14 15 16 17 17 20 22 25 27 29 29 30 31 31 32 33 35 37 39 41 42 42 38 38 39 42 44
34 30 28 22 21 21 18 17 16 16 16 15 14 13 13 13 12 13 15 16 19 22 24 26 27 28 28 30 31 33 34 34 35 36 38 40 44 48 53 46 43 45 47
40 34 30 26 23 23 20 18 17 16 16 15 14 13 10 9 10 13 15 18 20 23 25 26 27 28 30 32 33 35 37 37 37 38 39 39 42 45 53 60 57 52 50
41 37 33 32 25 25 22 20 19 19 17 15 13 11 8 8 10 13 16 19 21 24 26 28 30 31 33 35 36 37 38 38 38 39 41 44 46 49 53 58 61 64 63
44 38 36 34 30 26 24 22 21 19 17 15 13 10 8 9 11 14 17 21 24 26 29 31 33 35 36 38 39 39 39 38 39 40 42 45 48 51 54 58 63 66 66
42 39 37 34 32 27 26 24 23 20 17 15 13 10 10 12 15 18 21 24 27 30 33 35 37 38 40 41 41 41 40 40 41 43 45 48 50 52 53 56 61 69 69
47 40 38 36 31 27 28 26 24 21 19 17 13 12 13 15 18 21 24 27 30 32 35 37 39 40 42 44 44 43 42 42 44 46 48 49 51 53 53 55 58 62 70
45 41 38 34 28 29 30 28 25 21 18 16 15 14 15 18 21 24 27 30 33 35 38 39 40 42 44 45 44 44 43 45 46 48 49 51 53 54 55 57 58 58 61
34 36 35 31 28 32 32 29 25 21 18 18 17 17 18 21 24 27 30 32 35 37 40 41 42 44 45 44 44 44 46 48 49 49 51 52 55 55 56 56 57 58 58
23 26 27 27 29 32 32 29 25 22 20 19 19 19 21 24 28 30 33 34 37 39 41 42 43 45 45 44 45 46 48 49 50 51 53 53 55 55 56 57 58 59 57
21 22 23 25 29 31 31 28 26 24 22 21 21 22 24 27 30 33 34 36 39 40 41 43 45 44 44 44 45 47 49 50 51 52 53 54 55 57 59 59 59 58 57
19 20 23 25 27 29 28 27 27 26 24 24 23 25 27 30 32 34 35 39 40 40 42 44 43 43 43 45 47 49 49 51 51 52 53 55 58 60 60 59 57 56 54
18 18 22 25 26 27 27 27 27 27 27 26 26 27 29 31 33 34 38 39 39 41 43 42 41 42 44 46 48 50 52 52 51 52 55 58 59 58 57 55 53 52 50
12 12 16 22 24 24 23 25 26 28 27 26 27 29 30 31 33 37 38 38 39 40 41 41 41 43 45 47 48 51 51 51 53 56 58 59 59 58 55 51 49 46 41
9 9 9 12 18 21 22 23 25 25 26 27 28 29 30 33 35 36 36 38 39 39 38 40 42 43 46 47 50 50 50 52 55 58 60 60 57 53 52 51 49 43 41
3 7 12 14 15 17 20 22 22 23 24 26 27 29 32 33 33 35 36 37 37 37 38 40 42 44 46 48 49 50 52 54 57 59 58 55 52 50 49 48 44 44 46
5 5 10 14 15 15 16 17 19 20 23 25 28 29 30 31 33 34 35 35 35 37 38 41 44 46 47 49 50 52 54 57 58 57 54 50 49 47 43 40 45 46 41
9 8 10 13 14 15 16 17 18 20 22 25 27 28 29 31 32 32 33 33 36 37 40 42 44 46 47 49 51 54 57 58 58 55 50 47 44 41 38 42 43 42 39
12 12 12 14 14 14 15 16 18 21 24 26 27 28 28 29 30 30 31 34 36 38 40 42 43 45 48 49 52 55 56 55 54 50 47 44 40 38 39 39 38 37 38
13 14 14 13 13 13 15 17 20 22 24 25 25 26 27 28 28 29 32 35 38 40 41 43 44 45 47 49 53 54 52 49 48 48 45 40 38 38 38 36 34 35 37
12 12 11 12 13 15 17 19 20 21 22 22 23 25 25 26 28 31 34 36 38 41 42 44 46 48 49 52 53 52 49 47 46 44 40 37 37 37 33 31 32 32 29
11 11 11 13 15 17 17 18 18 19 21 22 22 23 24 26 29 33 36 38 40 41 43 46 48 49 51 53 53 51 48 47 44 41 37 36 36 32 29 28 26 25 26
9 11 13 14 14 14 15 16 18 19 20 20 21 23 25 28 30 33 36 38 39 42 46 48 50 52 52 51 49 46 45 43 40 38 36 35 32 27 25 21 22 23 25
10 10 10 10 11 13 15 17 18 18 19 20 22 24 27 30 33 34 34 36 39 41 44 46 49 50 49 46 43 42 40 38 37 35 35 32 28 27 24 23 23 23 25

GFSMW_700_spd_021.txt.gz
Wind_Speed
29 30 32 30 23 22 23 25 27 30 30 29 26 25 24 22 20 17 18 17 18 19 21 21 22 25 27 29 30 30 30 31 31 31 29 30 31 31 32 31 32 33 35
30 29 28 27 23 22 22 23 24 25 24 24 23 24 22 21 19 17 16 17 18 19 20 21 24 26 28 29 29 30 31 32 33 34 35 35 33 33 33 33 34 35 37
34 30 29 23 22 21 19 18 18 19 20 22 22 23 22 19 16 15 15 16 17 19 20 23 26 27 28 29 29 30 31 33 35 37 38 41 42 43 38 36 36 39 41
36 34 31 26 20 18 19 18 18 18 19 20 20 18 16 15 15 14 14 15 17 20 22 25 26 28 28 29 29 31 33 35 37 38 39 40 43 46 50 42 41 43 45
38 36 33 29 25 22 19 19 19 20 19 18 18 17 16 14 12 12 13 15 18 21 23 26 27 28 29 30 31 33 36 38 39 40 40 39 41 43 50 55 50 46 47
42 38 35 31 29 25 20 20 21 20 19 19 17 16 15 12 11 11 13 16 19 22 24 27 29 30 31 33 34 37 38 39 39 39 40 42 44 46 50 55 57 61 59
46 43 38 35 33 28 23 21 22 22 21 19 17 16 14 12 10 11 14 17 20 24 27 29 31 33 35 36 37 39 41 41 40 40 40 42 45 49 51 56 60 64 65
48 46 40 33 32 30 26 21 24 24 22 20 18 16 14 12 12 14 16 19 23 26 29 32 35 36 38 39 40 42 43 41 41 41 43 45 47 49 52 56 62 68 69
40 44 40 34 33 31 27 23 25 26 23 20 19 17 14 13 14 16 19 22 26 29 32 35 37 40 40 41 43 43 43 41 42 43 45 46 49 51 53 55 57 61 71
35 39 34 34 33 33 28 25 28 26 23 22 20 18 17 16 17 19 22 26 29 32 35 37 40 42 42 43 44 44 43 43 44 45 47 48 51 53 54 55 57 59 64
33 36 38 39 33 34 29 27 30 28 25 23 22 20 18 18 20 23 25 28 32 35 37 39 42 42 43 44 44 44 44 45 46 47 50 52 54 55 56 58 60 63 65
22 26 30 35 36 32 28 30 31 28 26 24 23 21 20 21 23 26 28 32 35 37 39 42 43 43 44 44 44 44 45 47 48 50 52 53 55 56 58 61 63 64 64
21 22 27 34 33 29 28 30 31 29 26 25 24 23 23 24 26 29 31 34 37 39 41 42 42 43 43 43 43 45 46 48 49 51 53 55 57 58 61 64 64 65 64
19 20 27 28 27 26 27 30 30 28 27 26 25 25 26 27 29 31 34 37 39 40 41 42 43 44 43 43 45 46 47 49 50 52 54 56 58 61 63 64 63 61 58
19 21 23 24 24 25 27 29 29 28 27 28 28 28 28 29 31 33 36 38 39 40 41 42 42 43 43 45 46 48 49 51 53 54 55 57 60 61 61 59 58 56 54
19 19 20 19 19 22 24 26 27 28 29 30 30 30 30 31 33 35 37 38 39 40 42 42 42 42 44 45 47 49 51 53 54 56 57 59 60 59 57 54 52 48 46
15 15 13 15 19 19 21 23 25 27 29 29 29 30 30 32 34 35 36 37 38 40 40 41 41 43 45 47 48 50 52 53 54 56 58 60 58 56 54 51 49 45 43
12 13 13 14 18 21 22 23 24 24 25 26 27 28 29 31 34 34 35 37 38 39 39 39 42 44 46 48 49 51 53 53 53 56 58 57 55 52 50 48 45 43 42
14 11 11 11 13 15 17 18 19 21 22 23 24 26 29 31 32 34 35 36 36 37 38 40 42 45 46 48 50 52 53 54 56 57 56 54 51 48 45 43 45 43 39
13 12 11 12 14 14 15 16 17 18 19 21 24 26 28 30 32 33 34 35 34 36 39 40 43 45 48 49 51 52 54 56 58 56 53 49 46 43 40 42 43 40 37
12 12 12 11 12 14 14 15 16 17 19 22 24 26 28 29 31 32 32 33 34 37 39 41 43 45 47 49 50 52 54 57 57 52 48 45 43 39 39 39 37 36 37
13 12 13 13 13 13 13 14 16 18 20 22 24 25 27 28 29 30 30 33 36 38 41 43 43 44 46 48 50 52 53 53 51 47 44 42 40 39 37 34 33 33 31
13 13 13 12 12 12 14 15 17 18 20 21 23 25 27 27 27 28 31 33 37 41 42 44 45 46 47 49 52 53 52 48 46 44 41 40 38 37 32 31 31 30 30
12 11 10 11 11 12 14 15 16 17 19 22 23 24 24 25 27 29 33 36 39 41 43 44 47 48 49 51 53 53 49 45 45 42 39 38 37 33 30 28 25 26 27
9 9 9 9 11 12 12 14 16 18 20 21 22 22 22 25 28 32 35 37 39 43 45 47 48 50 52 53 53 49 45 44 41 40 38 36 32 29 25 22 23 24 25
7 8 9 9 9 10 12 15 17 18 19 18 19 20 24 27 30 33 34 38 40 40 43 45 48 50 51 49 46 42 41 40 38 37 36 34 30 27 24 24 22 23 26

GFSMW_700_spd_024.txt.gz
Wind_Speed
46 43 38 35 33 31 28 27 23 22 27 31 32 31 29 26 23 20 19 19 21 20 17 18 20 21 24 27 28 28 28 27 27 27 26 28 29 30 31 31 32 33 33
44 43 38 33 29 27 28 26 23 22 23 24 24 25 26 24 22 20 20 18 17 17 17 18 20 23 26 28 28 28 29 28 28 29 31 32 31 31 31 31 32 33 35
43 40 38 31 27 25 24 22 21 19 19 21 23 24 24 24 22 21 18 17 16 15 17 19 22 25 27 28 29 29 29 30 31 33 35 38 39 41 37 33 33 35 36
39 41 40 34 27 23 20 20 19 17 17 18 19 20 20 20 19 20 15 14 14 15 18 21 23 26 27 29 30 30 31 32 33 35 36 39 42 44 48 42 37 38 39
39 41 41 36 30 25 19 18 17 17 17 17 19 20 19 19 18 16 15 13 13 16 18 21 24 27 29 31 32 33 33 34 36 38 39 39 40 41 46 49 44 40 40
35 38 41 38 34 29 25 19 17 18 18 19 19 19 18 18 16 14 13 12 14 16 19 23 26 29 31 33 34 35 35 37 39 40 41 41 43 43 45 50 51 54 52
30 41 42 39 37 32 25 20 17 18 18 19 18 18 18 18 17 15 13 14 15 18 21 25 28 31 34 36 37 37 38 39 40 41 40 41 43 45 47 51 54 58 59
29 40 42 40 36 31 26 22 20 20 20 20 19 19 19 20 18 15 14 15 17 20 24 27 31 34 36 39 40 39 40 41 42 42 42 42 45 46 49 52 57 63 64
28 35 39 41 37 32 27 24 22 21 22 22 20 20 20 19 17 16 16 17 20 23 27 30 34 37 39 41 41 41 42 42 42 43 43 44 46 48 50 52 54 59 68
29 30 34 39 39 33 26 26 24 24 24 23 22 21 21 20 18 18 18 21 23 26 29 33 37 39 41 43 43 43 44 43 42 44 45 46 48 50 51 53 55 56 61
32 28 28 34 39 33 30 27 25 26 26 25 24 23 23 21 20 20 22 24 26 29 32 36 39 40 43 44 44 45 44 43 44 45 47 48 51 52 53 55 57 60 63
27 26 30 31 36 33 31 28 26 27 28 26 25 24 24 23 23 24 25 26 29 32 35 39 40 43 44 45 46 44 43 44 45 46 49 50 52 53 55 57 60 63 64
21 21 25 31 36 32 29 26 27 27 28 27 26 26 26 25 25 26 27 29 32 35 38 40 42 44 44 44 44 44 44 45 47 48 50 52 54 55 57 60 63 63 63
18 20 28 34 33 32 28 26 26 27 28 27 27 27 27 27 27 28 29 32 35 37 39 42 44 44 44 44 43 44 45 46 48 49 51 53 55 57 60 62 62 61 59
15 20 21 25 27 27 25 24 25 27 28 28 28 27 27 28 29 30 32 34 36 38 41 43 43 44 44 43 44 45 47 48 49 50 52 54 57 59 60 59 58 57 53
14 16 18 19 21 21 21 22 25 27 28 27 27 27 28 29 30 32 33 35 37 40 42 42 43 42 42 43 44 47 48 49 50 53 54 56 58 58 57 55 52 48 44
15 14 14 14 15 16 19 22 24 25 25 26 27 27 28 30 32 32 33 35 38 39 41 41 41 41 43 44 45 47 48 50 52 54 55 57 57 55 53 50 46 42 40
17 16 14 14 16 17 19 22 22 23 24 25 26 27 29 29 29 30 32 35 37 38 39 40 40 41 43 45 46 48 49 51 53 55 55 56 55 51 47 46 44 42 40
17 15 13 12 15 18 19 20 20 21 21 22 24 24 24 25 27 30 32 34 36 37 38 38 39 42 43 45 46 49 52 53 54 54 54 52 49 46 44 43 44 42 37
18 17 17 16 15 16 17 18 18 18 19 20 19 20 22 25 27 30 32 33 35 35 35 37 41 43 45 46 48 51 53 55 56 55 51 45 43 42 42 42 43 39 35
16 18 16 12 12 13 14 14 15 15 15 15 17 20 23 26 28 30 31 33 33 34 36 39 41 42 45 47 49 51 53 55 56 51 44 42 41 41 40 39 36 35 32
12 11 10 11 12 12 12 11 12 12 13 16 19 22 24 26 28 29 30 30 32 35 38 39 39 41 44 48 50 51 52 53 50 44 42 40 41 39 38 34 32 30 30
12 11 10 10 10 11 11 10 11 13 15 18 21 23 24 25 27 27 29 32 34 37 39 41 42 44 45 47 49 51 51 47 43 42 40 39 39 37 32 30 29 29 30
13 11 10 10 10 9 9 10 12 15 17 19 21 22 23 24 25 27 29 32 35 38 40 42 44 47 48 50 52 52 48 44 43 42 39 38 37 34 30 26 25 28 28
11 10 9 8 8 9 10 11 13 15 17 19 20 21 22 23 25 27 30 33 37 40 43 45 47 49 51 53 52 49 44 43 42 40 38 35 32 28 24 22 23 25 27
9 8 7 7 8 8 9 11 13 16 17 18 19 20 21 23 26 29 31 35 37 39 42 44 47 49 51 49 46 42 41 40 39 37 35 33 30 26 24 25 24 26 29

GFSMW_700_spd_027.txt.gz
Wind_Speed
44 48 48 47 43 40 35 33 29 27 29 30 33 32 31 30 27 25 23 22 17 23 21 16 15 17 18 20 23 25 25 25 25 24 24 24 25 25 26 27 29 30 32
41 43 48 48 45 40 36 34 27 29 29 27 28 27 27 28 27 24 20 22 21 19 21 16 15 17 19 22 24 26 27 27 27 27 27 27 27 26 27 29 30 32 33
42 43 43 47 46 40 33 31 28 29 28 26 26 26 26 27 27 24 21 20 24 18 18 15 15 17 20 23 25 27 29 29 29 29 30 32 33 34 31 30 31 32 33
39 40 44 44 44 42 32 31 30 28 26 23 23 23 24 25 25 21 21 25 20 17 14 14 16 19 21 24 27 29 30 31 31 31 31 33 36 38 41 38 38 39 38
31 35 38 43 41 39 33 31 27 26 23 21 21 20 23 24 22 23 21 25 16 14 13 14 17 20 23 26 29 31 33 34 33 33 34 35 37 39 42 45 41 39 38
23 26 30 38 42 41 35 32 27 22 21 21 20 20 21 25 24 21 20 18 15 13 13 16 18 22 25 29 31 34 35 36 36 36 37 39 40 41 44 48 48 49 45
25 26 27 37 42 43 37 33 26 21 20 20 21 22 23 20 23 21 18 17 15 14 15 17 20 24 27 31 34 36 38 38 38 39 39 40 41 42 43 46 48 52 53
18 27 28 35 40 42 38 35 27 22 20 20 21 22 21 25 23 20 21 17 15 15 17 19 23 26 30 33 36 38 40 40 40 41 41 41 42 43 44 47 51 55 57
20 21 28 35 38 39 38 34 29 24 20 20 22 22 24 25 27 23 19 18 17 18 19 22 25 29 33 36 38 40 41 42 42 42 42 42 43 44 46 49 51 55 63
24 25 28 33 38 37 36 34 31 25 22 21 23 23 24 26 23 22 21 19 19 20 22 25 29 32 36 39 41 42 43 43 42 42 42 43 45 46 48 50 52 54 57
21 26 27 30 37 39 37 34 30 28 24 22 24 24 25 24 24 23 21 21 21 23 25 28 32 35 38 41 43 43 44 43 42 43 44 44 47 47 49 51 53 55 58
20 29 29 24 35 39 39 35 30 27 26 24 25 25 25 25 25 23 22 23 24 26 28 31 35 38 41 43 44 44 44 43 42 43 44 46 48 49 50 52 54 57 59
22 28 30 27 28 39 40 35 30 27 27 25 25 26 26 26 25 24 24 25 26 28 31 34 37 40 42 44 45 44 43 43 44 45 46 48 50 51 52 54 57 59 60
18 26 28 33 33 40 38 33 30 27 27 25 25 27 26 26 25 25 26 27 28 31 33 36 38 41 43 44 44 43 43 43 44 45 48 49 51 52 54 57 59 61 58
14 27 30 30 34 37 34 30 28 26 26 24 27 26 26 26 26 27 27 28 30 33 35 37 40 42 42 43 42 43 43 44 46 46 48 50 51 53 56 58 57 54 51
15 23 29 33 33 32 29 27 25 25 24 26 26 25 25 25 26 26 27 30 32 34 35 38 40 41 41 40 41 43 45 46 47 49 50 51 52 54 56 54 49 46 44
21 24 25 27 27 24 22 22 23 23 23 24 23 23 25 25 25 27 29 31 32 33 36 38 39 39 39 40 42 44 46 47 48 50 51 53 55 55 52 46 44 42 38
29 29 29 27 24 22 20 20 20 21 22 22 22 22 23 25 26 28 29 30 31 34 36 37 37 37 40 41 43 45 46 48 49 50 51 54 54 49 45 44 43 39 36
25 25 24 22 20 19 19 19 20 21 20 19 20 22 23 24 25 26 27 29 32 34 34 35 36 37 40 42 44 46 48 49 51 51 52 52 48 44 42 41 41 38 33
23 21 20 18 17 16 17 17 17 16 17 18 19 20 21 21 22 25 27 29 30 31 32 34 37 39 41 43 45 47 50 51 54 54 50 44 42 40 38 38 39 37 32
20 19 17 14 14 14 14 14 15 15 15 16 17 17 18 20 23 25 27 28 29 30 32 34 37 40 43 44 46 47 50 53 54 50 44 41 40 37 36 35 34 33 29
14 14 13 12 11 10 10 10 12 12 13 13 14 16 19 21 23 24 26 27 28 30 33 35 37 39 41 44 47 49 52 51 48 44 41 39 37 36 34 32 29 27 28
11 11 10 9 9 10 11 10 11 11 11 13 16 17 19 20 22 24 24 26 29 32 35 37 38 39 41 45 48 50 48 45 43 42 38 36 35 33 30 28 26 27 28
13 10 7 6 6 7 9 9 9 11 13 14 16 17 19 20 21 22 24 28 31 34 37 39 40 42 45 48 49 47 45 43 41 40 37 36 33 32 28 24 25 26 28
9 7 6 6 7 8 8 9 10 12 13 14 15 17 17 18 20 23 26 29 33 36 38 40 43 47 48 49 47 46 44 43 41 39 37 34 30 26 22 22 23 25 28
6 6 7 8 8 8 9 10 10 11 12 14 14 15 16 19 21 25 28 32 34 37 39 41 45 46 47 46 44 43 41 40 39 36 35 31 28 24 23 24 24 26 27

GFSMW_700_spd_030.txt.gz
Wind_Speed
43 45 53 53 53 50 47 43 40 36 33 32 34 34 35 36 36 35 29 25 23 17 18 23 20 16 15 16 19 20 21 22 24 25 25 25 25 26 26 27 29 29 30
39 39 46 52 53 53 50 46 42 40 33 31 34 36 34 34 35 32 28 28 28 23 24 27 21 17 15 17 19 20 22 24 25 27 27 26 27 27 27 29 30 32 34
40 39 42 47 51 54 53 49 45 42 35 32 34 32 30 31 34 32 32 25 22 25 21 23 20 16 15 17 19 21 23 25 26 27 29 31 31 32 30 30 32 33 34
30 34 37 43 48 52 51 49 45 41 37 33 34 32 30 31 33 32 29 27 25 20 20 19 19 16 16 18 20 22 25 27 29 29 30 30 32 35 37 36 38 39 38
20 28 34 38 46 46 47 48 44 39 34 35 34 31 30 31 30 30 28 26 27 28 24 19 17 16 17 19 21 24 27 29 31 32 33 33 35 37 39 39 37 41 42
20 27 30 35 41 47 47 45 44 38 35 37 33 31 29 27 29 31 27 23 24 25 20 18 17 17 18 21 24 26 29 32 34 36 36 37 38 39 42 45 45 45 42
22 22 28 30 37 46 48 44 42 38 37 35 33 29 26 27 29 29 25 24 23 23 19 19 18 18 20 23 26 29 33 35 37 39 39 40 40 41 42 45 47 48 47
26 27 27 29 34 42 46 44 41 38 36 33 30 28 29 30 31 26 23 25 24 22 20 19 19 20 23 26 30 33 36 38 40 41 42 42 42 42 43 45 48 50 51
24 28 26 30 34 40 45 43 40 38 34 31 28 28 27 29 25 25 27 26 24 21 20 20 21 23 26 29 33 36 39 41 43 44 43 43 43 44 44 46 48 52 58
24 27 26 30 33 37 40 43 41 37 34 30 26 26 26 27 25 28 27 25 24 22 22 23 24 26 29 33 36 39 41 44 44 44 44 44 44 44 46 48 50 52 56
19 22 29 29 32 35 40 42 40 38 34 29 25 25 26 25 31 29 30 25 24 24 24 25 27 29 33 36 39 41 44 45 45 45 45 44 45 46 48 50 52 54 56
28 20 27 31 32 37 41 41 40 38 34 28 26 24 25 29 28 30 26 26 25 25 26 27 29 33 36 38 41 43 45 45 45 45 44 45 46 47 49 51 53 55 57
28 19 26 34 32 39 43 41 39 35 31 29 26 24 24 26 30 26 26 26 26 26 27 29 33 36 38 40 42 45 45 44 44 44 45 46 47 49 51 53 55 56 58
30 21 29 34 34 38 43 42 38 33 29 27 26 25 24 23 26 26 26 27 27 27 29 32 35 38 40 41 43 44 44 44 43 44 46 47 49 51 52 54 55 57 57
27 20 31 37 33 35 41 41 37 33 29 25 23 24 22 24 26 26 26 26 27 28 32 35 37 38 39 41 43 44 43 43 44 45 46 48 50 51 53 55 55 54 51
19 22 34 37 33 34 39 39 34 30 26 25 24 23 21 24 26 25 25 26 27 30 34 36 37 37 40 41 42 42 42 43 45 46 47 49 51 52 54 53 50 47 46
21 25 32 32 34 33 34 33 29 26 24 23 23 22 22 25 23 23 24 26 29 33 34 34 35 38 39 39 40 41 43 45 46 47 49 51 53 53 51 48 46 45 41
24 28 30 29 29 31 29 27 25 23 22 22 22 23 22 20 21 23 25 28 30 31 32 34 36 37 37 38 40 42 44 45 46 48 49 51 51 49 47 46 45 43 40
25 26 28 31 31 29 27 23 21 23 20 20 20 19 19 20 22 24 26 27 28 29 32 33 34 35 36 38 41 43 44 46 48 49 49 49 49 48 45 44 42 42 37
29 31 33 32 28 27 24 21 19 18 18 18 19 19 19 20 22 23 23 25 27 29 31 32 33 35 37 39 41 43 46 48 50 49 47 47 46 43 39 40 40 38 34
25 25 24 23 21 18 17 18 18 18 18 17 16 16 18 19 19 21 23 25 27 28 29 31 33 37 39 40 41 43 46 49 49 48 47 43 41 39 38 37 35 35 32
19 19 17 17 15 15 16 16 16 15 13 13 14 15 15 17 18 21 23 25 26 27 29 32 35 37 39 41 43 44 46 46 47 45 42 39 38 37 35 34 31 28 28
14 15 16 16 17 16 15 12 11 11 11 12 12 13 15 16 19 22 23 24 26 28 30 33 35 36 38 41 43 44 44 44 43 41 39 37 35 34 31 29 27 27 28
13 13 13 12 11 12 13 14 11 10 10 10 11 13 15 18 20 21 22 24 27 30 32 35 36 38 40 42 43 43 43 43 41 40 37 33 33 30 28 25 25 27 29
11 11 12 12 11 9 9 8 8 7 8 10 12 15 17 18 19 20 23 26 29 32 34 36 38 40 42 44 44 43 42 42 39 37 34 33 29 26 23 23 25 27 28
12 11 12 10 8 8 7 6 6 8 10 12 14 15 16 17 19 22 25 28 31 34 36 38 40 42 44 44 43 42 39 38 36 34 34 30 27 24 23 23 24 24 24

GFSMW_700_spd_033.txt.gz
Wind_Speed
33 39 41 54 58 56 54 51 49 45 40 38 36 35 35 36 35 35 33 34 33 29 24 21 20 21 20 18 17 16 18 19 21 22 24 25 24 26 26 27 29 29 31
36 37 39 43 54 58 59 58 54 51 46 43 39 38 38 35 36 35 35 35 32 28 23 24 23 20 24 19 17 17 18 19 21 24 25 27 29 25 27 28 29 31 34
38 38 39 42 44 52 57 59 58 55 51 47 44 43 40 36 35 34 35 32 30 29 28 27 24 27 23 18 17 17 19 20 22 24 27 30 31 31 31 31 31 33 34
28 32 39 41 41 45 51 56 59 57 54 52 49 44 37 34 33 32 33 31 30 30 29 26 25 25 20 18 18 18 19 22 24 26 28 31 33 35 35 35 37 38 38
23 26 30 37 41 43 48 51 56 57 56 54 51 44 38 38 35 34 33 33 33 31 29 27 25 25 20 19 19 19 21 24 27 29 32 35 37 38 39 38 37 39 41
16 19 32 32 39 45 47 53 49 53 55 54 48 41 41 38 34 34 33 33 33 29 28 27 25 25 21 20 20 21 24 26 29 32 35 37 39 40 42 44 42 43 41
24 27 28 30 36 41 47 54 47 50 52 49 43 39 41 36 33 31 30 31 31 28 25 25 25 24 21 21 22 24 27 30 33 36 38 41 41 42 42 45 46 47 44
31 31 27 30 34 38 42 49 47 49 48 45 42 41 39 34 33 30 31 29 26 27 28 25 23 23 22 23 24 27 31 34 37 39 41 43 43 43 44 45 47 48 47
19 26 26 26 32 35 37 42 44 48 44 42 42 41 34 34 33 32 32 29 27 28 25 26 25 24 23 25 28 31 34 37 40 42 44 44 44 44 44 44 45 49 53
20 18 24 25 33 33 34 35 40 46 43 42 41 35 33 31 32 32 32 27 25 27 26 25 25 25 25 28 31 34 37 40 42 44 46 46 45 45 45 46 47 49 53
25 22 20 23 28 29 32 35 40 44 45 44 37 33 30 29 30 30 28 26 29 26 28 25 27 26 28 30 34 37 40 43 44 46 46 45 45 45 46 47 49 51 53
27 28 26 25 24 29 32 33 40 42 44 40 34 31 28 27 27 30 28 30 26 30 27 28 27 28 30 33 37 40 42 44 45 47 46 45 46 46 48 50 51 53 55
32 28 21 26 22 28 32 33 39 43 40 35 32 29 26 25 28 25 30 27 32 27 29 27 28 30 32 36 39 42 44 44 46 45 45 45 46 47 49 51 53 54 56
34 29 25 22 23 29 31 35 40 39 35 33 31 27 25 25 24 28 31 31 25 29 26 27 30 32 35 38 41 43 43 45 44 44 45 46 47 49 50 52 54 55 56
27 31 24 19 24 32 32 36 36 35 32 31 28 26 27 26 29 28 25 22 26 25 26 30 31 34 37 40 41 42 44 44 43 44 45 47 48 50 51 53 54 53 53
22 28 19 18 26 31 31 35 35 33 32 28 26 26 25 26 25 25 23 24 27 26 29 30 32 36 39 39 40 42 42 42 43 44 45 47 49 51 52 52 52 50 49
20 20 17 22 28 27 31 36 34 30 29 28 29 25 27 24 26 20 21 20 26 28 28 31 35 36 36 38 40 40 41 42 44 44 46 48 49 50 50 51 49 46 44
19 19 20 27 30 28 30 31 30 28 28 27 27 30 22 20 17 18 19 23 26 26 30 32 33 33 36 37 38 39 41 43 44 45 47 48 48 47 48 48 46 44 42
14 15 20 26 27 26 28 28 28 27 25 24 27 14 17 14 14 17 23 24 24 27 29 29 32 33 35 35 38 39 41 43 45 47 46 46 47 46 46 45 43 41 38
12 20 23 26 29 29 25 25 24 24 27 18 6 10 10 12 17 21 21 22 24 25 28 29 31 32 34 36 38 40 42 45 46 45 44 44 45 44 42 41 40 39 36
20 25 28 29 27 25 22 23 21 15 10 11 15 15 13 15 16 17 19 21 24 26 28 29 31 32 35 37 39 42 43 45 46 45 44 43 42 41 38 37 36 35 32
20 19 19 19 17 15 13 12 11 10 9 10 9 10 12 14 15 17 20 22 25 26 27 29 31 35 37 39 40 41 43 44 45 44 43 41 38 37 34 34 32 29 28
19 18 15 15 14 12 10 8 8 10 9 8 9 11 12 14 16 19 21 23 24 25 27 30 33 36 38 40 42 43 43 43 43 43 41 37 35 34 33 30 28 27 28
13 12 12 12 11 12 12 12 9 8 9 10 9 10 13 16 17 19 20 21 23 27 30 33 35 36 38 41 43 43 42 42 42 41 38 35 34 32 29 25 25 26 28
10 10 10 10 9 9 11 11 11 10 8 8 11 13 14 16 17 18 20 23 25 29 32 34 36 40 41 43 43 43 42 43 42 40 36 34 31 26 23 23 24 26 26
10 9 10 10 9 8 8 7 6 6 8 10 11 12 14 15 16 19 21 25 29 31 33 37 40 41 43 43 43 42 40 40 38 36 34 32 26 23 21 22 23 22 24

GFSMW_700_spd_036.txt.gz
Wind_Speed
32 34 37 39 47 52 47 42 49 51 45 42 41 39 36 36 34 32 31 31 27 28 27 28 27 25 21 18 19 19 17 18 17 17 19 19 21 22 23 25 27 28 28
34 32 34 37 38 46 56 51 46 53 52 47 44 40 39 35 35 33 33 31 29 28 29 29 29 24 20 20 21 24 18 18 17 18 19 21 23 23 25 27 28 30 31
32 35 36 37 39 39 44 58 56 52 54 51 46 46 45 40 38 35 33 30 29 29 28 27 28 27 23 24 27 24 19 17 18 19 22 25 26 27 29 30 31 32 33
28 28 32 42 40 41 40 42 56 61 56 57 54 54 52 46 40 35 32 30 28 29 29 28 27 27 27 24 23 22 20 19 19 20 23 26 29 32 33 33 35 35 35
18 19 22 28 39 41 39 40 42 51 56 59 60 57 54 49 43 38 35 32 29 29 32 32 30 31 27 28 26 23 22 20 21 23 26 29 32 36 39 37 36 36 37
28 26 26 27 31 34 47 45 42 43 48 54 57 59 56 52 46 40 37 34 31 32 34 34 32 30 26 25 25 23 21 22 24 26 30 33 37 40 43 45 42 42 38
32 30 30 27 32 36 33 47 49 45 47 52 54 54 53 52 46 41 36 33 33 33 34 32 31 27 26 28 25 24 23 24 26 29 33 37 40 42 45 46 46 45 42
32 38 35 35 31 32 35 34 48 51 48 49 49 46 53 52 47 40 36 34 33 30 33 31 29 26 28 27 27 25 25 27 29 33 36 40 42 44 46 47 48 49 47
33 39 36 21 24 26 35 35 35 52 53 49 42 44 46 42 40 37 36 33 30 30 31 29 28 28 28 26 27 26 27 30 32 36 39 42 44 45 46 46 47 49 51
33 37 25 20 19 21 24 33 31 33 42 45 43 48 42 38 37 37 34 31 31 31 31 26 28 28 28 28 27 27 29 32 36 39 42 45 46 47 47 47 46 46 50
29 28 30 27 29 21 20 29 29 29 35 38 47 43 37 37 36 33 32 31 30 30 26 27 28 27 28 27 27 29 31 35 39 42 45 46 48 47 46 45 45 47 50
29 36 32 24 26 24 17 26 24 31 32 39 42 36 34 34 33 32 28 30 29 29 29 27 27 31 26 28 28 31 35 38 42 45 47 47 47 46 46 46 47 49 50
22 33 35 27 24 20 16 26 23 30 34 33 33 34 34 33 31 30 26 29 30 26 24 27 26 26 27 28 30 34 38 41 45 46 46 46 46 44 45 47 49 50 51
24 33 37 27 25 19 18 25 28 33 29 28 31 32 31 31 31 28 28 31 26 25 32 25 31 25 25 28 36 37 40 44 44 45 45 44 44 45 47 49 50 50 51
38 35 38 31 24 18 23 28 27 27 23 28 30 31 30 30 25 25 32 23 35 32 24 29 23 29 32 33 36 39 43 42 43 43 43 43 44 47 49 50 51 52 53
24 27 35 26 20 19 28 23 20 23 26 28 28 28 28 26 26 27 27 32 21 22 24 24 26 33 30 36 39 41 40 40 41 41 41 43 44 46 48 49 50 50 49
26 30 27 20 18 22 25 19 21 25 27 26 25 29 30 28 25 26 30 26 21 20 24 24 27 30 35 39 36 37 38 39 39 41 42 44 45 46 47 49 49 46 43
26 30 28 17 13 19 19 21 24 24 25 23 23 25 26 24 32 21 17 15 16 16 20 25 30 33 35 34 34 36 37 38 40 42 43 44 46 47 48 50 48 44 39
16 22 14 11 13 19 21 25 26 23 21 22 24 27 30 26 17 10 9 13 15 18 23 28 29 31 31 31 33 35 37 40 41 42 43 45 47 47 47 47 44 41 36
5 4 7 11 17 18 20 22 23 20 23 27 26 20 15 10 9 8 11 13 16 21 24 25 27 29 30 32 33 37 39 41 42 43 44 44 45 45 44 43 42 39 35
6 10 12 16 19 20 20 24 22 18 22 16 5 6 8 6 5 7 12 16 18 20 22 24 26 28 30 33 36 37 40 43 45 45 44 43 43 42 40 38 36 35 32
16 16 17 20 21 24 20 18 17 14 8 7 6 4 2 6 7 10 13 15 18 20 23 25 27 30 33 35 38 40 42 44 46 46 45 43 41 39 36 34 32 29 27
16 18 17 19 19 19 19 15 12 10 7 5 6 5 3 5 9 12 14 17 20 22 24 26 29 32 35 38 40 42 43 44 45 44 42 39 37 34 32 29 26 25 26
13 15 14 13 13 15 15 15 10 10 8 4 2 3 6 9 12 15 17 18 20 23 25 28 31 34 36 39 41 42 43 43 42 40 36 35 33 31 29 24 23 24 27
9 8 8 8 7 6 7 7 6 3 1 2 4 8 10 12 14 15 16 19 22 25 28 31 34 36 38 41 43 44 43 41 40 38 36 32 29 25 20 20 22 24 25
3 3 4 5 4 3 3 2 1 2 3 6 8 10 11 12 13 15 18 21 25 28 30 33 36 40 43 44 43 41 39 39 38 35 32 29 25 20 19 20 21 22 24

GFSMW_700_spd_039.txt.gz
Wind_Speed
24 27 29 35 39 42 45 46 40 40 44 46 42 37 39 35 35 34 29 27 26 21 24 26 24 23 23 22 20 20 19 20 20 17 16 15 15 17 18 20 22 23 25
29 30 32 34 36 37 42 49 46 42 45 48 49 45 40 38 37 34 32 29 24 23 24 25 24 24 24 23 20 20 22 23 22 19 17 16 16 18 20 22 25 28 29
21 26 33 36 38 40 41 43 50 46 44 46 48 50 46 42 40 38 35 29 27 23 25 25 27 25 24 24 23 22 24 23 22 21 19 19 20 22 23 25 28 31 32
23 24 26 31 41 42 42 40 48 55 51 43 47 51 52 48 45 42 37 35 28 27 26 27 29 27 26 26 25 25 22 22 23 22 20 21 22 24 27 28 32 33 35
15 21 25 27 32 37 45 45 42 52 60 56 52 51 53 50 46 43 42 37 33 30 28 30 29 30 29 28 28 29 25 27 27 24 24 24 26 28 30 31 33 35 37
22 25 25 25 28 31 33 40 44 45 46 64 62 55 58 56 52 47 43 40 37 34 33 32 32 33 32 30 30 27 27 30 27 26 26 26 29 32 35 38 39 40 38
25 29 32 33 35 34 31 31 40 48 45 46 60 64 60 58 55 48 44 41 38 37 35 33 33 32 33 30 27 26 31 28 28 27 27 29 32 35 39 42 45 45 43
26 33 38 40 41 37 34 33 32 36 50 47 50 51 59 57 53 45 43 39 39 37 37 33 33 32 33 32 30 31 31 29 29 28 29 32 35 38 41 45 48 49 48
28 31 33 40 40 47 48 41 36 33 33 52 49 48 49 50 45 40 40 38 37 39 37 35 31 32 31 31 29 31 30 30 30 30 32 34 38 41 44 47 49 51 53
26 32 33 33 35 30 29 26 27 32 30 42 50 51 49 44 39 37 36 38 39 38 36 36 29 30 31 33 28 32 29 31 31 32 34 38 41 44 48 49 49 49 51
33 33 33 35 32 28 25 26 23 26 28 30 46 48 44 40 34 32 33 35 35 35 36 32 29 30 30 29 33 28 30 31 32 34 37 40 44 47 50 49 48 47 48
30 32 33 34 34 23 22 21 24 24 28 29 37 41 42 39 34 34 33 32 32 34 32 28 31 31 30 35 28 33 31 31 33 36 40 43 47 49 49 48 47 47 48
31 33 31 32 31 18 17 21 22 27 27 29 33 36 32 33 32 31 29 30 32 33 31 30 29 35 32 34 26 31 29 30 36 41 44 48 49 48 48 47 47 48 48
24 30 30 33 31 27 25 21 21 25 28 28 26 23 26 28 29 28 29 30 29 31 31 33 32 41 32 26 28 30 30 38 39 43 48 49 46 46 46 47 48 49 49
19 25 28 30 34 33 28 20 18 22 22 24 26 24 24 27 27 28 28 29 29 33 35 31 36 28 25 28 23 30 34 37 41 46 45 44 44 45 47 48 49 50 50
17 20 26 34 36 31 23 20 18 21 23 25 23 24 26 27 28 29 29 26 34 34 30 36 27 23 22 22 28 31 36 41 43 41 41 42 43 44 46 47 49 50 49
19 23 28 31 27 17 13 15 19 23 25 21 22 24 25 26 26 28 26 27 25 23 31 21 13 20 21 25 31 36 39 40 38 39 40 41 43 45 47 48 49 48 46
21 21 23 22 23 13 10 16 21 21 22 21 22 22 24 25 28 32 26 28 22 22 16 13 18 20 24 29 34 36 35 36 37 39 40 43 44 46 48 49 50 48 44
4 18 19 19 11 11 13 18 20 19 20 20 21 21 23 25 25 24 21 14 14 10 11 14 19 23 26 30 31 33 34 35 37 39 41 43 45 47 46 48 48 46 42
9 2 3 5 6 9 13 15 17 19 24 26 25 24 23 19 12 6 6 7 6 9 13 18 21 24 26 28 29 31 34 36 39 41 42 44 45 46 45 45 45 43 40
10 6 2 4 8 8 13 16 17 14 14 14 15 16 13 8 8 5 0 7 8 12 15 19 22 23 25 28 31 33 36 38 40 42 43 42 43 43 41 40 40 38 35
11 11 13 12 9 9 8 15 16 22 18 15 13 12 6 6 3 2 5 8 11 14 17 19 21 24 27 30 32 35 39 42 45 45 44 43 42 41 38 36 34 32 28
18 22 17 14 14 22 20 20 19 18 16 11 12 8 3 1 1 6 7 9 12 14 17 19 23 27 30 32 35 38 41 44 45 44 43 42 41 37 33 31 29 25 25
17 18 16 17 16 17 19 18 17 16 13 9 7 4 4 3 3 6 9 11 13 16 19 23 26 28 32 35 39 41 43 43 43 42 39 37 34 31 29 25 23 23 25
10 13 16 18 18 18 17 15 11 10 6 6 4 1 2 4 5 7 10 13 17 20 23 25 28 31 35 39 42 44 44 46 44 40 35 31 28 26 21 19 20 22 22
6 10 13 13 12 14 12 10 8 6 6 5 4 6 7 8 10 12 14 17 20 22 25 28 32 35 38 42 44 44 44 42 39 35 32 29 25 19 16 16 16 19 21

GFSMW_700_spd_042.txt.gz
Wind_Speed
22 30 35 45 53 56 55 52 43 44 46 44 41 40 37 36 36 34 31 30 27 23 21 23 23 23 21 20 20 19 17 18 18 21 21 20 19 19 17 17 18 19 21
29 29 32 35 39 44 51 51 51 50 46 47 45 41 41 40 39 36 36 33 31 27 23 22 23 23 23 21 21 20 19 19 21 23 23 22 20 20 19 20 21 23 25
28 28 34 37 37 38 38 39 45 51 50 46 44 44 43 44 43 40 39 39 32 28 24 23 24 25 25 23 22 23 21 21 23 24 23 23 23 22 22 22 24 26 28
22 23 25 29 39 42 41 41 42 43 56 54 51 48 48 49 47 40 40 41 35 32 28 25 25 26 26 28 26 26 22 24 25 25 23 26 26 25 25 25 27 29 31
11 14 16 23 28 33 41 47 46 48 48 53 57 54 50 51 46 41 41 40 40 37 33 28 27 26 29 30 30 29 28 29 29 26 29 30 29 27 27 28 30 32 34
21 22 23 22 21 21 24 28 38 48 49 54 56 56 56 50 44 44 43 42 40 40 37 32 30 29 30 33 33 35 30 30 32 32 31 31 31 31 31 32 32 34 35
17 18 22 25 25 25 26 27 28 30 40 52 56 62 59 54 50 44 45 43 43 42 40 35 32 31 32 35 36 36 32 38 35 26 33 33 34 34 34 36 38 40 40
18 20 23 25 28 30 32 34 36 36 33 36 47 55 60 57 49 48 43 42 44 45 44 38 32 32 34 36 37 36 36 31 38 32 35 36 35 36 37 38 41 44 46
22 26 28 30 31 33 34 39 39 39 41 39 40 48 51 51 50 45 49 48 46 44 41 37 34 35 37 37 38 36 40 35 30 35 36 37 37 38 39 41 44 48 54
26 27 30 29 30 35 38 41 42 38 32 33 40 42 50 45 44 44 49 47 44 41 39 38 35 36 37 38 34 38 36 37 34 36 39 37 38 38 40 43 47 51 55
33 35 40 36 30 36 38 40 37 37 30 29 33 41 45 43 43 42 41 39 39 39 38 36 37 37 36 36 34 46 37 42 31 37 34 37 38 39 43 47 50 54 55
48 44 29 28 32 36 37 35 35 31 25 27 31 36 39 41 40 42 38 37 35 33 34 37 38 36 35 32 44 36 35 30 36 33 38 40 38 44 49 51 54 53 51
35 30 30 27 23 33 37 26 24 29 26 28 29 31 30 36 35 37 36 35 33 32 33 35 35 34 33 40 42 43 35 37 36 35 35 37 42 44 48 52 50 49 50
29 25 24 27 20 28 29 29 25 28 24 24 25 26 25 27 32 36 36 35 34 33 33 32 32 35 42 42 43 39 42 38 33 32 35 38 41 46 48 47 48 49 51
20 18 20 17 18 27 30 27 24 22 23 22 19 23 25 29 28 27 37 32 31 33 30 31 39 39 33 39 34 35 26 28 30 34 37 41 44 44 46 47 49 51 52
16 10 8 9 16 25 26 28 19 18 19 15 13 15 17 25 23 22 24 27 31 30 32 34 34 30 31 32 29 27 26 28 31 36 40 39 42 44 46 48 50 52 53
15 14 17 18 19 19 19 13 10 9 9 10 15 18 17 21 21 21 23 27 28 31 30 35 30 25 22 21 22 22 25 30 35 36 36 39 42 45 47 48 50 52 51
13 10 11 11 13 16 13 7 5 4 12 18 18 17 15 20 19 22 25 31 25 22 28 23 16 16 17 19 23 24 28 31 33 35 38 41 42 45 48 50 52 53 50
11 3 9 14 13 8 8 10 8 10 15 11 10 14 17 21 24 24 27 22 18 17 12 13 13 15 17 19 22 25 28 31 34 37 39 43 46 48 49 52 53 51 46
6 4 2 4 7 8 5 7 12 11 13 12 14 16 14 13 13 12 7 8 9 8 8 10 13 17 20 21 24 26 30 33 34 37 41 44 47 49 50 50 50 47 43
11 3 2 2 5 5 3 2 4 6 9 13 8 11 21 16 13 13 10 8 6 4 5 10 15 18 19 22 25 28 31 34 36 39 42 45 47 48 47 44 43 41 37
14 12 6 6 5 4 7 3 5 15 19 20 20 17 15 12 9 6 4 3 3 6 10 14 16 18 21 23 27 29 33 37 41 44 46 47 47 44 40 38 36 34 31
20 19 16 10 11 15 22 23 20 23 20 20 18 14 10 7 6 3 1 3 6 8 11 14 17 20 23 26 29 32 36 40 44 46 46 44 42 38 34 32 31 27 24
17 18 17 18 19 21 22 20 19 19 18 14 11 7 6 5 3 2 3 5 7 11 14 17 20 23 26 29 32 35 39 42 44 43 41 40 37 34 31 29 25 22 23
11 11 13 14 14 15 15 16 14 11 8 8 7 5 4 3 4 5 7 9 11 14 17 20 23 26 30 33 36 39 42 44 43 42 40 35 31 26 23 19 19 20 20
9 8 10 9 10 10 11 9 8 7 8 7 5 5 6 5 6 7 9 13 16 18 20 23 27 30 33 35 38 41 42 42 41 38 34 27 21 17 13 14 15 18 19

GFSMW_700_spd_045.txt.gz
Wind_Speed
31 38 42 47 54 56 54 53 48 45 45 45 44 41 38 34 33 33 30 28 28 28 27 25 24 24 23 23 24 21 18 17 17 17 17 19 21 21 20 20 18 18 20
30 31 34 37 43 47 52 58 57 52 49 48 47 47 45 42 37 36 34 32 33 32 31 28 25 25 24 25 24 21 19 19 19 19 20 22 23 23 23 22 22 22 22
30 30 34 36 37 39 40 45 53 57 59 54 48 48 49 50 47 43 39 36 36 35 32 29 28 27 27 25 25 24 23 22 21 21 23 24 25 23 24 25 25 26 26
17 19 21 25 35 42 42 44 43 44 49 55 60 60 58 53 49 43 40 37 37 36 33 32 30 30 26 24 27 27 28 27 25 22 26 23 28 27 30 29 29 29 29
11 11 14 20 27 30 33 43 45 45 43 43 48 50 56 57 53 45 42 41 40 38 36 32 35 32 29 25 25 28 31 30 30 31 29 29 29 32 32 33 32 32 32
16 19 20 21 20 19 19 20 26 37 45 47 47 49 48 54 56 50 46 43 41 39 37 33 33 36 34 30 26 28 32 34 33 35 32 34 34 35 33 35 36 35 35
18 16 14 16 19 18 19 20 21 21 21 28 34 53 54 54 51 51 50 47 43 40 38 36 33 34 36 33 30 30 33 36 38 35 36 35 38 31 32 36 40 39 38
20 21 20 18 18 21 25 26 29 31 32 33 32 32 38 55 53 55 48 51 46 42 39 38 36 36 36 37 35 33 35 39 39 39 35 38 34 35 37 37 41 42 42
19 22 25 27 27 29 29 29 30 32 32 33 34 37 40 39 42 49 49 47 50 47 43 40 39 37 38 39 38 36 39 42 37 39 40 39 38 34 37 41 40 43 46
34 34 36 36 34 33 34 31 33 34 36 38 38 37 34 38 41 38 42 47 41 44 47 44 41 38 38 39 40 40 42 38 40 44 45 44 39 41 42 39 40 43 46
38 41 47 49 45 41 34 34 34 33 36 38 39 34 30 30 36 38 34 41 39 41 44 42 40 39 38 40 43 44 42 46 42 47 48 43 40 40 40 39 43 44 49
37 34 32 33 33 38 44 35 27 31 35 35 32 28 30 32 32 36 34 37 40 40 39 39 39 39 40 41 43 41 45 38 44 44 49 44 42 44 43 43 42 46 47
32 33 26 23 20 23 27 23 22 30 34 30 29 31 30 31 29 32 35 37 40 37 36 36 36 38 39 39 44 42 41 42 43 48 46 45 41 37 37 40 42 45 46
33 32 21 18 16 21 23 18 23 28 25 31 29 29 28 28 26 27 31 34 33 34 34 34 34 34 38 39 41 40 41 43 44 38 39 34 33 37 38 41 42 44 46
28 27 15 12 14 9 15 19 25 29 27 30 28 22 21 23 23 24 28 29 32 33 34 33 34 33 34 34 35 44 46 39 40 33 30 33 35 37 38 40 42 45 48
24 19 10 6 4 8 14 21 25 21 14 20 22 20 19 18 19 22 23 25 34 35 29 30 32 28 30 36 44 40 32 25 26 28 30 32 34 35 38 41 45 48 51
18 13 8 11 10 12 15 17 17 9 9 12 14 16 16 14 15 20 21 21 22 25 30 29 29 35 30 35 26 21 18 21 25 29 30 31 33 37 40 43 47 50 53
16 6 5 5 7 12 11 12 5 6 3 10 8 11 13 12 11 14 18 16 20 28 20 30 24 24 23 16 15 18 21 24 28 29 30 33 36 39 42 46 50 51 49
14 7 3 5 7 8 11 10 11 6 10 11 11 8 7 4 14 7 15 17 17 17 24 14 17 15 12 13 16 17 21 25 26 29 32 35 38 41 44 49 53 53 50
13 7 4 3 5 6 6 4 5 8 7 11 9 1 6 5 2 12 16 2 10 12 12 10 9 9 12 14 17 19 22 25 28 31 35 39 42 45 49 52 52 49 44
15 9 7 5 7 8 5 6 4 3 3 3 1 2 3 7 12 11 11 10 8 6 3 4 7 10 13 15 18 22 24 26 29 33 36 40 44 48 49 47 44 40 36
17 10 6 6 4 4 5 4 9 14 13 14 18 18 17 17 14 12 9 7 3 2 3 7 8 11 14 18 21 24 28 32 34 37 40 44 46 45 42 39 34 31 28
19 22 16 9 12 11 15 16 18 20 18 17 17 16 14 11 7 5 4 3 3 3 5 8 11 14 17 20 24 28 32 35 39 41 44 45 42 40 35 30 26 22 18
13 15 16 15 16 18 18 17 16 17 14 12 12 10 10 7 4 4 5 5 5 7 10 13 15 18 22 26 29 33 36 39 42 43 42 40 37 33 25 18 16 14 15
8 9 13 11 9 12 13 11 10 11 11 10 9 8 7 5 6 6 6 8 10 11 13 16 19 23 27 30 33 36 39 42 43 41 37 34 29 21 16 13 14 14 16
0 5 7 8 5 8 8 9 10 8 8 6 6 6 5 5 5 6 7 9 12 14 17 21 25 28 31 34 37 39 42 41 38 35 32 25 16 11 10 11 12 15 16

GFSMW_700_spd_048.txt.gz
Wind_Speed
29 36 41 47 51 53 51 47 44 44 42 43 42 41 39 37 35 32 31 31 30 28 28 26 26 25 24 24 25 25 23 23 22 20 18 18 18 17 18 20 20 21 21
28 31 35 38 42 45 48 56 55 49 48 48 46 49 47 45 40 37 34 32 33 32 31 28 28 28 28 28 27 25 24 25 23 21 20 21 20 19 20 21 22 23 24
24 30 33 33 34 38 41 44 48 52 58 59 55 55 53 53 50 46 41 38 37 36 34 32 32 31 31 30 29 25 25 26 26 23 23 23 21 22 22 22 22 25 28
15 16 17 19 24 30 40 41 41 44 45 45 50 59 58 56 53 49 44 42 40 42 39 36 35 32 32 32 28 27 28 29 27 27 28 27 25 27 27 25 26 29 31
10 11 14 15 15 14 17 24 31 41 45 43 44 46 54 61 63 58 54 52 48 42 40 37 36 33 33 35 34 33 34 30 30 28 30 32 30 30 33 29 32 34 32
14 16 18 19 18 19 20 20 20 21 26 39 44 44 43 43 47 51 54 53 53 48 44 40 38 35 34 35 35 34 31 29 28 29 35 34 32 34 38 31 37 31 33
16 17 20 22 22 19 18 19 18 17 17 19 24 32 40 43 48 47 44 44 45 48 47 44 40 37 34 33 34 37 37 33 31 32 35 34 38 39 38 35 39 39 36
20 21 22 23 26 28 29 28 27 26 24 22 23 26 28 30 29 30 42 49 46 43 43 43 42 40 36 36 35 34 35 36 37 37 35 36 36 45 34 45 40 42 39
26 28 29 31 33 34 33 35 34 32 31 29 28 29 30 31 30 28 32 32 41 46 42 44 43 44 44 40 35 34 36 39 41 41 38 42 42 43 48 44 45 43 43
27 32 36 40 43 44 44 42 41 38 36 34 34 33 34 34 34 31 31 35 32 33 43 43 45 45 45 40 38 37 38 40 42 43 39 44 42 44 48 53 52 44 46
32 33 30 28 31 34 38 46 50 43 38 35 33 32 34 36 35 33 31 34 38 34 37 41 43 43 45 44 42 40 41 41 42 41 43 43 47 46 50 55 49 46 45
29 30 30 30 29 28 29 29 32 39 37 33 33 30 34 33 33 33 33 31 33 35 34 39 41 42 42 42 42 41 41 40 42 41 41 47 47 45 53 56 44 41 38
30 27 27 22 17 22 20 19 23 28 36 33 34 28 34 31 31 31 33 31 33 34 33 37 40 40 39 39 38 39 39 37 39 38 40 48 50 50 46 41 36 38 39
28 27 23 16 16 16 11 19 23 25 23 23 26 28 31 27 25 27 28 29 30 30 31 37 37 35 35 35 36 38 40 32 42 36 43 46 45 39 35 34 35 38 39
25 25 19 13 9 8 5 9 15 21 25 25 25 27 29 24 21 23 25 25 24 26 29 31 31 32 33 31 29 36 33 35 36 38 41 35 33 30 29 33 35 38 39
24 22 16 12 8 8 9 16 20 21 23 21 16 15 18 19 19 18 19 18 20 20 25 21 24 38 30 27 29 31 31 34 38 35 26 24 27 30 32 35 35 38 40
25 19 13 9 11 10 12 17 18 13 13 9 8 8 12 14 14 16 16 15 17 13 22 18 30 22 24 27 32 30 27 28 22 21 23 25 27 29 31 34 36 39 43
20 15 10 8 10 13 12 15 13 10 8 9 8 8 9 13 15 15 15 19 19 19 15 20 20 21 23 21 22 22 16 14 20 20 23 25 28 31 33 36 40 42 44
14 11 7 8 8 9 13 14 13 11 13 9 11 14 13 11 11 7 13 10 22 18 10 12 12 14 18 13 10 10 14 18 20 22 24 27 30 33 37 41 44 45 43
16 8 6 6 6 7 9 10 8 5 6 5 6 6 2 3 5 7 5 4 11 8 8 7 7 6 4 6 9 12 16 18 21 23 27 31 35 38 41 45 46 45 42
20 10 6 3 7 6 7 7 8 6 4 4 2 1 5 7 6 7 12 13 11 9 7 4 3 5 6 8 10 14 17 20 24 27 31 35 39 41 44 46 45 43 39
17 16 6 4 2 5 7 11 14 16 18 15 15 16 18 17 16 14 12 10 8 6 5 2 3 6 9 12 16 19 22 25 28 32 36 40 42 44 44 43 41 36 26
14 12 14 16 12 7 8 14 17 18 18 17 16 15 14 13 12 9 8 7 7 4 3 6 9 11 14 17 20 24 28 32 35 38 41 44 45 43 40 37 31 20 15
12 9 9 11 10 9 11 12 12 12 12 11 11 11 11 9 9 9 8 7 7 7 9 10 12 14 18 22 26 30 34 37 41 41 43 43 40 37 32 23 16 11 10
7 7 4 4 4 6 7 6 7 7 8 8 8 8 8 7 6 5 5 6 7 9 10 13 17 21 25 29 32 36 38 41 41 41 38 36 33 28 19 11 8 8 9
7 8 1 2 4 4 6 5 5 5 5 5 6 6 5 5 6 6 7 8 9 11 15 19 22 26 30 33 37 39 39 38 34 32 29 27 20 13 10 9 9 10 11

GFSMW_700_spd_051.txt.gz
Wind_Speed
25 30 37 44 49 50 48 46 46 44 43 43 42 39 36 33 34 31 30 30 31 31 31 30 28 28 26 26 28 27 27 25 24 24 23 21 21 19 19 19 19 20 20
25 29 34 38 42 46 49 51 51 51 51 49 46 45 42 42 38 36 35 34 34 34 34 33 32 29 28 29 29 28 28 27 27 26 24 24 22 20 20 21 20 21 21
24 27 30 34 36 38 40 42 44 44 47 49 53 53 51 50 47 46 42 40 38 36 35 33 34 33 33 33 32 31 29 29 28 27 28 27 25 22 22 23 23 23 23
16 18 18 20 20 25 33 36 37 37 38 38 43 47 52 56 56 55 50 44 43 41 39 38 38 36 36 37 36 35 33 30 32 31 30 35 33 28 29 26 27 30 29
14 13 13 14 17 19 22 26 29 33 38 44 44 41 40 41 42 45 51 52 48 47 48 43 41 40 41 40 39 37 37 35 36 34 36 38 33 33 28 33 31 32 33
10 12 14 15 17 20 22 24 26 27 28 30 36 43 45 44 43 40 40 42 46 50 54 54 51 47 41 40 39 38 38 37 37 35 32 32 33 31 32 34 34 34 37
11 15 19 20 21 22 23 23 24 27 30 29 27 29 31 36 42 42 42 42 41 38 40 45 46 46 45 41 40 39 39 38 39 36 36 34 35 35 35 34 39 38 39
18 20 22 23 24 27 28 30 30 29 31 33 32 31 30 28 26 26 29 34 39 42 45 36 38 41 46 47 43 41 39 38 41 41 40 40 38 40 38 42 41 41 44
23 25 27 30 32 34 35 36 37 37 35 36 36 36 37 34 33 32 31 31 30 30 36 40 44 40 39 42 43 43 43 40 39 39 38 40 41 42 44 44 47 44 45
22 22 24 26 29 31 34 36 41 44 42 41 40 39 39 39 37 35 33 30 29 30 33 36 40 44 42 40 41 44 47 42 36 38 38 40 43 44 43 51 46 48 47
25 24 27 26 25 26 25 24 24 29 33 40 47 43 41 40 39 37 35 33 34 35 34 37 38 40 44 44 43 43 43 41 39 39 39 41 42 45 47 46 48 47 50
26 25 24 22 23 22 21 22 22 22 22 26 34 44 45 43 41 37 37 35 38 38 37 37 42 40 42 42 42 42 43 41 43 40 41 42 44 44 48 43 46 48 46
25 21 21 21 18 18 19 19 22 23 19 20 22 32 40 46 39 38 40 35 36 35 34 34 39 40 40 41 42 40 40 40 40 40 38 44 50 44 54 42 42 41 42
26 23 22 20 16 13 16 17 17 15 17 21 21 24 24 28 30 24 25 26 26 27 28 32 34 34 37 39 40 37 35 36 41 32 40 43 47 48 42 37 37 33 34
24 23 18 16 16 12 15 15 16 19 22 27 28 27 25 24 21 19 21 22 23 25 27 28 30 31 32 33 31 31 34 31 35 40 41 42 42 35 31 31 31 32 35
22 22 14 14 13 11 12 15 19 22 21 20 20 18 15 13 16 16 17 18 20 20 19 17 19 23 26 27 28 29 32 30 35 32 29 28 28 24 25 28 31 32 33
16 16 11 12 11 11 12 17 18 16 10 12 14 13 13 12 12 14 15 15 14 11 14 13 19 27 26 30 30 29 31 27 25 20 21 21 21 24 27 31 34 33 35
19 15 12 10 10 12 13 11 14 13 8 10 10 12 11 10 9 11 12 11 12 12 11 20 18 22 9 14 16 16 13 15 16 17 19 23 24 26 29 33 34 34 38
23 16 11 11 9 10 10 10 13 12 8 10 10 13 7 4 6 3 8 11 11 13 15 16 12 10 9 13 11 8 7 10 13 16 20 23 25 28 33 36 36 37 39
23 21 12 9 7 10 8 10 9 12 8 6 5 4 8 5 5 4 3 8 6 6 7 9 8 6 5 1 4 6 9 12 15 19 23 26 29 33 37 40 41 41 41
20 20 14 7 8 7 11 9 8 3 5 6 5 2 5 8 12 11 13 15 12 13 11 9 7 5 3 4 6 8 12 15 19 24 28 32 35 38 40 42 42 40 37
17 17 15 7 1 5 9 11 15 17 15 16 17 16 17 16 15 14 12 11 9 9 8 7 5 3 2 5 8 12 16 20 24 29 33 36 39 40 40 40 38 35 31
13 14 13 12 9 6 7 11 13 15 15 14 13 13 13 12 11 11 10 9 8 7 6 5 6 8 10 13 17 20 24 28 32 36 39 41 41 38 34 31 28 22 14
10 11 9 6 4 3 6 7 7 9 10 11 10 9 9 10 9 8 7 6 7 7 8 8 10 12 15 19 23 28 32 35 36 37 36 32 27 23 20 16 12 9 9
9 10 10 5 3 1 2 4 5 5 6 7 7 7 7 6 5 5 5 6 7 8 10 12 15 19 22 26 30 33 35 34 32 26 21 19 16 13 11 9 9 9 9
10 10 12 5 3 2 2 2 2 2 3 4 4 3 3 4 4 5 6 7 9 11 14 17 20 24 28 31 34 34 32 27 21 17 13 10 8 7 7 8 8 9 11

GFSMW_700_spd_054.txt.gz
Wind_Speed
30 33 37 40 42 44 45 45 45 44 43 45 42 41 39 35 36 34 34 35 34 36 36 36 35 35 33 32 31 31 32 31 30 30 29 28 26 25 23 22 22 22 21
28 30 33 36 40 42 46 48 48 48 48 48 47 45 43 42 41 38 37 35 38 36 35 34 35 36 36 36 33 34 33 33 32 31 31 31 30 27 25 23 23 24 24
26 29 31 32 34 37 39 41 43 45 46 47 50 52 52 52 48 45 42 39 37 39 37 36 37 38 39 39 36 35 36 35 33 33 34 35 34 29 28 26 26 27 26
21 24 25 27 28 29 30 33 37 39 39 39 40 42 45 46 44 44 46 46 47 46 45 44 43 41 40 39 38 38 37 39 37 36 35 36 36 35 34 32 46 36 31
16 16 17 18 19 21 21 22 25 30 35 39 41 43 43 42 41 42 43 44 47 49 50 46 44 47 44 41 43 40 40 42 42 41 39 39 38 37 38 41 33 37 38
15 15 17 18 19 20 21 22 23 25 28 31 33 36 40 44 46 46 44 40 39 39 42 48 52 51 49 45 44 43 44 44 45 44 43 42 40 40 37 36 32 32 35
9 12 15 19 21 24 25 27 28 30 31 32 34 35 36 37 41 46 47 47 47 45 41 41 47 50 50 51 51 50 49 46 46 47 45 44 43 39 40 40 37 39 40
11 15 19 22 25 27 29 31 33 33 34 33 33 34 35 36 37 37 40 43 46 48 46 47 42 41 44 48 50 50 50 46 46 49 50 42 44 43 41 48 39 42 43
19 22 24 25 27 28 31 33 35 37 39 38 39 39 39 38 38 37 36 34 33 34 34 36 38 44 49 46 44 46 47 47 48 49 48 46 47 46 44 45 43 43 46
22 24 25 25 26 26 24 25 27 28 31 35 40 44 43 43 42 42 42 42 41 41 38 37 37 38 42 47 47 44 43 45 47 47 48 46 50 46 41 43 45 49 48
22 24 24 23 24 23 21 20 19 19 20 22 26 31 39 46 45 44 44 44 43 42 41 39 39 39 42 44 46 48 46 45 44 45 48 49 41 37 44 44 45 49 49
23 24 22 20 19 19 16 16 15 15 18 19 21 24 28 34 38 42 44 45 43 41 40 39 40 41 42 45 46 47 48 47 45 45 44 43 42 46 36 44 46 44 49
21 22 18 16 15 14 14 14 15 16 17 18 19 20 22 25 26 28 36 42 43 43 43 39 42 46 44 43 46 44 44 45 44 43 43 42 39 44 47 49 46 49 50
19 19 17 15 13 11 12 14 17 15 16 17 20 21 23 25 28 29 27 22 24 25 29 35 34 33 35 35 38 41 40 40 39 38 40 43 42 49 42 42 43 45 40
20 21 20 14 13 10 11 15 15 16 19 20 22 22 22 20 19 21 24 23 24 26 25 26 29 32 32 31 33 35 34 32 33 33 38 41 44 37 40 38 36 38 32
19 16 16 12 11 10 12 15 16 19 17 14 13 14 14 14 15 16 17 20 22 23 24 27 28 26 26 31 28 27 23 27 33 29 34 37 31 31 29 31 28 28 29
18 16 13 10 9 10 12 16 16 14 12 8 8 11 13 17 15 15 16 16 20 20 16 15 14 14 14 19 20 26 23 31 33 31 27 30 25 24 23 25 30 32 34
17 18 13 11 9 9 12 14 13 12 11 9 10 14 16 9 7 14 12 14 12 11 10 12 6 10 14 18 27 15 16 21 26 17 12 14 17 22 27 29 30 33 37
17 19 18 10 8 8 12 12 11 12 10 8 6 7 7 7 7 9 7 5 8 9 11 9 6 6 10 10 10 3 3 3 7 11 14 18 22 26 29 31 33 36 39
16 17 17 12 6 10 8 13 13 10 5 4 4 5 10 2 4 5 8 13 11 8 9 9 10 8 7 5 1 3 5 9 12 15 19 22 26 31 34 36 37 38 39
14 16 16 13 7 7 8 8 7 5 3 4 4 6 9 10 14 14 13 15 14 12 10 8 7 5 2 1 3 6 9 13 17 21 25 28 32 35 37 39 38 35 31
12 13 14 13 9 6 7 9 11 13 13 15 14 13 13 12 11 10 10 10 9 8 7 5 5 5 6 7 9 12 16 20 24 28 31 34 35 35 32 28 25 22 19
13 11 11 8 5 4 4 6 7 6 8 9 9 8 8 8 8 8 8 7 6 5 5 5 5 7 9 11 15 18 22 27 29 31 31 30 26 23 20 15 12 10 9
13 13 9 8 4 1 1 2 4 3 4 5 5 5 6 6 5 5 5 4 4 4 5 7 10 13 16 20 23 27 30 31 31 29 26 22 17 13 10 7 7 7 7
13 12 9 10 6 4 3 1 1 1 2 1 3 3 3 4 3 3 3 3 5 7 9 13 16 19 21 25 27 30 30 28 25 22 19 15 11 8 8 7 7 7 8
12 10 12 12 6 4 3 2 2 1 2 2 1 0 1 2 3 3 4 6 8 11 13 17 20 23 26 28 30 31 29 25 21 17 14 11 9 8 8 8 9 10 11

GFSMW_700_spd_057.txt.gz
Wind_Speed
27 33 36 37 37 38 39 40 41 43 42 43 44 45 41 40 41 38 35 35 34 36 38 39 39 39 39 38 35 35 35 35 36 36 36 34 33 31 30 29 26 25 25
30 32 32 35 37 38 39 40 42 43 44 44 46 50 44 43 42 41 40 39 39 38 37 38 40 40 40 39 38 37 37 35 37 37 37 39 38 34 32 31 30 28 27
29 31 31 32 34 36 36 37 38 40 41 44 46 48 49 46 46 45 44 44 44 43 42 41 39 40 41 39 39 38 39 38 37 37 39 40 41 37 35 34 32 32 30
27 28 29 30 30 31 31 33 34 34 35 37 39 41 43 44 41 42 43 43 44 44 45 45 44 42 43 43 42 44 42 41 42 39 40 41 42 39 37 36 36 36 35
20 20 21 22 22 23 24 25 25 27 28 30 34 38 41 43 44 43 40 40 42 45 47 50 51 51 50 49 49 50 47 45 44 41 42 41 43 43 41 40 39 40 40
17 17 17 18 19 19 20 22 23 23 24 26 27 30 32 33 35 37 40 42 43 43 44 45 48 52 55 54 52 49 50 49 46 46 45 43 44 46 46 43 43 41 41
14 15 16 18 20 22 23 24 26 27 29 30 31 32 34 34 34 34 35 36 40 45 49 47 45 44 44 50 54 54 54 53 50 48 48 46 45 47 48 46 47 45 43
12 13 15 18 21 23 26 28 30 32 34 35 35 35 36 37 36 36 36 36 37 38 42 44 46 47 45 45 48 53 54 52 52 53 53 52 50 48 50 49 48 57 52
14 16 19 22 24 25 27 28 29 32 35 36 38 40 40 40 40 40 40 40 39 39 39 39 40 40 43 45 48 47 47 49 51 51 50 55 54 49 50 53 56 60 53
18 20 22 24 25 26 25 25 25 25 26 27 30 32 36 39 42 43 44 44 43 42 41 40 40 40 38 39 40 44 50 50 49 48 48 51 51 50 50 53 61 49 48
19 22 24 25 26 25 25 25 22 20 20 21 22 24 26 28 31 35 40 44 45 45 44 44 45 45 44 43 42 42 43 47 50 48 47 47 47 49 49 50 45 41 43
21 23 24 24 22 21 22 21 17 15 17 18 20 21 22 21 23 26 30 32 35 39 41 44 44 44 44 45 44 43 42 41 45 47 47 47 46 45 45 44 48 40 43
21 22 22 21 17 16 15 14 13 14 16 18 19 19 20 21 23 25 31 31 29 27 31 37 39 44 44 44 47 47 51 43 41 42 44 44 44 43 42 42 42 44 44
16 18 21 21 16 14 13 12 13 14 16 18 20 21 23 23 24 25 27 27 28 27 27 23 22 27 33 40 42 48 43 44 36 36 38 39 39 40 37 44 44 49 48
15 17 19 16 15 14 11 11 12 15 17 20 20 19 21 21 20 22 22 20 20 24 26 28 28 29 28 22 23 31 25 27 30 28 31 31 31 35 40 38 44 41 36
14 16 15 12 11 11 11 11 12 15 17 18 16 13 14 12 13 19 21 20 20 21 23 24 25 23 23 24 30 33 27 29 27 25 24 30 33 43 33 38 28 29 26
15 15 16 12 11 10 11 12 14 15 16 16 13 12 16 18 17 12 11 17 15 18 20 22 20 19 15 19 17 20 18 22 22 23 24 26 28 29 25 22 19 25 30
13 15 15 16 12 10 9 11 13 14 15 13 10 12 14 10 10 10 10 13 12 9 11 15 14 15 9 14 11 6 6 12 9 12 14 14 10 11 17 22 26 31 34
12 13 15 17 11 6 9 9 10 14 14 10 7 6 8 7 9 9 10 11 8 6 8 10 8 8 6 8 6 5 4 3 3 7 11 15 17 21 24 26 29 34 37
11 13 15 15 10 5 6 7 8 11 5 5 7 4 5 5 7 10 12 13 14 12 11 11 10 9 9 8 8 7 7 9 11 14 17 20 23 26 28 32 34 36 38
10 11 12 12 5 4 7 8 9 11 9 6 9 9 10 10 10 9 9 10 11 9 9 9 8 8 8 8 8 10 12 15 18 21 24 27 30 32 34 34 33 28 24
12 9 10 9 6 5 5 6 7 8 8 7 7 7 6 5 5 6 7 7 8 7 8 8 8 9 10 12 15 18 20 24 27 29 30 31 31 29 27 24 20 17 15
12 14 10 8 6 4 3 3 3 3 3 4 3 3 2 2 3 3 4 5 6 6 7 9 10 12 15 17 19 21 24 26 27 28 27 25 23 22 19 16 13 13 13
11 13 13 7 6 5 4 4 2 1 1 1 1 1 1 1 1 3 4 5 6 7 8 10 13 16 19 21 24 27 29 30 30 28 25 23 21 19 15 13 13 13 12
11 10 12 9 8 7 7 6 5 4 4 4 3 3 3 3 3 4 5 6 7 10 12 15 17 20 23 25 27 28 30 30 29 26 23 21 19 17 15 14 13 12 12
13 8 11 12 9 7 8 7 7 7 7 6 5 5 5 5 5 6 6 8 10 12 15 18 21 23 25 27 28 28 30 30 28 25 22 20 18 15 15 15 13 13 14

GFSMW_700_spd_060.txt.gz
Wind_Speed
22 25 33 36 37 36 36 36 37 37 37 37 38 39 37 36 35 36 37 38 40 38 36 35 33 35 37 37 37 36 37 36 35 35 34 37 36 37 34 33 31 29 28
22 29 34 34 34 36 36 36 36 38 39 41 40 42 46 45 41 41 41 42 43 42 41 40 39 37 39 39 40 36 38 39 37 38 35 38 39 37 37 36 34 32 30
30 32 32 31 32 33 34 34 34 35 35 37 39 39 44 46 43 38 39 40 42 45 44 45 44 42 40 41 41 41 39 40 39 39 38 39 41 38 37 37 37 36 34
31 31 30 31 31 30 31 31 30 30 30 30 31 32 35 41 41 39 36 36 36 37 42 47 47 46 45 44 44 43 42 43 44 42 41 41 44 43 41 38 37 37 37
29 28 25 26 26 25 26 26 27 27 25 26 28 30 31 33 37 38 39 37 37 38 37 37 42 48 50 51 49 48 50 50 50 48 46 44 44 45 43 41 39 39 38
21 20 19 20 20 20 21 21 22 23 23 23 24 26 26 27 29 30 32 33 33 33 34 35 37 40 44 47 50 52 54 56 55 55 52 49 46 45 45 44 42 42 41
16 17 17 19 19 20 20 22 23 24 25 26 27 29 30 31 31 32 33 33 33 32 31 34 35 38 42 44 44 45 45 47 53 55 56 53 49 48 47 46 45 45 44
14 15 15 16 17 18 19 22 24 26 28 30 31 32 34 35 35 34 34 34 34 34 35 35 37 37 39 39 43 45 46 47 45 48 48 51 50 50 50 49 48 46 47
14 14 15 17 19 21 22 25 27 28 28 30 31 32 34 35 36 36 37 37 38 38 38 37 40 39 38 37 39 41 44 46 48 48 44 43 43 47 48 48 48 49 50
15 15 18 20 22 23 24 24 25 25 26 26 26 27 28 30 31 33 34 35 36 38 39 41 39 40 41 38 38 39 40 41 42 42 43 45 44 43 44 44 45 47 48
14 16 19 21 22 23 23 23 23 23 23 22 22 22 24 26 26 26 27 27 28 31 34 37 39 40 41 43 42 42 43 42 42 41 39 38 40 43 43 42 42 43 44
16 19 20 20 21 21 20 20 20 19 19 19 20 21 23 23 24 25 23 23 24 27 28 29 29 29 33 38 40 42 42 40 39 39 39 35 35 37 39 40 41 43 41
16 17 17 18 20 19 18 16 15 15 16 18 19 19 20 22 23 24 24 24 25 27 29 30 29 27 25 20 22 28 36 46 39 42 43 43 35 35 35 36 36 40 42
14 14 16 18 19 17 16 15 15 16 17 18 18 19 20 20 22 22 22 22 22 25 25 25 25 26 28 31 32 31 26 29 34 43 44 48 40 36 35 31 32 34 37
13 14 16 17 16 14 14 14 14 15 16 17 18 18 16 16 17 19 19 19 20 22 23 21 21 23 25 26 29 27 28 26 25 22 31 25 23 26 26 30 31 35 33
11 13 15 16 14 12 12 12 13 14 15 16 15 15 14 15 17 22 23 19 17 18 18 17 18 20 23 23 18 22 23 22 23 25 20 23 19 23 21 30 30 34 31
12 13 15 15 15 13 12 12 12 14 15 15 13 12 12 15 16 15 10 11 17 15 15 13 11 17 18 17 15 21 20 22 19 19 19 17 17 17 18 19 20 17 20
11 13 14 15 15 12 11 10 10 12 14 15 9 9 8 10 10 10 8 11 12 10 9 10 13 11 13 14 11 11 10 6 8 8 6 9 11 12 13 15 19 25 27
10 12 13 14 12 7 6 8 9 11 12 11 4 4 6 9 7 4 6 9 10 12 12 12 13 14 14 15 13 11 11 10 10 11 13 14 17 19 21 24 26 30 32
9 9 11 11 9 4 6 6 6 6 3 2 3 1 1 2 6 6 8 9 11 11 10 10 10 10 10 11 12 13 13 15 16 17 19 21 23 25 28 31 32 33 34
8 8 9 7 6 5 5 4 4 5 3 5 6 7 6 5 4 5 7 8 8 8 8 8 9 10 11 12 13 15 18 20 23 25 26 26 27 28 28 27 26 24 21
10 8 9 6 5 3 3 3 3 1 3 4 4 3 3 3 3 4 5 6 6 6 7 9 10 12 15 17 19 21 23 25 26 27 26 25 24 23 21 20 19 17 15
10 11 13 7 5 4 3 3 4 2 1 1 0 1 0 1 1 3 4 5 5 6 7 10 12 14 16 19 20 22 23 25 28 28 27 25 23 21 19 18 16 14 14
10 12 11 9 6 6 6 5 6 5 3 4 4 4 3 2 2 3 4 5 6 7 9 11 13 16 19 21 23 25 26 27 29 30 28 26 23 21 19 16 14 14 14
12 13 9 9 9 7 8 8 7 7 6 6 6 6 7 6 5 5 5 7 7 8 10 13 16 19 21 24 26 28 28 29 29 29 28 26 23 21 18 15 15 15 14
15 15 10 10 10 10 7 8 8 8 9 9 8 9 9 9 8 7 7 8 9 10 12 15 18 20 23 25 27 28 29 29 29 29 28 26 23 20 18 16 16 15 15

GFSMW_700_spd_063.txt.gz
Wind_Speed
30 32 33 33 31 33 34 32 34 36 37 36 35 33 32 30 31 32 32 33 34 35 36 36 35 33 33 33 33 33 34 34 33 36 38 38 36 35 33 34 35 33 31
28 30 31 32 33 33 34 35 34 33 35 36 38 39 38 36 35 36 37 38 39 39 41 41 40 38 37 37 37 38 37 37 37 37 38 41 39 37 34 34 34 35 35
32 33 33 32 29 29 30 32 32 32 32 34 34 35 36 39 39 38 37 38 39 40 42 44 43 43 41 41 41 41 41 39 40 41 41 43 43 39 36 35 35 35 36
32 33 32 29 28 30 30 30 30 30 29 30 31 31 32 34 35 36 37 37 35 35 36 38 39 39 39 41 43 43 44 44 45 44 45 44 44 44 44 39 38 38 37
34 35 33 31 29 29 28 27 27 27 27 27 27 28 29 32 34 34 34 35 33 31 32 35 37 38 39 39 39 41 43 46 48 51 51 49 50 48 48 47 43 42 40
30 28 27 26 23 23 22 23 23 23 23 22 24 26 27 29 30 30 30 29 30 31 31 31 32 33 35 37 37 38 38 41 44 47 47 49 52 51 49 49 47 43 42
25 21 19 19 19 19 19 20 21 23 23 24 26 27 29 29 31 31 32 32 32 32 34 34 32 31 32 34 35 37 38 41 45 46 48 47 46 46 46 47 48 47 44
19 17 16 17 18 18 19 21 22 23 24 26 27 29 31 31 32 33 34 34 34 34 34 33 35 34 34 34 36 37 37 39 41 43 44 45 43 44 45 46 47 48 45
14 14 15 15 17 17 19 20 23 24 26 27 28 28 29 30 30 31 31 32 34 35 35 35 36 36 37 37 37 38 37 38 40 41 41 41 42 43 43 47 45 41 44
16 15 15 17 20 21 23 24 26 26 27 28 26 26 26 26 26 26 27 28 29 29 29 29 30 33 36 37 37 38 38 40 41 42 42 42 40 38 37 41 43 46 40
15 16 17 19 21 22 24 25 25 26 26 26 24 24 23 23 23 24 24 25 25 24 23 24 27 29 30 31 29 28 32 36 39 42 42 40 38 36 35 35 36 40 39
13 15 18 21 21 21 22 23 22 22 21 22 21 21 20 21 22 23 23 23 22 23 24 25 25 25 26 25 24 25 24 25 26 28 38 39 31 31 31 30 31 31 34
14 17 18 18 17 19 21 21 20 18 17 17 17 18 19 20 21 21 22 23 23 23 24 24 24 24 25 24 26 28 31 31 30 30 28 28 35 36 36 31 27 28 34
14 13 14 15 15 17 17 17 17 16 16 16 16 17 19 19 19 18 18 17 18 19 20 22 23 22 21 21 23 27 29 29 27 27 24 20 25 30 41 47 44 35 32
11 11 13 14 14 15 14 13 15 14 13 14 15 17 18 18 17 15 17 19 19 18 20 20 19 17 18 18 19 23 20 21 19 15 18 23 19 15 20 30 26 28 29
11 11 12 13 14 14 13 12 12 13 14 15 16 16 16 15 14 15 14 15 12 13 18 14 11 11 13 13 17 12 15 20 16 16 16 18 24 21 18 19 19 21 22
12 11 12 13 14 14 14 13 13 14 14 15 14 14 13 12 11 9 11 13 12 15 14 7 5 10 11 12 11 9 10 15 14 14 14 16 15 12 10 13 16 16 17
11 11 12 13 13 14 12 10 12 13 14 15 14 15 11 8 7 7 8 7 5 4 6 8 9 11 14 15 14 13 13 13 13 13 12 11 14 16 17 17 18 19 21
9 10 11 12 13 13 8 8 10 11 12 14 10 7 6 7 3 3 4 5 6 9 9 9 9 9 9 9 9 11 14 15 16 18 18 20 21 23 24 25 25 26 27
8 8 9 9 9 6 3 4 5 6 7 6 5 5 4 5 7 4 5 4 3 6 6 6 7 7 8 10 12 14 16 17 19 21 22 22 22 22 23 23 23 23 22
7 6 7 7 7 5 4 2 2 3 2 1 3 6 7 6 4 4 3 2 2 3 3 4 5 7 8 10 12 14 16 18 20 22 24 24 24 24 23 21 20 19 18
10 8 8 8 7 7 7 4 1 1 1 2 3 3 3 3 4 3 2 1 0 0 1 3 6 8 11 13 15 17 18 20 22 23 24 25 24 23 22 20 19 18 16
10 10 10 11 8 8 9 6 3 3 4 3 2 3 3 3 3 3 3 3 3 3 4 6 8 10 12 14 15 17 19 21 23 24 25 25 25 24 23 21 20 17 15
10 11 11 12 10 8 10 9 6 6 6 5 5 6 5 5 5 6 6 5 5 6 6 7 9 11 13 15 18 20 22 24 25 25 25 25 25 24 23 22 20 17 17
12 12 13 10 10 9 10 10 8 8 8 8 8 8 7 8 8 8 9 8 8 9 9 9 11 12 14 17 20 22 24 25 26 27 26 26 25 24 23 21 19 18 18
17 14 15 13 10 11 12 8 8 8 9 9 11 11 10 10 11 11 11 11 11 11 11 11 13 14 16 18 21 24 26 26 26 26 26 26 26 25 23 21 20 19 19

GFSMW_700_spd_066.txt.gz
Wind_Speed
31 31 32 32 30 28 29 31 32 30 30 32 32 32 31 30 31 31 30 30 30 31 32 33 33 33 35 33 33 33 34 35 34 35 37 36 36 36 35 35 34 31 30
30 32 34 33 32 33 32 32 33 34 35 35 35 35 34 33 32 32 33 33 34 35 36 37 39 39 38 37 36 37 37 37 36 38 38 42 42 39 36 36 36 34 32
30 32 32 31 30 29 28 31 32 33 35 37 37 37 37 35 34 33 33 35 38 40 42 42 44 43 43 43 40 38 39 40 40 39 40 44 46 45 41 38 37 37 37
34 34 34 34 33 30 29 29 30 32 33 33 34 35 35 34 33 33 34 35 36 37 38 38 39 39 38 39 37 36 37 38 41 42 43 43 46 46 49 49 43 40 40
32 33 35 35 32 31 31 31 30 30 30 30 30 31 32 32 32 33 34 34 34 35 35 35 35 37 37 38 40 40 40 39 39 43 44 44 45 49 49 51 50 50 50
34 34 33 32 32 32 31 29 28 27 26 27 27 27 28 30 31 31 31 31 30 31 31 29 29 30 31 32 32 32 34 36 39 39 41 43 45 46 46 48 51 49 51
32 33 32 30 27 26 26 25 25 25 24 25 25 26 27 29 30 31 31 32 32 33 33 34 34 33 32 32 33 33 34 35 37 37 38 41 43 43 44 47 48 49 47
24 23 24 24 22 22 23 23 23 24 25 27 27 27 28 29 30 31 32 34 35 36 36 36 35 35 34 33 35 36 38 39 39 39 41 43 44 43 41 42 43 46 45
19 19 19 18 18 19 20 20 20 22 24 25 26 28 29 30 30 30 31 31 31 32 33 34 35 34 33 32 31 34 36 35 33 35 37 39 42 45 43 39 37 38 40
18 18 17 16 17 17 19 20 23 25 26 27 28 29 29 29 29 28 28 27 27 28 28 27 26 26 27 28 29 31 31 30 29 30 32 35 38 42 46 45 38 35 33
17 16 16 17 18 20 22 24 26 27 28 28 28 29 28 28 27 26 25 25 25 24 24 24 24 23 24 26 28 28 26 25 27 29 31 34 35 36 39 41 36 34 32
17 16 17 18 20 22 24 26 27 27 27 26 26 26 25 25 24 23 23 22 23 23 23 24 24 25 25 26 26 25 24 25 27 30 33 35 35 35 34 32 32 30 29
15 16 18 19 20 21 21 23 25 25 25 23 22 21 21 21 21 21 21 21 20 22 22 22 21 22 23 25 23 22 24 25 27 28 30 31 31 28 23 25 31 34 31
16 17 19 18 17 17 19 20 21 21 21 20 19 19 19 20 20 20 19 19 18 19 17 18 16 19 22 21 19 20 20 24 24 25 25 25 24 25 22 22 22 23 29
16 16 16 14 14 16 17 18 18 17 18 18 17 17 17 18 18 18 17 18 18 16 14 15 14 18 17 15 14 16 20 14 16 22 20 18 15 16 21 20 19 21 19
13 14 15 15 15 15 17 17 17 15 15 16 16 16 17 16 15 14 15 15 15 13 12 13 14 13 11 13 14 13 11 10 11 12 11 15 11 12 14 12 16 18 22
15 15 16 16 15 16 16 17 17 16 15 15 15 15 15 14 12 12 12 11 10 10 8 4 3 4 3 2 4 6 6 8 10 12 13 13 12 15 19 18 18 18 16
17 16 15 15 15 15 15 14 12 13 13 14 14 14 15 12 10 9 9 7 4 1 2 5 7 6 6 6 4 6 7 8 10 13 15 17 18 19 21 22 23 23 24
16 15 14 14 13 13 12 10 9 10 11 12 13 12 8 8 7 5 4 4 4 4 4 5 4 2 2 3 4 6 8 10 12 14 16 19 20 21 22 23 23 23 23
15 14 12 10 10 10 8 7 7 7 8 8 7 7 8 7 6 6 5 4 3 4 3 2 1 2 3 6 8 10 12 14 16 18 19 20 21 22 22 22 22 22 21
14 12 9 9 9 8 7 7 6 6 5 4 4 4 6 8 7 6 6 5 4 4 3 4 5 5 6 8 10 12 14 15 17 19 21 22 23 23 23 23 22 22 21
14 12 10 10 10 9 9 8 7 6 5 4 5 6 7 7 7 7 6 5 6 6 6 7 7 8 9 11 12 14 16 17 19 20 21 23 23 24 23 23 23 22 21
8 11 12 12 12 11 11 10 9 8 8 6 6 6 8 9 9 8 8 8 8 8 8 9 10 11 12 13 14 15 16 18 19 21 22 23 23 23 23 23 23 22 21
11 11 11 13 12 11 11 11 11 11 10 9 9 9 10 10 10 10 10 9 9 9 11 11 12 13 14 14 15 16 18 20 22 23 24 23 23 24 24 24 24 23 22
13 12 12 13 14 12 10 11 12 13 12 12 11 11 12 11 11 12 12 11 11 12 13 14 15 15 15 16 16 17 19 22 24 25 25 24 24 25 24 24 24 24 24
21 17 15 15 15 14 12 11 11 12 13 14 13 14 13 13 12 13 14 14 13 13 15 16 17 17 17 18 18 19 21 23 25 26 26 26 26 26 26 25 26 25 25

GFSMW_700_spd_069.txt.gz
Wind_Speed
31 31 31 32 32 30 28 28 28 29 28 28 29 30 30 30 29 29 28 28 28 28 29 29 30 31 32 32 32 34 35 34 34 36 37 37 37 37 35 34 33 32 31
37 34 32 31 31 30 30 31 31 31 31 31 33 33 33 33 32 31 31 32 33 33 34 34 34 35 37 37 37 39 40 41 38 39 38 42 41 40 38 36 35 34 34
39 37 34 33 33 33 33 32 32 34 35 35 35 36 36 35 34 34 33 34 36 37 39 38 39 40 42 43 43 43 41 41 39 37 38 41 44 43 43 41 39 38 39
30 30 30 31 30 30 30 30 31 31 31 32 34 35 36 36 35 35 34 33 36 38 39 39 40 40 41 41 40 38 38 38 38 39 38 38 41 44 48 45 43 43 39
31 31 31 32 33 34 34 32 32 33 34 34 34 34 34 34 34 34 33 33 34 34 34 35 35 36 36 37 37 36 36 37 38 38 38 39 40 41 42 48 44 43 44
34 30 29 32 33 33 33 34 34 33 33 32 31 31 32 32 33 33 33 33 33 33 32 31 31 30 30 30 30 31 32 31 32 34 34 35 37 39 40 43 46 47 45
34 34 30 31 34 34 33 33 32 30 29 28 28 29 29 30 31 31 31 31 32 33 33 34 34 34 34 33 32 33 33 33 34 34 36 37 38 37 39 42 44 47 48
34 29 28 30 29 29 27 26 25 26 27 27 27 28 29 31 31 32 32 32 33 34 34 36 36 36 37 36 36 35 35 37 38 37 37 37 38 38 38 40 42 46 48
24 24 25 25 24 23 22 23 25 25 26 27 27 28 28 29 30 30 31 32 32 32 33 33 33 34 34 34 35 35 35 34 34 35 34 33 33 33 35 36 38 41 45
23 23 22 21 21 21 21 21 22 23 24 26 27 28 29 30 31 31 31 30 30 30 29 28 29 29 29 29 29 27 27 28 31 31 28 28 29 31 34 37 39 41 45
18 17 18 19 19 18 19 21 23 25 26 28 28 29 30 30 31 30 29 29 28 28 27 27 27 27 25 25 23 23 24 26 26 26 26 27 29 31 34 36 37 41 31
15 16 18 19 18 19 21 23 25 26 27 28 28 28 28 28 27 27 26 25 25 25 27 27 26 26 25 24 23 23 24 24 24 25 26 28 28 30 33 33 35 37 28
16 17 18 18 18 20 22 23 24 25 26 27 27 27 25 24 23 22 22 22 24 24 23 24 24 23 22 22 22 21 21 22 22 23 26 27 29 26 26 26 29 27 26
16 17 16 18 19 20 20 21 22 23 24 24 24 23 22 20 20 20 21 22 23 22 21 22 22 20 18 19 20 18 18 19 21 23 17 25 25 19 19 23 25 22 23
15 15 17 18 18 18 18 20 21 21 22 22 21 20 20 19 19 20 20 21 20 20 19 18 15 15 16 16 14 13 16 19 19 17 18 17 16 18 15 16 18 18 20
14 15 17 17 17 16 17 19 21 21 20 20 19 18 18 19 19 19 18 18 17 16 16 14 14 15 12 11 11 12 11 8 5 5 7 8 8 9 15 20 22 23 23
14 15 15 16 17 17 17 19 20 20 20 19 18 18 18 18 18 16 15 14 13 13 12 8 5 5 4 2 1 0 1 4 7 9 10 12 14 15 17 20 21 23 23
16 17 17 16 17 18 18 18 19 18 16 16 17 17 18 18 17 15 12 11 10 7 5 4 5 4 4 3 2 4 6 8 10 12 13 15 16 17 19 20 22 23 23
19 18 18 16 16 17 17 15 13 13 13 14 15 16 16 14 11 10 9 7 6 6 7 6 6 4 3 4 6 8 10 12 14 15 16 18 19 19 20 22 23 24 24
21 19 17 16 15 15 14 12 10 9 10 12 14 14 11 9 9 8 7 7 6 7 7 6 6 6 6 7 9 11 13 15 17 19 20 21 22 23 23 23 23 24 24
19 17 16 14 14 12 12 12 11 9 9 9 7 8 9 9 10 9 8 8 7 7 7 7 7 8 9 10 12 14 16 17 19 20 21 21 23 23 23 24 24 24 25
16 17 16 14 13 12 12 12 11 10 8 7 6 6 8 10 9 10 9 9 9 9 9 9 10 11 12 13 15 16 18 19 20 21 22 24 24 25 25 24 24 25 25
13 12 14 16 15 14 13 13 12 11 9 7 7 8 8 9 10 10 11 11 11 11 11 12 12 13 15 16 17 18 19 20 21 22 23 24 25 25 25 24 25 25 25
17 14 12 12 15 15 13 11 12 12 11 10 10 10 11 11 12 12 13 13 13 13 13 14 15 15 16 17 18 19 20 21 22 24 25 25 26 25 26 26 26 26 26
13 14 14 14 15 15 15 13 11 12 13 13 12 12 13 14 13 14 15 15 15 15 15 15 17 18 18 18 19 20 21 22 24 25 25 26 27 27 27 28 28 28 27
16 17 18 18 17 17 18 16 12 12 13 15 14 15 16 15 15 17 17 18 18 17 17 17 18 20 20 20 21 21 22 23 25 26 27 27 28 29 29 28 28 28 28

GFSMW_700_spd_072.txt.gz
Wind_Speed
23 23 22 22 22 23 23 25 26 25 26 26 25 24 24 26 27 27 27 28 28 28 28 28 28 29 31 31 32 33 33 33 34 38 38 38 37 36 35 35 32 30 31
28 27 25 25 26 27 27 26 27 27 28 27 27 28 29 30 29 29 30 31 32 33 33 32 33 34 35 35 35 37 38 40 40 41 41 42 39 35 33 33 32 32 32
34 35 34 34 32 30 30 30 30 30 30 31 31 32 32 32 32 33 33 34 34 35 35 35 36 37 38 38 39 40 42 41 38 36 37 40 41 40 39 37 36 34 33
38 40 39 38 36 34 31 30 31 31 31 30 30 30 31 32 33 33 34 35 35 35 36 36 37 37 38 38 38 39 40 40 38 35 34 36 39 40 43 42 38 38 36
25 23 24 28 28 28 29 30 31 31 31 31 32 33 33 34 34 34 34 35 36 36 35 36 36 36 37 37 36 35 36 35 35 34 35 34 35 35 37 41 39 39 39
34 32 30 29 29 31 32 33 34 34 33 34 34 34 33 33 33 33 32 33 34 35 34 33 33 32 33 33 33 33 33 34 34 35 35 35 36 36 38 41 41 40 38
42 42 39 34 32 30 30 32 33 33 33 34 34 33 32 31 31 32 32 32 32 33 33 33 34 34 34 36 36 36 35 35 34 33 32 33 35 37 38 39 39 39 38
39 37 34 34 35 32 32 33 33 32 30 29 28 29 29 30 31 31 31 32 33 33 34 34 35 35 36 37 37 37 36 32 31 33 33 34 35 35 35 35 34 36 38
28 31 32 33 32 30 29 28 27 26 26 26 27 28 29 30 30 30 31 31 32 33 33 34 34 33 33 33 33 34 35 35 34 33 31 31 32 32 31 29 31 34 39
24 27 25 26 27 27 25 23 23 24 25 26 27 27 28 29 29 30 31 31 32 32 32 31 30 30 30 30 30 30 30 30 28 27 27 29 30 29 28 28 30 33 36
16 19 20 21 22 21 20 21 22 23 24 26 27 28 29 30 31 31 31 31 30 29 29 28 28 28 28 28 27 26 25 24 24 25 27 28 27 26 27 27 28 30 31
15 17 18 18 19 19 19 20 23 24 26 27 28 29 29 29 29 29 29 28 27 26 26 26 26 26 26 26 26 25 24 23 24 25 25 23 23 26 26 26 24 25 29
14 15 15 16 17 18 19 21 23 25 26 26 26 27 27 27 26 26 25 24 23 23 24 25 25 24 23 22 20 19 20 20 22 21 21 21 22 20 24 21 18 20 15
14 15 17 15 16 17 20 21 22 23 24 24 25 25 25 24 23 21 21 21 22 22 23 23 23 23 23 21 18 18 18 17 17 17 18 19 20 23 20 15 17 20 20
18 15 16 16 16 18 20 20 20 21 22 23 23 23 22 21 20 20 20 19 20 20 20 20 20 19 17 15 15 14 13 13 14 12 9 10 11 11 10 12 16 20 20
16 14 15 16 17 19 19 19 19 21 22 22 23 21 19 19 18 18 18 18 17 17 17 17 17 17 15 14 12 10 9 5 3 5 8 10 12 12 14 16 18 20 22
14 14 13 16 17 18 18 19 20 21 23 22 22 21 19 19 19 18 17 16 15 15 14 15 13 9 8 5 2 1 1 4 7 9 12 14 16 17 19 20 21 22 23
15 16 16 16 16 17 18 19 20 21 22 20 18 18 18 18 18 18 17 15 13 13 12 10 8 5 4 3 2 3 5 7 10 13 15 17 18 20 22 23 24 24 24
17 16 17 17 17 17 17 18 17 17 16 16 16 17 17 17 17 16 13 12 12 9 8 8 7 6 5 4 5 7 9 11 13 15 17 19 21 22 23 24 25 25 24
18 18 20 19 17 17 17 16 15 15 14 13 14 15 16 16 14 12 11 11 10 9 9 8 9 8 7 7 8 10 12 14 15 17 18 20 21 22 23 24 25 25 25
21 23 20 18 16 15 15 14 14 14 13 12 12 11 11 11 12 12 11 11 10 10 10 10 10 10 10 9 10 12 13 15 17 18 20 21 22 23 24 25 25 24 24
20 19 17 18 15 15 14 14 13 13 13 12 10 8 9 8 9 10 12 12 10 10 10 11 12 12 12 12 12 14 15 17 18 19 20 21 23 24 24 24 24 24 24
18 17 16 16 18 17 16 15 14 13 13 11 10 9 8 9 10 11 12 12 12 11 12 13 14 14 15 14 14 15 16 18 19 20 20 21 23 24 24 24 24 24 24
18 17 17 14 12 14 15 14 14 13 13 13 12 11 11 11 11 12 13 14 13 13 14 15 16 17 16 16 17 17 18 19 21 22 22 23 24 24 25 25 26 26 27
22 25 23 15 14 15 16 17 16 16 12 13 14 14 14 13 13 13 14 16 15 17 16 17 18 19 18 18 19 19 19 21 22 23 23 25 26 27 28 28 30 30 29
13 13 15 16 17 18 18 18 19 18 15 13 15 16 16 16 16 15 16 17 18 19 18 19 19 20 20 21 21 21 21 22 23 24 25 26 29 30 30 31 33 33 31

GFSMW_700_spd_075.txt.gz
Wind_Speed
24 24 25 24 22 20 20 20 21 22 22 23 23 23 22 23 24 26 27 27 27 27 27 27 27 28 29 30 32 33 34 34 35 37 37 38 39 38 33 32 33 30 29
26 24 23 22 21 20 19 21 23 25 25 25 25 25 24 25 26 27 27 29 29 30 30 31 32 32 33 34 35 36 37 38 37 40 42 42 38 34 30 29 28 29 31
27 25 23 23 22 21 22 21 23 25 25 25 26 27 28 28 29 30 31 31 31 32 33 34 34 34 35 35 35 35 37 38 37 37 39 40 39 35 33 31 31 29 27
30 28 27 28 28 29 29 30 30 30 30 29 29 29 29 29 29 30 31 32 32 33 34 34 35 34 36 36 35 35 35 37 36 36 33 34 35 37 38 35 31 28 28
24 24 29 33 35 34 31 29 29 29 29 29 29 29 30 30 31 32 33 34 34 34 34 34 34 34 34 34 33 33 34 34 35 35 33 32 33 34 36 37 37 34 35
27 24 24 25 25 24 24 26 28 30 30 31 31 32 33 33 33 33 33 33 33 33 33 33 33 32 32 32 32 34 34 35 35 35 32 33 34 33 34 36 37 36 34
35 33 33 30 27 25 26 28 30 32 33 33 33 33 33 33 33 33 32 31 31 31 31 31 31 32 32 32 34 35 36 36 36 35 34 35 35 35 35 36 35 35 31
36 40 39 38 36 33 33 33 32 32 33 34 34 33 32 31 31 31 31 31 31 32 32 32 33 33 33 33 34 34 35 35 35 35 34 33 33 34 33 32 32 31 29
23 28 39 41 38 35 33 32 33 34 31 30 30 30 30 30 30 31 31 31 31 31 32 32 33 34 34 33 33 33 32 32 32 32 31 30 29 27 28 29 28 28 29
21 20 26 33 35 35 32 31 31 30 29 27 26 27 27 28 29 29 29 30 30 31 32 33 33 33 32 31 31 31 30 29 29 27 26 24 23 25 26 26 27 26 27
17 16 25 27 28 27 26 26 25 25 24 24 25 26 26 28 29 30 30 31 32 32 32 31 30 29 28 28 28 28 27 27 26 24 23 23 24 25 24 25 26 25 24
15 17 21 22 22 23 22 20 20 21 22 23 25 27 28 29 30 31 31 30 30 30 28 27 26 26 26 25 25 24 24 23 23 22 22 23 23 23 22 24 21 21 18
11 15 16 16 17 18 19 19 20 21 23 24 25 26 26 27 28 28 28 28 27 26 24 23 23 23 23 23 22 22 19 18 17 18 19 19 19 20 21 22 21 14 15
11 13 15 14 15 17 17 18 20 21 22 23 23 24 24 25 25 25 24 24 23 22 22 22 22 21 21 20 19 17 16 15 14 14 14 14 12 12 12 12 12 14 15
16 15 15 14 15 15 17 19 20 20 21 21 21 22 23 23 23 22 21 20 20 20 20 19 18 17 17 16 13 11 10 9 10 9 4 5 7 10 11 11 12 15 16
19 17 16 16 14 16 18 19 20 19 21 22 21 22 23 24 22 20 19 19 18 18 17 16 15 14 13 11 10 7 6 3 2 1 4 7 9 11 12 13 15 17 19
17 18 15 14 15 16 17 17 20 20 21 22 22 22 23 23 22 20 18 18 17 16 15 14 13 11 7 5 4 5 4 2 2 5 7 10 12 14 16 18 19 20 21
16 18 17 15 15 15 16 18 19 20 20 21 21 20 19 19 19 18 18 17 16 16 14 13 9 7 7 7 6 4 3 3 6 8 10 12 14 17 17 18 19 20 20
16 19 19 17 16 16 17 17 18 19 19 18 18 18 18 18 18 17 16 16 15 14 13 11 9 10 8 6 5 5 5 6 8 10 12 14 15 16 18 19 20 21 21
20 19 17 17 17 18 17 17 17 17 17 16 16 16 16 16 17 16 14 12 12 11 11 11 10 9 8 8 8 7 7 9 10 11 12 14 15 16 18 19 21 21 21
21 19 19 20 21 19 18 16 15 14 15 15 15 15 14 13 11 12 12 10 9 10 10 10 9 9 10 10 9 9 10 11 12 12 13 14 16 17 18 19 20 21 21
19 20 21 22 21 20 18 16 14 13 14 14 14 13 12 10 8 8 8 9 9 9 10 10 11 12 12 11 12 12 13 14 14 14 15 15 16 18 19 20 21 22 22
17 18 18 19 20 21 18 17 14 13 13 14 13 12 11 8 7 8 9 10 10 11 12 13 14 13 13 14 14 15 16 16 15 16 16 16 18 19 20 21 22 23 24
15 18 20 20 19 18 18 17 15 13 13 13 13 12 11 10 10 11 11 12 13 14 15 15 15 15 15 16 16 17 17 18 18 17 17 18 18 20 22 23 24 25 26
19 18 18 22 22 19 20 18 16 15 16 14 14 13 14 14 14 14 14 15 15 16 17 17 17 17 18 18 18 18 19 19 19 19 19 20 21 22 24 25 25 26 27
12 12 12 13 14 14 13 14 16 17 17 16 15 15 15 17 17 17 17 17 17 19 19 18 19 18 18 20 20 20 21 21 21 20 20 22 23 24 25 27 28 28 28

GFSMW_700_spd_078.txt.gz
Wind_Speed
33 33 31 28 26 25 24 23 23 22 22 22 22 22 22 24 25 26 27 29 29 29 28 28 28 28 28 29 31 33 34 34 36 38 38 38 37 38 39 37 33 30 30
34 34 33 28 26 25 25 23 21 20 21 22 22 23 24 25 26 27 28 29 29 29 30 31 31 33 33 33 34 35 36 36 36 38 40 40 37 37 34 33 28 26 27
38 36 34 30 27 25 25 24 21 21 21 22 23 24 26 26 27 29 30 30 31 32 33 33 34 35 36 35 35 36 36 37 36 35 37 39 38 35 33 28 25 27 28
40 37 35 32 29 27 25 25 24 24 23 25 27 28 29 29 29 30 31 31 31 32 32 33 34 35 35 35 35 35 36 37 35 35 33 33 34 34 35 33 28 28 27
41 38 36 34 32 30 28 28 28 28 28 28 28 29 29 30 30 31 32 33 33 34 35 35 35 34 34 34 33 33 33 34 33 32 33 32 32 33 34 36 33 30 28
46 38 39 36 34 33 31 31 31 31 30 29 29 30 30 31 32 33 34 35 35 35 34 33 33 32 32 32 31 31 32 33 34 34 35 33 33 34 35 35 34 34 33
42 39 39 34 29 27 27 28 29 27 27 29 31 32 34 34 34 35 35 35 35 34 33 33 32 32 32 32 33 33 34 34 35 35 35 35 35 35 35 34 33 34 33
44 44 39 31 29 27 25 26 27 28 29 30 31 32 34 35 35 35 34 34 34 34 33 33 33 33 32 32 32 33 33 33 34 34 34 34 34 33 33 33 33 31 29
28 41 35 37 36 34 33 33 33 34 34 34 34 34 32 32 31 32 33 33 33 33 33 33 33 32 32 33 33 32 32 32 31 31 31 31 30 30 29 28 27 29 28
23 27 38 38 43 41 38 38 37 36 35 34 33 32 30 29 29 30 31 32 32 32 32 33 33 34 34 34 33 32 31 31 30 30 29 27 26 24 24 24 25 25 25
24 26 27 31 34 38 39 37 36 35 33 32 30 29 28 28 28 29 30 31 32 33 33 34 34 34 33 32 31 30 29 29 29 28 27 25 23 22 23 23 23 22 24
22 19 24 25 31 33 34 32 30 30 29 28 26 26 27 28 29 30 31 32 32 32 33 33 32 31 30 29 28 26 26 26 25 24 22 21 20 20 20 20 21 20 20
6 13 19 20 25 26 26 26 26 25 25 25 25 26 28 29 29 29 29 30 30 30 30 29 28 27 26 25 25 25 24 23 21 18 16 16 16 15 16 17 17 16 13
9 7 12 16 19 21 21 21 21 22 23 24 25 25 26 27 28 28 28 29 29 28 27 26 25 24 24 23 23 21 19 17 16 15 13 12 11 8 6 7 7 7 9
11 12 14 18 18 18 19 19 20 21 22 23 24 25 25 26 26 26 27 27 27 25 24 24 23 22 22 21 19 16 14 12 11 10 9 7 5 6 7 8 10 11 13
11 13 19 21 20 19 19 20 20 21 22 22 23 25 26 26 26 26 25 24 23 23 22 22 21 20 19 17 15 13 11 10 8 7 5 6 6 8 10 12 13 15 17
23 20 21 22 20 19 19 18 20 19 20 22 22 25 26 27 26 25 24 23 23 21 21 20 18 18 16 14 11 10 9 9 7 5 5 7 8 11 12 14 15 16 16
25 23 23 23 21 20 18 18 19 19 20 22 22 22 23 24 23 22 22 21 22 21 20 18 17 15 12 11 11 10 8 7 6 6 7 9 11 11 12 13 15 16 17
19 21 23 23 22 21 18 18 18 19 20 21 21 20 20 20 20 21 20 20 20 20 19 17 15 13 12 12 11 9 8 7 6 7 9 10 11 12 12 13 15 16 17
19 23 24 23 21 21 20 20 20 19 20 20 19 19 18 19 20 20 20 18 18 17 16 15 14 15 14 13 11 9 8 8 8 10 10 11 12 13 14 15 17 18 18
23 22 22 21 22 21 21 21 21 20 18 18 18 18 18 17 17 16 16 16 15 14 14 14 15 15 13 12 10 9 10 10 11 11 12 12 13 14 15 16 18 19 19
23 23 23 22 23 24 24 23 22 20 17 16 15 17 16 15 14 13 14 15 14 13 14 14 14 14 13 12 12 12 12 12 13 14 13 14 16 16 17 18 20 20 21
16 19 21 22 23 24 23 23 24 22 17 16 16 14 15 14 13 12 11 12 13 14 14 15 15 15 14 14 14 14 15 15 15 16 15 17 19 18 19 20 21 23 24
14 16 18 21 22 22 24 25 24 21 18 16 14 13 14 15 13 12 12 13 14 15 15 16 16 16 16 16 15 16 18 18 18 18 18 19 21 21 21 22 23 24 26
14 17 22 17 17 18 21 22 23 21 20 19 17 16 14 14 15 15 16 16 17 17 17 18 17 17 18 17 18 19 20 20 19 20 20 21 22 22 23 24 24 25 27
15 16 14 14 15 17 18 23 25 23 19 17 17 17 17 14 16 17 18 18 18 19 20 20 20 20 20 20 20 20 21 21 21 22 22 23 23 24 25 25 26 26 27

GFSMW_700_spd_081.txt.gz
Wind_Speed
33 32 33 32 32 31 29 27 23 22 22 21 20 19 20 22 23 25 25 26 27 27 27 28 28 29 29 29 30 31 31 32 34 35 34 35 35 36 35 35 34 33 32
31 35 33 33 34 32 30 29 27 26 26 25 24 22 22 22 23 25 26 27 27 28 28 29 30 31 32 32 33 34 36 36 34 36 36 38 35 34 37 32 30 29 26
27 37 36 36 34 34 31 31 28 26 25 23 22 21 22 24 25 27 28 29 30 30 31 31 33 34 34 34 34 36 37 37 35 34 35 34 35 35 34 32 28 29 28
29 33 38 36 37 36 33 30 28 27 24 22 22 23 24 26 28 29 30 31 32 32 32 32 33 34 35 36 36 36 36 37 36 35 33 32 34 34 35 34 31 28 27
51 42 37 38 37 38 35 33 30 29 26 24 25 26 27 29 29 31 31 32 32 32 33 34 35 36 36 35 34 34 34 33 33 32 32 31 32 33 35 37 33 31 29
46 50 44 43 41 41 40 37 34 32 29 28 29 30 30 30 30 31 32 33 34 34 35 36 36 36 35 34 33 32 32 32 32 32 33 33 33 34 33 32 35 33 33
31 35 51 51 44 42 41 39 35 32 31 31 32 31 31 30 32 33 34 35 36 36 36 36 35 35 34 33 33 33 33 33 34 33 34 34 34 35 33 35 34 34 32
26 38 45 47 46 43 40 39 34 32 32 33 32 30 30 31 32 32 34 36 37 37 36 36 35 34 34 34 33 34 33 32 33 33 33 33 32 31 30 28 33 31 29
25 29 37 47 46 44 39 34 32 31 28 28 30 31 33 33 33 34 34 34 34 35 35 35 35 34 34 33 33 33 33 33 32 31 31 30 29 28 28 27 26 26 25
24 29 41 45 38 36 34 34 32 31 32 31 34 35 35 35 35 34 34 33 34 34 34 34 34 34 34 34 34 34 33 32 31 30 29 29 28 27 25 24 22 22 24
20 23 31 33 45 52 45 38 37 36 36 36 36 36 36 36 36 35 35 34 34 33 34 34 35 35 34 34 33 32 31 30 29 28 28 27 26 25 23 22 21 22 22
10 20 23 26 28 43 42 38 39 43 39 37 36 35 35 33 33 32 32 33 33 34 34 34 34 34 33 32 31 29 28 27 26 26 26 24 23 21 19 19 19 19 20
9 8 18 23 27 30 31 37 38 37 36 34 33 32 30 30 30 31 32 32 32 33 33 33 32 31 31 29 28 27 26 26 25 25 23 21 18 16 16 15 15 13 12
20 11 11 16 21 24 26 27 29 30 30 30 28 28 28 29 29 30 30 31 31 31 31 31 31 29 28 27 26 25 24 23 23 21 19 17 15 13 10 8 8 7 8
22 17 13 12 15 17 20 22 23 24 25 25 25 26 27 27 27 28 29 30 31 31 31 29 28 26 25 24 24 22 21 20 18 16 14 12 10 8 8 8 9 11 12
27 21 19 17 16 19 21 21 22 23 24 24 25 25 26 27 27 26 28 29 31 31 30 28 25 24 22 22 22 20 18 17 15 13 11 9 9 8 8 10 11 13 14
23 25 20 18 21 22 22 22 23 23 22 23 24 24 26 26 27 29 27 27 29 29 29 26 24 22 21 20 19 17 16 14 12 11 10 8 8 8 10 11 12 13 15
25 31 30 24 25 25 24 24 22 21 22 22 23 23 25 26 26 27 27 25 25 25 25 24 23 21 19 19 16 15 13 13 12 10 9 9 9 10 10 11 12 13 15
25 25 29 30 28 26 25 23 21 19 20 21 22 23 23 24 25 25 25 25 25 24 23 22 21 20 18 16 16 15 14 13 11 10 10 9 9 9 11 11 11 13 15
24 21 21 24 26 26 24 23 22 21 21 22 22 23 23 23 23 24 24 25 24 23 22 21 19 19 18 18 17 15 14 12 11 11 10 11 11 11 11 12 13 14 16
23 20 20 22 24 23 23 23 22 22 23 23 22 22 22 20 20 21 22 23 21 21 19 18 18 18 18 18 17 15 14 13 12 12 12 12 13 13 13 14 14 16 18
21 23 21 22 23 23 23 23 24 25 25 25 24 20 18 19 19 21 21 19 17 16 16 17 17 18 19 18 17 16 15 14 14 14 14 14 15 16 15 16 17 18 20
14 19 21 23 24 24 23 25 26 26 27 27 26 21 19 21 20 17 18 16 14 13 12 14 16 17 18 18 18 17 17 17 16 16 16 16 17 18 17 18 19 20 22
11 13 17 20 22 24 26 28 29 27 28 27 28 21 18 17 17 18 17 14 11 12 12 14 16 18 18 18 19 19 19 18 18 18 18 19 19 20 20 20 21 22 23
14 15 18 20 23 23 26 26 24 24 23 24 24 21 21 20 19 17 17 16 16 16 16 18 19 18 19 21 20 20 20 21 21 21 20 21 21 22 22 22 23 23 25
17 20 19 19 18 22 20 20 21 23 24 28 26 23 21 18 17 18 18 18 19 19 18 19 19 21 21 22 22 22 23 23 23 23 23 23 23 23 24 24 25 25 26

GFSMW_700_spd_084.txt.gz
Wind_Speed
24 29 32 32 31 30 30 27 26 24 23 23 23 22 21 20 19 17 18 20 22 23 23 24 24 25 25 26 27 29 30 31 31 33 34 34 33 32 32 31 29 27 26
23 29 32 33 31 33 30 28 26 26 24 23 21 21 21 21 21 21 22 23 25 24 24 25 26 27 28 29 30 32 33 34 33 35 37 38 34 30 31 30 28 28 28
26 29 32 34 34 34 35 34 32 30 28 26 26 26 23 22 20 21 23 23 24 26 27 28 29 30 31 31 32 33 35 36 35 35 35 36 36 33 29 30 29 30 29
36 29 34 35 35 35 36 35 34 32 30 28 27 23 22 22 23 22 25 26 27 28 29 30 31 31 32 33 34 35 36 36 35 33 32 33 33 32 31 30 28 30 28
42 36 39 37 38 38 36 35 35 34 31 28 26 23 22 23 24 27 29 29 29 29 29 30 32 33 34 35 35 35 34 34 34 32 30 30 31 32 33 34 30 28 30
38 43 42 48 40 39 39 39 37 35 32 30 28 26 26 26 28 28 29 30 30 30 31 32 34 35 35 35 35 34 33 33 33 32 32 33 33 32 32 33 31 26 30
28 37 42 43 50 38 39 39 39 38 37 35 33 30 29 28 29 29 30 31 32 32 32 34 35 36 35 35 34 34 34 34 33 33 33 32 32 32 32 31 31 27 33
21 27 34 45 46 45 40 41 41 40 39 37 35 33 33 31 30 30 31 31 33 32 32 33 34 34 35 35 36 36 35 34 32 33 33 32 32 31 30 30 29 26 28
26 26 27 36 41 44 42 46 47 43 41 38 38 34 31 28 27 30 32 32 33 33 33 33 33 34 34 35 35 35 34 34 32 33 32 32 31 29 28 28 27 26 25
17 27 26 28 37 41 38 40 42 39 37 38 35 32 29 31 33 35 38 36 36 36 36 36 36 35 35 34 35 35 33 34 33 32 31 29 28 27 27 26 25 24 22
13 19 21 28 27 31 41 38 35 34 31 31 32 32 34 33 35 37 37 37 38 37 37 37 37 36 36 36 35 34 34 33 31 31 28 27 26 25 25 24 22 21 20
5 10 17 23 24 29 30 35 48 37 31 31 34 34 33 35 37 37 37 36 35 34 34 35 35 35 35 35 34 33 32 31 29 27 26 25 25 23 22 20 18 18 18
2 8 11 19 23 22 26 27 29 37 38 36 37 35 28 37 37 35 34 33 33 33 33 33 33 33 33 33 33 32 29 28 26 26 25 24 22 20 17 15 15 14 12
20 18 13 13 17 20 22 25 26 29 34 35 34 33 33 33 34 36 33 31 31 31 31 31 30 31 32 31 30 29 27 25 24 23 22 20 17 15 13 11 9 8 7
27 26 17 15 17 17 18 22 25 25 25 27 27 28 28 29 30 30 29 29 30 30 30 30 29 30 29 28 27 26 25 23 21 19 18 16 13 12 9 9 8 9 9
36 37 29 24 23 19 17 18 18 19 22 24 25 25 27 28 28 28 28 28 30 31 31 31 30 28 27 25 24 23 22 21 19 16 14 12 10 9 9 9 10 10 11
29 27 28 24 25 22 20 18 19 20 21 22 23 24 26 26 26 27 28 28 29 29 30 30 29 26 24 23 22 21 19 19 16 15 13 11 11 10 10 10 10 11 12
25 23 26 25 26 23 23 23 23 21 20 21 22 22 23 24 24 25 26 26 26 27 27 27 26 23 23 22 21 19 18 16 14 14 12 12 11 10 10 10 11 11 11
21 22 25 27 32 32 27 26 26 22 21 20 20 21 22 23 24 25 25 25 25 26 26 26 25 22 21 21 19 17 15 15 15 14 13 12 11 11 11 11 10 11 12
22 22 22 23 27 30 30 26 25 22 21 21 22 21 23 23 23 24 24 24 25 25 25 25 24 22 20 20 18 16 16 16 14 14 14 12 12 12 12 11 12 13 13
18 19 22 21 22 19 20 23 23 22 22 23 22 23 23 23 23 24 23 24 25 24 23 21 21 20 17 17 17 17 17 16 15 15 14 14 13 13 13 14 14 15 15
14 17 21 18 17 17 20 22 22 23 23 24 24 25 24 24 23 21 21 20 21 21 21 19 17 16 16 17 18 17 17 16 16 16 16 15 15 15 16 15 15 16 17
9 13 18 19 18 20 22 22 22 23 25 26 26 26 26 25 25 23 22 24 20 18 16 15 14 14 15 16 17 18 19 18 17 18 18 17 17 18 18 18 17 18 19
8 8 12 17 19 21 22 22 24 26 27 28 27 26 27 24 27 20 18 18 17 15 12 10 10 12 14 17 19 20 20 20 20 21 20 20 20 20 20 19 19 20 20
12 12 12 14 16 19 21 24 26 28 28 26 23 22 21 21 22 21 20 18 16 16 16 15 14 15 17 20 20 21 22 23 23 22 22 22 22 22 21 22 21 21 22
17 17 18 19 19 19 22 22 27 23 21 22 24 25 25 23 22 20 18 16 17 18 17 18 19 19 18 20 21 23 24 24 24 23 23 24 24 23 23 23 23 24 24

GFSMW_700_spd_087.txt.gz
Wind_Speed
21 24 27 27 28 28 28 28 27 25 26 25 25 27 25 23 22 22 21 20 19 18 18 19 20 21 21 23 24 25 27 28 29 31 31 31 30 30 28 28 29 30 28
30 25 26 27 30 30 28 27 26 27 25 23 23 22 22 20 20 19 18 20 20 20 20 21 22 23 24 25 27 28 29 30 29 33 35 36 32 30 29 28 27 27 26
36 35 28 29 30 31 29 28 26 30 27 24 24 23 23 21 20 19 20 21 19 19 23 24 25 26 27 28 29 30 31 33 32 33 36 36 34 31 29 28 27 26 28
34 36 37 35 33 32 31 30 31 32 31 29 29 28 26 26 26 33 29 24 22 27 27 27 28 28 29 29 30 32 33 35 34 33 32 33 32 32 33 26 27 29 30
33 42 41 43 39 35 35 31 33 33 34 33 30 28 29 27 25 24 23 22 25 25 27 28 29 30 31 32 32 33 34 35 34 33 31 30 30 30 32 33 27 29 32
30 31 44 37 42 43 34 36 35 36 36 35 33 32 30 28 26 25 24 25 26 26 27 28 29 31 32 33 34 34 34 34 34 33 32 32 32 30 32 32 30 29 27
17 26 42 44 40 40 40 33 35 38 38 35 33 31 30 29 29 29 28 28 27 26 28 29 31 31 32 33 34 34 34 34 34 33 33 32 32 31 30 31 30 30 30
20 22 27 38 45 42 42 41 39 36 40 38 36 34 33 32 31 30 30 30 28 27 28 31 33 33 33 33 33 33 34 35 34 33 34 32 32 32 31 30 29 29 29
22 22 23 25 33 43 40 41 41 38 34 37 38 36 35 33 31 31 30 29 27 26 29 32 34 35 35 35 35 35 35 35 34 33 33 33 32 31 31 30 28 28 28
15 23 25 25 26 26 30 34 37 43 38 39 37 35 35 35 31 27 30 30 33 36 39 39 39 38 38 38 37 36 35 36 35 34 32 32 31 30 29 28 28 26 26
8 14 20 23 25 24 28 33 33 33 38 39 33 36 36 37 37 35 33 32 31 35 38 38 39 38 38 37 36 35 34 33 33 33 31 30 29 27 27 25 25 25 23
6 5 11 19 22 20 23 25 31 33 31 30 30 34 30 31 30 27 26 27 30 34 35 38 36 35 35 35 34 34 33 32 31 30 29 28 26 25 25 24 23 21 20
12 6 4 7 12 19 20 21 25 30 32 37 43 42 35 36 28 31 41 40 32 30 36 35 33 33 34 34 33 32 31 31 30 29 27 27 26 25 23 21 19 17 15
17 18 20 16 11 12 16 21 23 26 30 30 34 36 31 33 33 30 32 34 34 35 39 37 34 33 32 32 32 31 30 29 28 27 26 25 24 22 19 18 16 13 10
27 26 25 22 18 15 17 20 22 23 25 26 27 29 29 28 29 32 31 30 31 32 32 32 32 32 32 32 31 30 28 27 26 24 23 21 19 17 16 14 13 11 10
31 33 34 32 30 25 21 20 19 18 18 19 20 22 23 25 27 26 26 28 29 29 30 31 30 30 31 31 30 29 26 25 23 22 20 18 16 14 13 13 12 10 10
34 36 36 33 26 26 24 22 19 18 18 18 19 20 21 23 24 25 25 26 27 28 29 29 29 30 29 28 27 27 25 23 21 20 17 15 15 15 14 13 12 11 10
25 26 30 29 26 24 23 23 22 19 19 19 18 20 21 21 22 22 23 24 26 27 28 28 28 28 28 25 24 24 22 21 19 18 15 16 15 13 12 12 11 10 11
21 23 24 25 24 24 23 23 19 20 21 20 19 20 20 19 19 21 23 24 24 25 26 26 26 26 26 24 22 21 20 19 16 15 15 16 13 13 12 11 12 11 11
23 23 22 22 25 26 25 29 27 22 21 21 20 21 19 20 20 22 23 23 24 23 23 23 23 24 22 20 19 18 17 16 15 15 16 14 13 14 12 12 12 12 12
21 22 22 22 23 24 22 19 20 22 23 22 22 21 22 22 21 21 23 23 23 23 23 23 23 21 19 17 16 15 15 15 15 15 14 13 14 14 13 14 14 13 14
16 17 19 18 18 17 17 17 17 21 22 22 22 22 24 23 24 24 23 24 24 25 23 22 20 18 17 16 15 15 16 15 15 15 16 15 15 15 15 16 15 16 16
13 12 12 15 16 14 15 17 18 20 21 22 22 24 25 25 28 27 26 23 22 22 19 19 16 15 14 14 14 15 16 17 18 17 17 16 17 17 18 17 18 18 18
13 11 9 12 15 17 19 20 21 22 23 23 25 27 27 29 28 27 25 24 22 21 20 17 15 12 11 12 15 17 17 18 19 19 19 19 19 20 20 20 20 21 20
15 13 13 13 13 17 19 22 24 25 26 28 28 28 27 25 25 20 21 19 20 20 18 17 16 15 13 15 15 18 19 19 20 20 20 20 21 21 22 22 22 22 23
16 15 16 18 19 19 19 21 24 26 28 29 26 22 24 25 26 26 22 21 19 18 16 17 19 18 20 21 18 20 21 21 21 20 21 22 22 23 23 23 23 24 24

GFSMW_700_spd_090.txt.gz
Wind_Speed
20 21 24 25 27 27 27 29 26 27 28 28 29 28 26 26 24 23 24 23 23 22 18 16 17 19 20 20 21 22 24 25 26 28 28 28 29 27 27 27 27 28 28
24 23 21 24 26 26 26 27 26 27 26 26 24 23 23 25 24 25 24 24 24 20 17 18 18 19 21 23 24 26 27 27 28 30 33 34 31 30 28 25 24 24 26
28 25 24 25 28 29 28 28 27 28 26 25 24 24 25 25 23 22 21 19 19 21 22 19 19 23 24 25 27 28 29 30 29 31 34 36 35 32 30 27 27 26 27
33 32 31 28 22 26 29 30 29 28 28 29 28 24 23 21 21 22 21 22 21 24 31 23 27 25 26 27 28 30 31 32 31 31 33 33 34 32 33 28 27 30 30
26 29 36 34 35 32 27 29 31 30 30 28 27 26 25 26 29 33 34 31 27 28 27 24 25 26 27 28 29 31 32 34 34 34 32 32 33 31 32 33 27 31 32
29 33 28 31 33 33 33 31 28 31 31 31 31 32 31 31 28 29 29 27 24 24 24 24 26 27 27 28 30 32 33 34 35 34 33 32 33 31 32 33 31 31 33
25 30 31 35 32 39 38 33 34 28 31 33 33 33 33 35 30 29 28 27 25 24 24 30 27 27 27 28 30 33 34 34 34 34 33 33 33 32 31 32 32 33 32
18 22 27 27 32 32 38 35 33 34 33 28 32 34 32 31 31 30 27 27 26 28 27 31 28 27 27 27 31 35 36 36 36 35 34 33 33 33 32 32 32 32 33
14 17 21 23 25 28 36 38 35 36 37 38 35 32 41 39 31 28 28 29 29 29 28 27 27 30 35 36 36 38 39 39 38 37 36 35 34 34 33 32 32 32 32
17 18 17 18 20 20 23 29 33 37 38 36 33 34 35 35 37 37 33 34 31 28 29 31 32 32 34 35 38 39 39 39 38 36 35 34 34 33 32 31 30 29 29
10 10 11 15 20 22 23 23 24 26 27 27 31 34 34 34 38 32 32 37 41 34 36 34 32 31 31 33 37 38 36 36 36 34 34 32 31 31 31 29 28 27 27
4 5 5 10 17 21 20 20 22 24 25 30 28 31 32 32 37 37 39 33 27 29 29 29 34 31 29 33 35 36 35 34 34 33 33 32 30 30 29 28 27 26 25
10 11 7 6 6 9 17 21 23 24 25 29 29 25 20 28 30 33 34 32 29 34 36 38 43 39 33 37 37 34 34 33 33 33 31 31 29 28 27 26 25 24 23
17 16 16 16 17 14 12 15 22 23 25 30 32 29 32 36 33 37 28 33 32 29 31 33 34 37 37 37 34 33 33 32 32 32 31 29 28 26 24 23 22 20 18
23 25 25 22 22 20 20 18 19 22 25 27 30 32 33 33 36 38 39 34 31 31 31 32 33 33 31 31 32 33 32 32 31 30 29 27 25 24 22 20 18 17 16
32 31 31 32 33 33 30 27 25 23 23 24 25 27 27 23 23 24 26 28 28 29 30 30 31 30 30 31 30 30 31 30 28 27 26 24 22 21 20 17 16 15 14
29 33 35 35 33 31 28 25 24 25 24 22 23 22 21 21 20 23 24 25 26 26 27 28 28 28 28 28 29 29 28 28 27 24 22 22 20 18 17 16 15 15 14
29 30 30 30 30 29 28 26 23 25 24 23 21 20 19 19 20 21 22 23 24 25 26 26 26 26 27 28 27 28 27 25 23 21 20 18 18 17 16 15 15 14 13
27 28 28 28 30 28 25 23 23 23 24 23 21 19 19 20 20 20 21 21 23 24 24 25 25 26 26 27 27 27 25 22 20 18 17 16 15 15 15 14 14 13 12
27 26 26 29 30 26 25 23 24 23 20 20 21 21 22 21 20 20 21 22 23 23 24 24 25 26 27 28 25 23 21 21 18 15 14 14 14 13 14 14 14 12 12
23 24 25 26 27 27 27 23 23 25 25 26 26 25 23 22 22 22 23 24 24 25 23 22 22 23 23 23 22 21 19 18 16 14 14 13 14 15 15 14 13 14 14
21 21 21 22 22 24 25 23 21 20 21 25 27 26 23 22 23 24 25 25 26 27 24 23 23 22 22 20 19 17 16 15 14 13 14 15 15 14 14 16 17 16 16
20 20 18 17 16 16 19 21 23 20 21 23 25 23 22 23 25 26 27 29 30 28 23 22 20 19 19 17 16 16 15 14 14 18 17 17 17 20 19 18 17 17 17
18 18 17 15 14 15 18 18 19 23 25 26 25 22 23 24 26 26 30 30 27 24 23 23 21 18 16 15 14 14 15 16 16 15 18 18 17 18 19 19 19 19 19
19 17 16 16 14 14 17 19 22 25 26 24 22 23 25 27 29 29 28 26 23 22 20 21 20 17 16 17 16 13 14 17 19 19 20 21 23 22 22 21 21 21 21
23 19 16 13 15 17 16 19 20 20 23 24 26 28 28 28 28 26 26 26 27 24 21 20 19 17 18 18 18 18 19 19 21 20 20 21 21 21 22 22 23 22 23

GFSMW_700_spd_093.txt.gz
Wind_Speed
25 25 25 26 25 26 27 29 26 23 23 23 26 28 22 18 23 26 24 24 25 27 26 25 23 19 18 18 18 18 20 22 24 26 25 25 25 26 26 26 25 25 25
20 18 20 25 25 26 25 26 28 27 29 31 28 26 26 29 30 27 26 25 26 27 28 25 21 20 19 19 19 20 22 24 26 29 31 31 27 28 28 26 24 25 25
20 21 20 20 23 27 27 26 27 28 28 28 30 30 31 29 31 29 28 26 27 25 23 21 18 16 17 20 21 22 24 25 26 29 32 34 33 32 31 30 28 27 28
22 22 21 20 22 26 26 27 27 27 28 29 28 28 28 27 25 25 24 22 20 22 24 25 21 24 27 25 23 24 25 25 26 29 32 34 35 34 34 32 32 31 30
23 24 27 25 24 23 21 24 27 27 27 28 27 29 28 26 24 26 25 24 24 26 27 19 25 23 22 29 27 26 25 26 26 29 32 33 34 33 34 33 31 32 33
23 23 24 28 32 33 31 31 27 25 27 28 30 30 27 27 27 28 31 30 29 28 28 27 23 23 25 27 28 27 27 27 26 30 32 32 33 32 33 35 33 32 33
24 25 28 29 27 28 32 32 33 31 29 26 28 29 29 29 30 33 33 32 30 27 28 23 23 24 28 27 32 30 27 28 32 34 34 34 34 34 33 33 32 34 34
22 26 27 28 28 27 29 29 29 32 31 31 28 25 25 29 32 33 35 30 25 25 31 30 22 24 27 30 28 30 30 33 34 36 36 37 37 36 35 33 33 34 36
10 16 19 22 23 24 24 27 25 24 27 28 29 27 29 32 30 37 43 38 37 27 21 26 27 29 29 28 30 32 33 35 37 37 36 37 38 38 36 35 33 33 35
12 13 15 17 18 21 21 21 20 25 29 32 33 33 30 29 29 31 36 42 39 25 28 28 26 29 30 28 29 31 35 35 35 36 36 36 36 36 36 35 33 32 32
10 11 12 12 15 16 19 18 20 21 23 26 27 28 27 26 26 29 34 32 38 43 44 44 34 33 36 38 38 38 35 34 36 36 36 36 34 34 34 34 32 31 30
4 4 5 6 9 13 16 18 20 21 22 22 22 22 25 26 28 28 28 32 25 25 40 45 48 40 34 33 36 36 33 34 37 33 34 34 33 33 33 32 32 31 29
10 9 9 8 8 8 11 17 20 22 23 26 25 25 28 26 27 29 26 21 21 14 23 21 29 25 26 32 32 33 33 36 37 33 32 32 32 32 32 31 30 29 28
16 16 14 14 16 16 14 12 12 15 21 25 26 27 32 31 30 28 29 29 27 20 25 30 29 32 32 31 30 31 32 32 32 32 32 32 31 30 29 29 28 26 25
26 26 24 25 22 20 20 19 20 21 20 20 24 27 31 32 27 31 29 29 32 30 34 28 30 29 29 30 30 30 31 31 31 31 31 31 30 29 27 25 24 23 21
35 36 33 33 32 30 29 29 29 29 29 27 24 26 29 31 32 31 31 33 28 25 26 26 28 29 30 30 30 30 31 31 30 29 29 29 28 26 24 22 21 19 17
32 33 32 31 30 29 28 28 27 26 29 30 29 26 26 26 26 25 24 23 23 23 25 26 28 28 28 29 28 29 30 29 28 28 27 26 24 22 21 18 16 14 14
28 28 28 29 28 28 28 28 27 26 26 29 30 26 24 22 22 22 22 22 23 24 25 25 26 27 27 27 27 27 27 27 27 26 25 23 21 18 16 15 14 13 13
24 25 25 25 27 28 29 29 27 26 25 27 27 25 24 23 22 22 23 23 22 22 24 25 26 26 26 26 26 28 28 27 26 24 22 19 18 16 15 14 14 13 12
25 26 27 27 27 26 30 31 27 26 24 25 23 24 24 23 23 24 23 22 21 23 23 25 26 26 24 24 24 25 25 25 24 21 19 17 15 15 14 13 12 12 12
27 27 26 26 26 27 29 30 28 26 21 23 25 27 26 25 25 25 23 23 23 24 25 27 26 27 26 26 26 26 24 23 21 19 17 14 14 13 11 11 13 16 14
29 28 27 26 24 24 26 27 26 23 25 27 31 29 28 28 29 27 25 24 25 26 27 28 28 28 25 23 21 22 21 20 18 17 16 13 12 14 15 16 15 15 14
31 30 28 26 23 21 21 22 23 26 28 28 27 27 30 32 32 30 26 26 25 29 30 31 30 28 24 21 20 19 18 17 17 16 16 15 16 16 14 13 14 15 18
38 33 27 24 21 19 17 19 18 23 28 29 27 26 29 32 31 27 25 25 26 28 31 26 25 23 22 20 20 18 16 15 16 17 17 20 20 18 17 19 21 21 21
37 28 26 23 21 19 17 17 19 20 23 26 31 30 31 30 27 26 26 26 29 30 28 26 22 22 20 21 19 17 16 14 16 17 17 17 19 20 20 21 21 21 23
34 28 27 25 21 20 16 16 18 20 23 26 28 26 23 19 21 24 28 31 31 27 27 28 25 22 21 20 19 18 17 17 18 19 20 21 22 23 25 25 26 25 25

GFSMW_700_spd_096.txt.gz
Wind_Speed
24 24 25 23 23 24 24 19 20 26 14 10 30 36 26 21 27 18 30 22 25 30 32 30 28 26 25 22 19 18 17 18 18 20 19 19 20 22 23 24 25 24 23
24 21 22 28 26 27 25 27 24 24 23 16 18 25 22 25 27 22 24 34 29 29 33 31 28 28 26 21 17 16 17 18 20 21 22 22 20 22 24 25 26 24 23
23 22 19 21 25 25 29 28 26 30 29 25 27 29 33 29 30 30 28 33 33 31 30 30 28 26 23 23 15 15 17 19 20 21 23 26 27 29 28 28 27 27 25
26 25 22 18 20 22 25 27 26 25 29 29 32 32 33 31 28 30 35 37 37 31 29 26 25 27 31 33 27 21 19 21 21 23 24 26 27 29 31 29 29 29 29
27 29 25 22 19 19 22 25 26 27 26 27 27 28 29 28 27 31 33 35 35 31 26 29 28 19 21 24 22 33 18 23 23 25 25 25 29 30 31 29 29 31 30
26 30 28 26 27 25 23 21 20 23 24 26 26 26 27 28 28 28 31 33 33 33 30 29 27 25 24 24 21 20 21 21 24 25 26 29 32 33 33 34 31 32 32
22 22 24 22 23 28 30 31 29 26 26 24 23 24 26 27 28 28 27 31 31 31 32 30 31 24 19 19 19 21 27 29 30 33 33 32 33 34 34 35 34 34 34
22 23 25 25 25 24 25 24 29 30 27 27 28 27 24 23 27 29 28 29 33 35 31 38 28 25 25 27 21 28 28 32 31 31 31 34 37 37 35 35 35 35 36
10 12 16 19 22 24 26 27 26 28 30 30 30 29 27 27 29 28 26 27 30 33 30 40 44 36 37 32 27 32 30 30 31 31 31 34 37 37 35 35 35 34 35
8 10 12 14 17 20 22 24 25 26 31 31 27 28 27 26 29 30 28 25 24 28 31 30 32 32 40 28 34 33 27 28 32 37 42 35 34 35 35 33 33 33 33
7 8 8 8 10 14 17 21 21 21 23 26 28 30 31 31 30 29 27 21 20 23 24 25 25 33 33 36 36 36 42 38 41 43 40 38 34 34 32 32 31 31 32
5 3 2 2 3 7 13 18 19 17 19 21 23 24 24 25 24 23 21 22 24 20 25 21 23 22 28 38 43 43 38 37 40 37 37 35 33 32 31 31 31 30 30
7 7 6 8 8 7 6 8 14 18 20 21 21 22 22 23 23 22 23 25 25 20 19 23 17 15 18 20 22 27 28 30 32 31 31 31 31 31 31 31 31 29 29
16 16 16 15 15 14 15 16 14 13 14 18 21 22 22 22 24 24 25 30 28 22 22 27 27 26 27 23 26 27 28 29 29 29 29 29 31 29 30 29 28 27 26
26 26 25 24 24 24 23 21 23 23 23 23 20 19 23 25 25 27 26 23 26 28 24 29 31 27 26 25 26 27 27 28 28 28 28 29 29 28 28 27 25 24 23
34 33 34 34 34 33 34 34 30 27 30 32 30 29 27 26 28 27 27 28 27 26 26 30 30 26 25 25 27 27 28 27 27 26 27 27 27 27 26 25 23 21 19
30 31 33 34 33 32 32 30 29 30 30 29 32 33 33 31 28 29 29 29 29 27 26 25 25 25 25 24 25 25 26 27 26 26 26 27 26 25 24 22 20 18 16
20 23 25 28 29 31 31 31 31 32 31 29 29 32 33 33 31 29 28 28 25 24 25 25 24 23 23 23 24 25 26 26 26 27 26 26 24 23 21 19 17 14 13
20 22 23 24 24 25 28 32 31 32 33 29 27 28 30 31 31 28 26 25 25 25 24 23 23 23 23 24 24 25 25 26 26 26 25 24 22 20 18 16 14 13 14
30 32 31 29 27 25 28 31 31 32 34 28 25 27 28 28 26 25 26 26 25 24 23 23 23 23 23 24 24 24 24 27 26 25 23 21 19 17 16 14 12 12 12
38 36 36 34 29 28 28 29 30 32 27 28 27 28 29 27 26 27 28 26 25 24 24 24 24 24 25 26 26 24 24 24 22 22 20 18 15 14 13 12 11 10 9
46 40 39 35 31 31 30 28 28 26 29 29 29 30 30 29 29 30 29 28 28 27 26 25 25 26 28 28 28 25 22 21 20 20 17 15 13 12 11 11 12 13 15
37 39 39 38 33 31 30 29 25 24 27 31 33 32 31 29 31 31 31 31 31 29 28 27 27 28 30 29 28 24 23 19 19 18 16 14 13 13 14 14 14 16 16
35 38 38 38 35 34 32 27 24 23 23 30 33 34 32 32 33 35 37 36 34 33 30 28 29 29 28 27 23 21 21 18 17 17 16 14 15 15 14 15 15 15 15
30 29 33 34 32 31 28 24 22 22 21 23 32 32 32 31 33 31 31 35 37 31 28 28 30 30 25 23 20 19 18 17 17 16 15 16 17 18 18 19 19 19 20
29 33 32 28 26 29 27 23 20 19 21 21 25 29 31 32 32 37 37 33 25 25 27 31 30 27 25 25 22 20 18 18 17 15 15 18 20 19 21 22 23 24 23

GFSMW_700_spd_099.txt.gz
Wind_Speed
29 26 21 22 41 37 37 30 29 23 18 12 35 39 35 29 24 20 20 20 23 21 23 27 29 29 28 27 28 25 21 20 17 15 15 15 14 16 17 18 19 19 18
25 20 16 19 15 17 25 27 22 21 18 7 12 20 42 39 23 34 29 29 26 31 27 27 30 30 30 30 28 24 22 18 17 16 16 16 15 16 18 19 19 20 19
25 21 15 16 19 21 20 19 17 23 22 15 15 18 24 35 32 28 28 31 27 27 27 26 27 30 30 28 26 22 16 15 16 16 17 18 18 20 18 21 23 23 22
23 19 20 21 21 21 19 16 20 21 26 28 28 24 27 35 36 35 33 34 34 31 33 32 32 32 30 27 30 27 28 23 19 17 18 19 20 22 24 25 27 27 25
21 21 20 21 22 20 21 23 26 24 24 19 22 26 30 29 23 23 29 30 32 37 37 42 34 32 31 33 36 36 28 38 31 17 19 20 21 22 27 28 31 31 29
22 20 20 21 21 20 21 21 23 26 26 25 26 26 28 28 32 31 29 28 30 33 32 35 38 26 32 28 20 23 24 14 25 21 27 28 29 30 29 30 32 33 31
26 22 24 25 24 23 22 21 21 21 23 24 26 26 25 24 25 26 26 27 25 25 27 32 31 33 24 18 24 27 19 17 20 23 27 32 33 32 32 33 34 35 33
25 23 24 26 27 28 29 29 28 28 27 26 25 24 22 21 23 25 26 26 26 26 27 31 32 32 38 34 38 30 28 32 25 27 30 31 33 32 32 35 37 37 37
18 17 19 23 25 25 25 25 27 27 29 34 32 29 28 26 27 27 26 24 24 24 26 27 22 21 21 21 21 23 17 26 36 36 33 35 32 34 37 36 36 38 38
10 12 14 15 17 20 22 23 24 25 27 28 31 34 32 32 31 30 30 29 29 27 26 24 26 28 28 28 27 25 25 28 31 32 34 40 38 39 41 41 41 36 34
4 6 9 11 13 15 18 20 21 22 24 26 29 32 32 31 31 30 29 29 29 29 29 27 29 27 24 22 23 25 27 30 32 34 39 44 43 43 39 36 35 33 31
5 6 5 5 5 9 12 15 17 19 20 21 25 28 29 31 32 32 31 30 27 25 25 27 25 20 22 22 22 24 34 40 41 39 35 32 30 31 31 34 32 31 31
4 5 5 6 5 5 4 6 13 19 21 21 22 25 27 28 28 28 25 22 23 25 25 22 17 18 18 16 19 20 21 20 24 26 28 29 29 28 29 29 29 29 30
12 13 13 13 14 13 13 13 13 14 15 17 22 25 26 25 25 26 25 25 24 24 27 25 24 22 22 23 26 23 22 24 26 26 27 28 27 27 28 27 28 29 29
20 22 24 24 24 25 24 23 22 21 20 22 23 21 20 21 24 25 24 25 25 25 24 24 26 26 26 25 24 23 24 25 26 26 26 27 26 27 27 27 27 28 27
24 25 26 26 27 27 25 25 27 28 28 28 29 30 30 28 27 25 25 26 26 26 25 27 26 27 26 23 22 24 25 24 24 24 23 24 25 26 26 27 27 26 24
26 25 27 29 29 29 28 28 27 29 30 29 30 31 33 33 32 31 30 28 29 29 29 28 27 25 23 23 24 25 25 24 24 23 23 24 25 26 27 26 25 22 20
23 25 26 25 25 25 28 31 31 31 31 32 32 32 31 31 31 32 33 31 30 30 30 29 27 25 24 24 25 23 23 23 24 23 23 24 24 25 24 23 21 19 16
30 32 32 31 30 28 29 30 30 31 32 33 31 29 29 30 31 32 31 32 31 30 29 28 26 25 24 24 23 22 22 23 23 22 23 23 23 22 21 19 17 16 14
41 42 42 42 41 37 36 36 33 33 32 32 31 31 31 31 31 30 29 30 29 28 28 27 25 25 24 23 23 24 24 24 23 23 23 23 22 21 18 16 16 14 13
43 45 46 45 46 45 42 40 38 35 35 33 32 32 34 33 31 28 29 28 28 28 27 27 25 25 25 25 24 24 24 24 23 23 22 21 20 17 16 14 14 13 13
42 39 38 42 44 43 44 42 38 32 34 34 32 31 34 34 31 30 30 31 30 29 29 28 27 26 27 26 25 24 25 24 24 23 20 19 17 15 14 13 13 12 12
43 38 39 33 38 42 42 42 35 32 30 32 32 31 34 35 32 33 32 32 31 30 30 30 29 29 28 26 27 27 27 26 24 21 20 17 16 15 15 14 14 14 14
42 42 41 38 34 36 33 41 35 31 29 29 30 30 33 34 32 34 34 33 32 32 32 32 32 31 29 27 27 27 27 21 21 20 18 16 16 16 16 15 16 16 16
36 37 36 36 34 34 31 32 37 33 28 27 27 28 33 35 36 33 32 33 32 33 35 36 35 34 32 29 27 28 24 21 20 18 16 16 17 17 17 17 16 18 18
34 34 35 36 29 29 26 28 29 28 26 24 24 24 31 34 38 36 32 32 32 36 34 37 37 34 30 28 28 26 25 22 20 19 17 17 18 19 20 20 20 21 21

GFSMW_700_spd_102.txt.gz
Wind_Speed
34 32 33 36 34 35 36 46 39 39 34 26 29 26 28 32 29 27 23 23 21 22 22 25 27 29 27 26 28 28 27 27 24 21 20 20 18 15 13 14 16 15 16
30 32 33 13 32 38 35 37 37 35 50 36 37 25 28 30 27 27 29 25 25 22 24 28 29 28 26 28 29 30 29 28 26 22 20 19 18 17 15 13 13 15 17
31 22 28 24 9 32 35 45 28 31 33 49 41 35 26 37 41 33 34 33 29 27 27 25 25 27 27 27 30 30 28 27 24 20 18 18 19 18 17 15 15 18 20
31 19 12 6 4 1 21 33 6 25 23 32 40 34 30 37 40 40 43 43 36 34 33 29 24 27 31 39 32 29 29 27 24 21 20 17 18 19 20 19 19 21 23
18 15 15 14 13 11 11 12 12 12 12 30 30 35 33 26 26 38 50 43 35 32 36 40 32 30 32 32 32 39 35 40 42 38 26 21 20 20 22 24 28 26 27
19 16 13 10 12 16 17 11 16 18 21 21 14 15 19 20 27 26 23 26 27 26 26 27 28 28 28 29 32 39 37 35 33 39 26 38 28 26 27 29 29 30 32
19 19 17 16 13 13 17 18 19 22 25 27 25 26 25 27 25 25 29 32 33 33 29 29 28 30 30 25 29 25 30 18 32 33 30 32 42 43 32 36 35 34 35
17 15 15 16 16 17 16 16 16 18 19 20 21 21 22 23 23 24 26 27 26 26 26 25 24 24 27 17 24 20 22 19 19 19 27 30 30 32 34 37 35 36 35
15 21 16 18 21 22 23 24 24 25 26 26 27 27 25 24 23 23 24 22 23 23 24 26 25 22 17 19 23 23 23 24 25 28 28 33 35 36 38 37 37 40 42
11 13 15 16 18 19 23 26 26 27 29 31 31 31 34 34 32 30 29 29 28 28 27 27 26 25 25 25 24 25 27 26 30 31 33 33 36 35 35 37 39 44 44
11 10 10 11 12 13 15 18 22 23 24 27 29 31 32 35 36 35 33 31 30 29 28 27 27 28 26 23 23 24 22 22 24 26 28 29 32 35 37 40 36 33 33
8 9 10 11 12 12 13 15 18 21 23 24 25 27 29 32 33 33 32 31 30 30 30 29 27 26 26 24 22 21 21 22 26 29 31 30 27 26 28 30 32 32 31
8 9 10 11 12 12 11 9 11 16 18 21 22 23 24 27 30 31 31 32 32 30 28 27 28 27 23 21 19 16 14 19 19 19 21 23 25 26 27 28 29 29 29
10 11 14 15 16 16 16 16 15 15 15 17 20 24 25 28 29 30 30 28 27 27 27 29 30 28 26 24 21 21 23 23 23 23 25 25 26 25 27 27 28 28 29
17 19 22 23 25 26 25 24 24 24 24 24 23 23 24 25 25 27 29 29 29 29 30 30 30 29 28 26 24 24 27 24 23 23 24 25 26 26 26 26 26 27 28
19 21 23 25 28 29 30 31 33 32 32 32 31 31 30 30 30 29 27 27 30 30 30 30 29 28 28 27 26 28 25 23 23 22 24 24 24 25 24 26 26 27 28
21 22 23 24 25 26 29 32 34 34 35 35 36 37 38 38 37 36 35 34 33 32 32 32 32 30 30 29 27 26 24 24 23 23 24 25 26 26 26 27 26 26 25
25 28 31 33 32 30 29 32 33 35 36 37 38 39 40 40 39 39 38 38 39 37 35 35 35 32 31 28 28 25 25 25 24 24 25 26 25 25 25 25 24 23 22
35 38 39 42 43 43 43 42 40 38 38 37 37 38 40 42 42 41 39 37 37 38 38 38 37 34 34 32 29 26 26 25 25 24 25 25 25 25 26 24 21 20 20
38 40 39 39 37 38 40 45 47 47 45 40 40 39 37 38 41 40 38 36 36 36 38 39 37 36 34 31 28 26 26 25 25 24 25 24 23 23 22 21 21 18 17
39 39 39 41 40 36 38 47 51 51 49 42 41 41 39 38 38 40 40 39 37 36 37 38 37 35 33 30 27 27 26 24 25 25 25 24 23 22 21 19 18 17 16
42 44 46 44 38 40 42 42 41 49 49 45 42 41 38 37 38 41 42 40 38 36 37 37 36 34 31 30 28 26 26 26 26 25 25 24 23 23 20 18 17 16 15
43 44 44 45 43 43 41 41 42 42 42 39 43 38 36 35 36 39 41 42 38 37 36 36 34 32 32 30 29 27 26 27 26 25 26 24 23 22 20 18 17 16 14
41 42 43 45 43 41 42 43 40 41 38 34 40 36 34 33 33 37 39 40 37 36 36 36 34 34 33 31 31 29 28 27 25 25 24 24 23 21 19 18 18 18 17
37 38 41 41 39 41 40 39 33 35 30 33 38 33 31 30 31 34 37 36 34 35 35 33 33 35 35 34 34 32 30 27 27 25 22 22 22 21 19 19 20 18 18
35 37 40 38 37 38 35 24 23 28 33 33 37 25 29 27 29 33 35 35 34 35 33 34 36 39 39 39 36 33 32 29 28 25 22 24 24 22 21 21 22 20 20

GFSMW_700_spd_105.txt.gz
Wind_Speed
26 28 33 28 29 26 33 40 44 43 38 31 33 35 36 36 36 35 32 30 29 30 26 24 24 24 24 24 25 25 25 25 25 26 25 24 23 20 18 17 16 13 13
26 30 32 37 27 28 35 39 41 44 41 36 32 31 29 30 35 35 33 31 31 28 26 26 24 21 23 24 25 26 27 27 27 26 26 24 23 23 19 18 16 14 13
24 24 32 32 32 27 33 44 43 48 46 36 33 31 30 33 30 34 34 33 30 30 29 30 24 24 22 24 24 25 27 28 28 26 28 24 21 22 22 18 18 16 16
21 26 16 17 26 28 23 45 42 57 43 38 32 37 31 30 33 34 32 31 30 30 31 32 32 28 27 27 26 30 36 30 30 30 28 27 23 19 18 20 20 18 21
20 19 21 6 8 6 20 33 33 29 32 55 39 35 33 36 30 35 40 37 35 32 39 39 39 40 36 29 31 25 26 32 34 35 32 30 36 35 23 35 30 27 23
17 7 7 7 12 10 10 13 8 4 3 17 34 55 45 37 41 33 33 38 36 43 42 45 45 47 39 27 24 18 21 15 25 34 22 30 36 34 27 36 33 32 35
15 12 9 4 2 2 8 6 5 11 13 14 17 9 16 18 47 48 47 54 53 52 41 39 34 24 28 30 27 25 25 22 20 17 23 28 28 29 36 34 40 40 44
14 13 12 9 6 4 6 10 13 14 16 18 23 22 22 23 26 27 23 21 20 21 32 39 39 29 24 25 23 22 20 21 17 23 22 23 26 34 34 27 26 31 31
14 10 7 7 9 8 9 11 11 13 14 14 16 18 19 19 18 21 21 20 22 25 26 27 26 26 27 27 25 22 20 21 21 24 27 30 31 34 34 32 32 33 34
7 12 13 11 12 14 17 19 20 20 20 21 23 25 26 27 28 27 26 25 24 24 25 25 25 26 27 25 23 23 21 23 26 29 29 31 31 31 33 35 35 35 35
16 14 14 14 14 15 15 17 19 19 21 23 25 27 28 29 31 32 31 32 32 31 31 29 29 28 28 27 26 25 24 26 29 29 29 29 28 30 31 32 32 32 32
9 8 8 9 10 11 12 13 14 18 21 23 23 23 24 27 29 32 32 33 33 31 29 29 28 29 29 27 26 25 23 23 23 20 19 21 22 25 26 24 25 24 27
6 4 4 5 6 7 8 11 13 15 17 19 20 22 23 24 26 27 29 30 30 29 31 31 32 30 28 27 25 23 21 18 15 14 16 17 18 21 23 24 25 25 27
3 5 9 10 12 14 15 15 15 16 17 17 19 22 25 26 26 26 27 29 29 30 32 32 31 28 28 28 25 23 22 20 20 20 20 20 22 23 24 25 25 26 27
11 15 17 18 21 23 24 25 27 27 26 26 26 26 26 26 27 29 30 31 31 29 29 29 29 29 30 30 27 27 26 24 26 25 23 22 22 23 24 25 25 25 26
12 15 18 22 24 27 28 29 31 32 34 35 36 37 37 36 34 32 31 29 29 30 31 31 31 32 32 30 31 30 30 28 27 24 23 22 23 22 22 23 25 25 26
13 16 19 21 23 24 26 28 30 32 35 37 38 39 41 42 43 41 40 38 36 33 32 33 34 34 34 34 33 32 30 28 27 25 24 23 22 22 23 24 25 26 27
27 28 29 29 29 30 31 33 34 35 36 36 38 40 42 44 45 45 47 47 45 42 40 39 37 38 38 37 35 33 32 30 28 26 24 23 23 24 24 25 26 26 25
31 32 32 33 33 34 34 35 34 37 40 42 43 43 44 46 47 48 48 47 46 46 46 44 43 43 42 41 39 36 34 32 30 27 24 23 24 25 26 25 27 27 26
37 40 41 40 41 40 39 39 37 36 40 48 48 50 49 51 50 48 48 46 45 45 46 46 45 44 44 44 43 39 37 34 30 27 25 24 25 25 25 26 26 26 25
38 38 38 39 41 43 43 42 39 36 36 36 38 48 51 54 48 46 47 46 45 44 44 46 45 45 46 44 42 40 37 34 30 27 26 27 25 26 27 26 25 24 23
41 42 43 42 40 40 42 43 43 42 42 41 42 42 40 43 53 48 45 45 45 46 42 44 45 44 45 44 41 39 36 33 30 28 27 26 26 26 27 26 24 23 22
45 44 43 42 41 42 43 44 44 42 47 46 47 49 44 40 42 51 46 45 43 47 47 43 44 43 43 43 40 38 36 33 31 28 27 26 27 27 27 26 24 22 20
41 40 40 40 39 40 42 43 43 45 47 46 43 42 42 37 39 44 47 44 43 45 46 46 42 41 42 42 39 40 35 33 30 29 28 27 27 26 27 25 23 21 20
39 37 36 38 38 39 40 39 39 40 40 36 32 28 29 34 38 42 42 42 41 42 42 40 38 37 39 38 41 36 34 34 33 32 28 28 27 25 25 24 24 22 21
37 35 33 35 37 38 40 39 35 34 32 29 27 26 32 32 34 41 31 37 39 39 39 38 38 36 39 43 38 37 38 37 35 30 28 29 27 25 25 25 24 24 23

GFSMW_700_spd_108.txt.gz
Wind_Speed
23 28 27 30 23 21 21 22 36 31 33 35 38 35 35 36 36 38 39 37 36 33 30 27 25 24 22 21 19 19 20 20 21 24 23 23 23 24 21 20 20 18 17
25 24 31 27 28 26 24 17 28 27 35 32 31 31 33 33 33 35 37 35 33 32 29 27 25 24 23 23 22 22 21 21 21 26 24 25 26 26 22 21 21 19 18
24 25 30 24 30 23 14 23 32 33 37 37 38 35 33 33 34 34 34 33 33 32 31 29 26 25 25 25 23 22 23 19 21 24 26 27 29 27 25 21 19 18 18
22 23 20 21 30 28 24 24 23 43 45 33 37 33 34 31 33 34 32 32 32 30 30 29 29 29 28 24 27 27 25 22 25 33 30 29 28 28 26 26 23 26 22
16 17 11 10 11 30 26 19 26 36 43 33 40 38 33 35 34 36 36 30 35 30 30 31 30 29 23 27 29 32 31 29 30 25 32 31 32 17 24 26 23 25 33
16 9 4 6 12 18 7 27 26 29 35 43 41 40 40 33 34 35 33 31 31 32 33 33 34 40 32 32 38 46 49 48 22 7 24 27 24 27 29 29 29 34 34
6 12 17 15 16 10 16 16 11 19 6 25 45 46 47 40 33 37 34 30 35 32 31 35 39 44 42 46 50 41 23 26 22 17 18 21 31 29 29 34 33 33 35
19 17 16 15 13 10 5 2 4 9 6 6 2 5 17 19 49 40 34 44 41 43 43 49 53 62 45 44 47 36 17 21 22 23 22 25 27 28 27 35 31 31 28
21 19 16 10 8 7 6 4 2 1 2 6 8 10 13 17 20 17 15 25 31 31 41 31 20 23 49 33 24 21 22 23 22 22 23 24 27 30 33 28 29 31 32
17 12 8 7 5 7 6 6 6 8 10 12 12 15 16 18 21 21 20 19 18 20 21 20 18 20 21 22 22 22 22 23 23 24 26 27 29 30 29 32 31 29 30
10 10 7 6 5 5 6 8 11 12 15 18 21 22 23 24 25 26 26 27 27 26 25 25 26 25 25 26 27 25 24 25 25 26 27 30 30 30 28 28 27 27 29
10 8 6 3 0 2 4 6 8 10 13 17 19 21 21 22 25 27 27 29 29 29 30 31 30 30 28 27 27 26 26 26 25 26 28 29 28 27 26 26 27 25 24
7 5 4 2 3 5 6 6 8 8 9 12 15 18 22 24 24 25 25 26 29 29 30 30 29 29 27 28 28 28 27 26 25 24 24 22 22 22 20 20 20 22 24
2 2 3 5 8 10 12 14 15 16 17 18 18 18 19 21 25 26 26 26 27 28 29 28 29 30 30 30 30 28 28 26 25 23 22 23 22 23 22 23 22 22 23
8 10 12 15 17 18 20 21 24 25 26 27 27 28 28 28 27 27 26 27 29 31 31 31 31 32 30 32 30 28 29 28 26 24 24 25 26 25 23 22 21 23 23
11 12 14 16 18 20 22 24 26 26 28 30 32 34 35 35 35 36 35 34 32 32 33 33 35 32 29 28 32 31 32 30 27 26 28 27 26 25 23 22 23 22 23
11 13 16 19 22 24 27 29 30 32 34 35 35 35 37 38 39 39 40 41 41 39 37 36 35 33 32 31 33 33 34 32 30 30 30 28 27 26 24 23 23 23 24
14 16 18 17 19 20 23 24 24 27 31 33 37 39 42 43 44 44 44 43 43 44 44 42 40 38 36 34 34 35 37 35 33 31 31 28 27 26 24 24 24 23 23
21 21 20 21 21 21 20 19 20 22 26 33 41 44 46 49 50 51 50 49 48 46 44 44 45 43 41 39 38 39 40 38 34 33 31 30 28 27 25 23 23 23 22
27 27 27 24 25 27 28 28 28 29 28 27 27 31 41 52 55 57 58 55 52 49 47 45 44 43 42 40 41 43 44 42 39 35 34 30 29 28 25 23 23 23 23
30 31 30 32 36 37 39 39 39 38 37 34 33 31 31 34 42 50 50 53 59 55 48 47 45 43 44 42 41 43 44 44 43 38 35 33 31 29 26 24 24 24 24
35 38 41 42 42 41 41 39 40 42 43 43 41 38 36 35 37 41 46 48 49 55 55 48 47 46 43 43 43 42 42 44 44 40 37 34 32 29 27 25 23 24 24
39 42 44 44 43 42 41 39 40 43 45 46 45 43 40 35 33 35 40 51 47 51 53 49 47 47 45 43 42 40 40 43 43 39 38 34 32 29 27 25 24 25 24
40 43 43 42 40 39 37 38 42 45 45 45 44 44 39 38 35 33 33 39 43 45 45 45 44 45 46 44 42 41 40 41 41 38 35 35 33 29 28 25 23 24 24
41 42 41 40 39 39 36 38 42 45 44 43 41 41 39 38 33 33 28 34 39 39 40 43 40 40 41 44 40 37 39 37 38 36 39 36 32 29 27 24 23 24 24
41 40 38 38 37 37 37 41 44 43 43 41 41 39 37 34 26 28 31 32 36 33 38 37 36 37 40 40 37 37 38 37 40 43 42 35 32 31 27 24 24 24 25

GFSMW_700_spd_111.txt.gz
Wind_Speed
33 29 23 29 31 29 25 22 29 9 26 34 41 45 37 34 39 44 43 42 40 39 37 35 33 29 26 23 22 20 18 17 17 19 19 22 20 19 22 21 21 21 20
29 30 23 25 32 28 36 30 28 18 23 42 49 39 31 31 32 39 41 40 39 38 37 35 32 29 27 25 23 21 20 18 21 19 21 23 25 25 25 23 21 22 22
20 25 24 23 30 26 36 32 22 16 34 38 42 37 32 30 31 32 35 36 39 37 34 33 32 30 29 27 25 22 19 20 24 15 19 23 26 26 25 24 22 22 21
14 19 17 20 23 29 36 19 10 23 34 34 41 43 43 34 29 30 32 33 36 36 36 35 33 31 30 28 25 21 22 20 20 29 32 27 30 33 28 24 22 28 28
11 11 10 17 25 22 29 23 16 17 27 27 35 37 32 34 35 32 34 37 36 36 37 35 34 33 31 29 24 22 26 22 25 27 29 37 39 28 26 23 16 22 30
9 9 9 7 9 12 11 26 34 21 29 34 33 38 37 39 41 37 37 39 33 34 37 35 33 32 29 27 25 34 34 26 29 33 33 23 32 41 17 23 27 27 28
17 12 16 18 11 20 21 13 16 28 28 33 30 33 36 36 32 34 31 45 34 34 40 33 37 39 34 33 37 40 40 38 41 32 30 25 17 17 34 39 25 31 33
26 20 12 11 7 13 25 19 16 15 12 8 21 34 33 25 43 45 45 38 31 47 51 37 39 33 38 35 40 47 42 41 36 43 30 28 32 30 31 32 34 36 34
19 12 18 17 14 15 14 13 13 14 10 3 8 27 18 16 18 37 24 39 31 31 45 36 39 37 43 48 41 47 57 53 32 22 27 31 32 30 31 31 31 34 32
17 15 9 6 8 7 5 5 4 5 6 5 6 9 13 16 15 21 20 24 24 22 13 32 26 20 21 23 25 20 34 49 24 29 32 31 30 30 29 32 34 33 30
12 13 11 10 9 6 3 2 2 2 4 6 9 10 13 15 16 19 21 24 26 25 25 25 27 26 25 24 23 21 20 25 27 31 30 29 31 32 32 32 30 29 30
15 13 13 12 10 8 7 5 4 4 5 8 10 15 18 21 22 22 24 25 27 28 29 30 30 29 31 29 29 27 27 30 29 29 30 30 30 31 32 29 29 28 29
9 7 6 4 2 1 1 2 2 3 5 7 9 13 17 20 23 26 26 26 26 27 29 31 32 33 32 31 29 28 28 29 29 30 29 29 30 29 28 26 25 25 25
4 3 4 6 8 9 10 11 12 13 15 16 17 20 20 21 22 24 25 27 29 29 29 30 31 32 32 31 31 31 30 31 31 29 29 29 28 27 25 23 25 26 27
5 8 9 12 13 14 16 19 19 21 23 25 27 28 29 30 32 31 32 32 31 30 30 30 30 30 32 32 34 33 34 36 34 31 30 28 27 29 28 26 26 27 30
8 10 13 15 15 17 19 21 22 24 25 27 29 32 34 36 36 37 39 40 40 39 37 35 33 33 33 34 34 35 36 35 36 35 31 30 29 31 29 28 27 28 28
12 14 16 18 21 23 24 26 26 28 30 32 34 36 39 41 42 43 44 44 44 44 44 43 42 39 36 33 31 33 34 37 41 37 35 30 30 31 30 28 27 28 28
12 13 15 16 18 20 19 20 21 22 23 26 31 33 37 41 46 47 49 50 49 49 49 48 47 47 45 40 36 34 35 35 39 37 35 30 29 31 29 29 28 27 27
9 12 14 14 14 15 14 13 15 17 18 21 24 28 35 38 41 42 48 54 56 55 54 52 50 49 47 46 42 38 37 39 39 33 36 34 29 32 28 28 28 27 25
14 15 16 17 19 21 23 23 22 21 20 20 24 31 37 40 44 50 56 59 55 55 54 55 54 50 49 47 47 44 40 40 42 39 38 36 34 33 30 29 29 27 26
20 20 23 26 29 31 31 30 29 29 28 27 30 32 32 32 35 39 43 47 51 53 53 51 50 56 50 46 45 48 44 41 42 42 41 38 37 37 33 29 29 27 26
27 30 34 37 39 39 41 41 40 40 39 39 39 38 39 37 32 33 38 43 48 51 56 55 48 48 52 49 44 45 47 43 42 41 41 39 37 37 33 30 30 29 27
30 32 34 35 37 39 42 44 45 46 45 44 43 41 39 37 36 36 34 34 36 46 53 56 52 48 46 48 44 42 43 45 41 40 39 40 39 39 37 33 31 29 27
32 34 36 37 37 39 39 41 42 43 45 48 47 43 40 38 39 37 35 36 35 35 41 48 51 43 39 44 41 41 41 46 46 42 42 42 40 39 37 36 32 28 26
33 36 38 39 41 41 41 41 42 44 46 47 46 43 41 41 40 36 37 36 32 30 27 33 38 37 33 38 39 37 38 41 44 41 41 42 43 38 38 36 31 28 26
36 38 39 41 42 42 41 41 41 43 45 45 41 40 41 41 38 38 35 32 34 29 31 29 29 32 32 31 37 37 36 39 47 44 40 40 41 42 39 36 32 30 25

GFSMW_700_spd_114.txt.gz
Wind_Speed
39 42 36 38 34 32 39 33 37 35 31 35 34 47 51 51 53 56 49 42 39 36 39 39 40 37 34 31 28 26 24 21 21 20 19 19 21 21 19 20 21 22 22
30 39 41 41 35 30 37 39 35 33 31 36 29 40 41 33 41 59 53 54 38 36 39 40 41 39 36 34 31 27 24 24 24 20 20 21 23 25 22 23 23 24 23
30 33 32 38 36 30 33 35 33 34 34 26 30 39 38 42 51 55 47 42 42 39 40 40 41 40 37 34 31 27 25 26 25 22 20 20 21 21 23 23 28 26 24
20 22 22 28 28 27 27 28 32 29 33 29 32 40 37 41 39 41 32 36 40 41 41 40 41 39 38 36 33 30 30 29 27 22 18 21 23 29 26 28 35 37 29
21 17 17 16 17 21 26 29 32 23 34 25 23 36 32 33 31 35 36 35 33 38 40 40 40 40 39 38 35 34 35 34 29 22 17 22 21 23 30 31 36 30 27
17 12 12 9 13 21 30 33 32 30 24 30 29 38 35 30 38 39 38 42 39 36 37 37 37 38 38 39 40 41 36 39 27 27 28 32 32 28 36 38 28 27 30
17 17 21 10 10 14 11 7 20 20 22 22 27 30 42 37 37 40 39 40 39 35 45 38 37 41 46 40 37 38 41 35 33 41 39 43 38 37 33 31 33 28 30
25 20 21 15 2 14 20 15 14 18 24 21 22 24 30 28 29 27 36 36 33 38 43 44 45 45 42 38 40 41 46 40 38 39 41 44 44 47 47 36 27 33 43
24 19 8 16 17 17 14 25 26 21 16 8 6 24 25 29 30 33 33 42 41 40 48 47 52 39 39 42 48 45 51 40 41 45 48 52 39 43 36 36 34 37 38
21 17 15 15 17 16 15 15 12 6 3 2 2 5 29 16 19 16 18 28 38 25 36 41 30 44 56 57 44 41 46 50 37 43 48 46 54 37 34 36 39 38 37
24 22 24 21 16 13 11 10 7 6 4 2 2 2 6 10 12 14 16 19 22 27 21 28 30 30 32 50 39 32 26 30 25 28 38 41 25 32 36 35 39 36 36
21 19 16 15 12 9 8 7 6 4 1 2 4 7 9 12 15 18 21 23 24 25 26 29 31 31 30 32 34 31 28 28 33 25 27 34 39 41 38 38 37 35 37
13 10 9 6 4 2 1 0 1 1 3 4 6 9 12 16 17 20 23 26 27 29 30 31 31 32 32 34 34 35 35 35 36 37 37 34 40 41 39 36 35 36 34
4 3 3 4 5 7 8 9 9 11 12 14 15 16 19 20 22 24 26 28 30 33 35 35 35 35 35 36 37 39 39 38 38 39 36 35 38 38 37 37 35 34 32
5 7 10 11 12 14 14 16 15 17 17 19 22 24 26 28 30 33 35 37 37 38 39 39 39 39 39 38 37 37 38 38 38 41 40 40 40 39 38 36 33 31 30
7 9 12 14 15 16 17 18 20 20 20 22 24 26 29 31 35 39 41 42 45 47 47 46 45 44 42 41 40 39 38 38 38 39 41 44 46 41 37 34 33 31 30
11 13 15 17 18 18 18 19 22 22 23 27 29 31 34 36 38 41 43 45 49 51 51 51 52 52 50 47 45 44 43 42 41 40 42 43 44 41 38 35 34 34 30
13 15 15 17 18 18 19 19 19 17 18 21 23 26 29 32 34 37 41 48 52 50 50 53 56 57 55 54 51 48 48 45 42 38 37 42 44 44 38 35 32 34 29
13 15 18 17 17 17 16 17 18 18 20 21 25 30 32 35 39 42 47 53 55 58 58 55 52 54 57 55 54 53 50 49 42 39 42 43 44 45 42 31 28 31 29
14 16 15 16 18 20 21 22 22 22 23 24 27 31 36 39 43 46 49 53 56 58 58 56 55 54 52 51 54 51 52 51 48 43 41 45 42 39 34 33 27 28 27
15 18 20 21 23 26 27 28 29 30 30 31 29 30 34 40 43 43 44 46 47 48 52 53 51 48 46 43 45 51 53 51 50 47 44 39 44 37 39 37 26 28 28
19 21 23 25 28 30 31 32 34 36 39 39 40 40 39 38 39 42 44 43 42 43 48 52 52 48 46 43 41 46 51 51 51 50 48 43 48 43 37 39 29 34 30
24 27 29 32 36 38 42 44 45 48 49 50 49 48 47 45 42 38 37 38 41 41 42 47 50 50 48 45 35 40 48 51 50 50 47 46 49 47 47 37 40 36 33
25 28 30 33 35 39 42 46 47 46 45 45 46 46 45 42 40 40 39 39 39 40 40 40 42 42 43 39 33 33 41 47 50 47 47 48 43 40 48 43 41 35 32
29 30 33 35 37 38 41 42 42 42 42 43 43 42 41 40 40 38 39 38 36 38 39 37 35 35 36 30 25 26 32 42 47 48 46 46 46 48 49 42 40 40 32
29 31 33 36 38 40 40 41 40 40 41 40 40 40 40 41 40 41 41 31 33 34 34 37 35 33 34 27 27 24 36 41 42 48 47 46 53 45 45 44 42 37 35

GFSMW_700_spd_117.txt.gz
Wind_Speed
41 53 48 34 30 30 33 35 35 39 40 41 44 42 40 45 47 47 59 59 51 53 44 46 43 43 42 38 34 32 29 26 26 26 24 25 25 23 19 19 22 24 23
33 39 49 44 33 31 33 36 36 37 39 40 40 43 42 40 48 51 65 57 49 50 49 46 37 41 41 40 37 34 31 29 29 27 26 28 27 23 21 22 26 24 23
21 25 34 44 39 36 39 42 39 38 39 38 38 40 40 49 41 43 53 62 51 47 53 39 39 38 41 41 39 37 34 32 30 29 30 30 29 25 22 21 23 23 23
14 24 26 30 36 43 44 40 39 38 36 35 35 35 42 35 39 41 40 47 46 47 44 40 34 36 39 42 40 37 36 33 33 32 31 31 30 26 28 26 26 24 27
13 15 17 19 29 37 36 38 37 35 33 32 33 35 32 32 33 33 35 52 56 53 46 40 33 37 40 42 40 40 39 37 36 33 32 31 30 27 22 21 25 27 28
10 12 10 15 19 20 27 32 34 30 31 31 22 23 17 36 36 33 47 45 45 45 42 37 35 38 38 41 42 43 42 42 40 42 39 38 35 22 25 29 33 37 35
9 13 11 16 12 14 16 25 26 31 29 26 26 24 29 28 24 25 27 32 35 39 48 39 41 38 41 41 41 43 44 45 45 45 48 36 33 32 35 39 38 43 43
9 16 15 14 3 8 12 8 9 16 16 16 15 16 20 23 27 20 29 33 36 35 38 42 37 38 41 41 43 43 47 52 48 53 51 53 45 46 42 41 41 46 48
12 11 8 6 13 9 24 29 22 22 23 10 17 15 10 18 25 29 28 25 35 39 36 39 38 45 48 53 54 50 59 60 59 53 53 52 47 43 49 51 50 44 45
13 15 20 23 21 23 25 22 20 14 9 4 5 14 16 11 4 11 15 17 22 30 33 39 39 42 50 49 43 47 46 49 49 49 53 49 54 48 47 50 54 42 42
29 26 22 19 17 16 16 14 11 8 8 7 6 9 9 18 10 7 14 12 15 20 32 27 28 38 41 44 46 45 41 51 55 51 47 58 56 47 46 53 46 45 42
20 17 16 16 13 13 13 11 10 9 7 5 4 1 4 8 11 13 16 16 18 20 24 27 29 32 30 38 46 41 39 35 53 58 52 42 35 35 36 42 47 42 46
13 12 11 9 9 9 7 7 7 5 4 3 3 4 7 10 13 17 20 23 25 28 30 33 35 36 37 38 38 40 41 42 36 38 43 34 39 34 35 33 35 40 44
7 7 6 6 6 7 7 8 8 9 10 11 12 14 15 17 20 22 24 27 29 31 33 36 39 41 41 42 43 44 45 45 42 40 40 39 42 42 45 42 45 51 43
8 8 9 9 10 11 12 12 13 14 15 15 17 20 22 25 27 30 33 36 38 40 42 43 44 45 47 47 48 47 48 49 49 48 47 46 45 43 43 46 49 44 40
9 11 12 13 14 15 16 17 18 20 20 21 22 24 25 28 30 33 36 40 43 46 49 51 53 55 54 52 51 51 51 52 51 50 48 46 44 43 45 46 43 45 42
14 16 16 15 17 18 18 19 20 20 20 20 22 24 26 29 32 34 37 41 45 48 51 54 57 59 61 60 59 57 55 54 53 52 50 48 46 41 45 47 44 49 46
15 17 18 17 17 16 16 17 18 20 22 24 27 29 32 34 36 38 40 43 45 50 55 59 60 58 56 58 59 61 60 59 56 53 52 51 50 45 43 43 41 47 46
16 17 18 18 18 18 19 20 23 24 26 28 29 31 34 35 36 39 42 46 50 55 57 62 61 58 56 50 50 54 58 62 58 54 52 52 53 50 39 44 46 52 53
17 17 18 20 21 21 22 23 25 27 29 30 30 32 34 35 37 39 42 45 50 53 56 57 61 65 60 45 43 42 48 53 57 57 51 50 47 48 46 54 49 43 48
18 18 19 21 21 22 23 25 27 29 30 31 32 33 36 39 41 41 42 42 43 44 47 52 55 55 56 55 41 38 39 44 50 52 54 49 47 45 47 46 43 40 41
20 20 20 22 24 27 28 29 31 32 33 33 33 34 35 38 41 42 40 41 41 43 44 47 48 48 49 48 44 35 35 39 45 49 49 49 47 47 46 46 41 41 36
20 21 21 22 25 27 31 32 35 39 40 43 45 47 48 49 47 47 47 46 45 44 42 44 43 44 42 43 42 35 30 33 41 43 46 45 44 46 48 45 49 43 44
21 21 22 25 28 32 35 38 40 41 43 45 46 48 49 48 45 43 43 43 43 45 46 42 39 40 40 37 36 29 25 27 37 41 44 45 44 45 46 45 42 49 41
23 24 25 27 30 33 36 39 40 42 42 43 45 46 46 44 41 39 41 41 41 43 41 41 42 42 39 33 30 25 18 19 28 39 42 40 44 46 46 48 46 44 42
24 26 28 31 34 36 37 37 38 40 42 43 45 45 44 40 39 41 38 38 39 35 34 37 40 41 39 33 27 24 22 23 27 31 37 39 38 44 47 43 40 37 41